[[[{"header":{"parameterUnit":"kt","parameterCategory":2,"dx":1,"dy":1,"la1":29.285339999999998,"la2":30.599998999999997,"lo1":-89.70041500000002,"lo2":-87.6738589999976,"nx":112,"ny":82,"refTime":"2022-11-01T12:00:00:Z","depth":0,"parameterNumber":1,"parameterNumberName":"U-component_of_WINDS"},"data":[-3.6982,-3.7745,-3.7703,-3.3676,-3.2901,-3.198,-2.769,-2.7083,-2.7323,-2.6664,-2.6927,-2.7658,0.0,0.0,0.0,0.0,0.0,0.0,0.0,-2.26,0.0,0.0,0.0,0.0,0.0,0.0,0.0,0.0,0.0,0.0,0.0,-4.6849,-4.6802,-4.6287,-4.7248,-4.7786,-4.7786,-4.884,-4.9356,-4.9356,-4.9356,-4.9356,-4.9379,-4.9543,-4.9918,-5.0495,-5.0597,-5.1159,-5.1956,-5.1956,-5.2167,-5.2448,-5.2448,-5.2448,-5.2448,-5.2448,-5.2448,-5.2448,-5.2448,-5.2448,-5.2448,-5.2448,-5.2448,-5.2448,-5.2448,-5.2448,-5.2424,-5.2237,-5.2307,-5.2401,-5.2237,-5.2331,-5.2448,-5.2448,-5.2448,-5.2448,-5.2448,-5.219,-5.1909,-5.1745,-5.1136,-5.0621,-5.0433,-4.9965,-4.9567,-4.9379,-4.9356,-4.9356,-4.9356,-4.9356,-4.9356,-4.9356,-4.6231,-4.4538,-4.5479,-4.015,-3.6769,-3.6769,-3.1097,-2.7716,-2.7518,-2.7505,-2.7425,-2.7143,-2.713,-2.7078,-2.7069,-2.6885,-2.674,-2.6552,-2.6018,-2.5807,-3.5245,-3.5894,-3.5962,-3.1436,-3.0662,-2.995,-2.5932,-2.5532,-2.5846,-2.5211,-2.6305,-2.7235,0.0,0.0,0.0,0.0,0.0,0.0,0.0,0.0,0.0,0.0,0.0,0.0,0.0,0.0,0.0,0.0,-4.1037,0.0,-4.6311,-4.6685,-4.6615,-4.6287,-4.7248,-4.7786,-4.7786,-4.884,-4.9356,-4.9356,-4.9356,-4.9356,-4.9356,-4.9356,-4.9637,-5.0129,-5.0129,-5.0621,-5.1441,-5.1628,-5.1886,-5.2214,-5.2378,-5.2448,-5.2448,-5.2448,-5.2448,-5.2448,-5.2448,-5.2448,-5.2448,-5.2448,-5.2448,-5.2448,-5.2448,-5.2448,-5.2448,-5.2448,-5.2448,-5.2448,-5.2448,-5.2448,-5.2448,-5.2448,-5.2448,-5.2401,-5.2237,-5.1932,-5.1581,-5.123,-5.0597,-5.0058,-4.9895,-4.959,-4.9356,-4.9356,-4.9356,-4.9356,-4.9356,-4.9356,-4.9356,-4.9356,-4.7337,-4.6837,-4.919,-4.504,-4.1186,-3.8681,-3.17,-2.7518,-2.7215,-2.7201,-2.7109,-2.6828,-2.6815,-2.6775,-2.6683,-2.6499,-2.6355,-2.6344,-2.6146,-2.6054,-3.3885,-3.3299,-3.2796,-2.8632,-2.7962,-2.7533,-2.4822,-2.563,-2.6655,-2.5723,-2.6977,-2.8065,0.0,0.0,0.0,0.0,0.0,0.0,0.0,0.0,0.0,0.0,0.0,0.0,0.0,-3.4516,-3.5501,0.0,-3.9345,-4.0124,-4.6662,-4.6545,-4.6264,-4.6264,-4.7248,-4.7786,-4.7786,-4.884,-4.9356,-4.9356,-4.9356,-4.9356,-4.9356,-4.9356,-4.9637,-5.0105,-5.0105,-5.0386,-5.0987,-5.1417,-5.1675,-5.1745,-5.2237,-5.2424,-5.2424,-5.2448,-5.2448,-5.2448,-5.2448,-5.2448,-5.2448,-5.2448,-5.2448,-5.2448,-5.2448,-5.2448,-5.2448,-5.2448,-5.2448,-5.2448,-5.2448,-5.2448,-5.2424,-5.2424,-5.2424,-5.226,-5.1768,-5.1651,-5.1347,-5.0316,-5.0105,-4.9941,-4.9449,-4.9356,-4.9356,-4.9356,-4.9356,-4.9356,-4.9356,-4.9356,-4.9356,-4.9356,-4.9356,-4.9356,-4.9356,-4.9356,-4.6177,-3.8773,-3.1519,-2.737,-2.6815,-2.6802,-2.6802,-2.6789,-2.6789,-2.6657,-2.6394,-2.6394,-2.6331,-2.6054,-2.6054,-2.6054,-3.0248,-3.0892,-3.1604,-2.8723,-2.8619,-2.8632,-2.668,-2.5547,-2.5238,-2.6329,-2.5568,0.0,0.0,0.0,0.0,0.0,0.0,-2.8224,0.0,-2.9307,0.0,0.0,0.0,0.0,0.0,-3.9701,-4.0898,-4.4905,-4.2353,-4.2235,-4.6264,-4.6357,-4.6264,-4.6264,-4.7248,-4.7786,-4.7786,-4.884,-4.9356,-4.9356,-4.9356,-4.9356,-4.9356,-4.9356,-4.9449,-4.9567,-4.9567,-4.9871,-5.034,-5.0504,-5.0995,-5.1698,-5.1839,-5.1909,-5.1956,-5.2307,-5.2448,-5.2448,-5.2448,-5.2448,-5.2448,-5.2448,-5.2448,-5.2448,-5.2448,-5.2448,-5.2448,-5.2448,-5.2448,-5.2448,-5.2448,-5.219,-5.1909,-5.1909,-5.1605,-5.1363,-5.1222,-5.0808,-5.048,-5.0176,-4.9824,-4.952,-4.9379,-4.9356,-4.9356,-4.9356,-4.9356,-4.9356,-4.9356,-4.9356,-4.9356,-4.9356,-4.9356,-4.9356,-4.9356,-4.9028,-4.6835,-4.2189,-3.4935,-2.9542,-2.6704,-2.6526,-2.6421,-2.6292,-2.6278,-2.6252,-2.6173,-2.6173,-2.6133,-2.6054,-2.6054,-2.6054,-2.9545,-3.0165,-3.0942,-2.8536,-2.9156,-2.9544,-2.6412,-2.5672,-2.5795,-2.6249,0.0,0.0,0.0,0.0,0.0,0.0,-2.897,-3.0668,-2.8509,-3.2599,-3.6289,-3.7629,-3.9396,0.0,-4.1977,-4.193,-4.301,-4.6029,-4.3479,-4.308,-4.61,-4.6264,-4.6264,-4.6264,-4.7248,-4.7786,-4.7786,-4.884,-4.9356,-4.9356,-4.9356,-4.9356,-4.9356,-4.9356,-4.9356,-4.9356,-4.9356,-4.952,-4.9824,-5.0035,-5.048,-5.1042,-5.1042,-5.1159,-5.1394,-5.1675,-5.1792,-5.1815,-5.205,-5.2143,-5.2167,-5.2378,-5.2307,-5.2143,-5.2143,-5.2143,-5.219,-5.2401,-5.2448,-5.2401,-5.219,-5.1909,-5.1628,-5.1417,-5.1113,-5.0917,-5.0682,-5.034,-5.0058,-4.9848,-4.9567,-4.9356,-4.9356,-4.9356,-4.9356,-4.9356,-4.9356,-4.9356,-4.9356,-4.9356,-4.9356,-4.9356,-4.9356,-4.9285,-4.9075,-4.877,-4.6342,-4.1165,-3.6563,-3.1776,-2.6666,-2.6371,-2.6226,-2.6054,-2.6054,-2.6054,-2.6054,-2.6054,-2.6054,-2.6054,-2.6054,-2.6054,-3.0184,-3.0139,-3.0337,-2.8229,-2.9274,-2.9748,-2.5773,0.0,-2.7765,-2.7035,0.0,-2.811,-2.872,0.0,0.0,-2.7617,-3.1254,-3.3624,-3.2005,-3.5396,-3.8358,-3.9321,-4.3359,-4.528,-4.308,-4.2494,-4.3291,-4.5983,-4.3737,-4.3408,-4.6123,-4.6264,-4.6264,-4.6264,-4.7248,-4.7786,-4.7786,-4.884,-4.9356,-4.9356,-4.9356,-4.9356,-4.9356,-4.9356,-4.9356,-4.9356,-4.9356,-4.9356,-4.9403,-4.9848,-5.0082,-5.0129,-5.0129,-5.0495,-5.0894,-5.094,-5.0964,-5.0949,-5.1441,-5.1605,-5.1675,-5.212,-5.1979,-5.1605,-5.1605,-5.1605,-5.1698,-5.2143,-5.2284,-5.2167,-5.1722,-5.1558,-5.1394,-5.0902,-5.0823,-5.0574,-5.0129,-5.0035,-4.9895,-4.9449,-4.9356,-4.9356,-4.9356,-4.9356,-4.9356,-4.9356,-4.9356,-4.9356,-4.9356,-4.9356,-4.9332,-4.9285,-4.9285,-4.9075,-4.8559,-4.8466,-4.5584,-3.8833,-3.7444,-3.4081,-2.7812,-2.6591,-2.6054,-2.6054,-2.6054,-2.6054,-2.6054,-2.6054,-2.6054,-2.6054,-2.6054,-2.6054,-2.7806,-2.7899,-2.8317,-2.8242,-2.7452,-2.7355,0.0,0.0,0.0,-3.4622,-3.4351,-3.3727,-3.5091,-3.4609,-3.4281,-3.495,-3.7871,-3.9486,-3.7425,-4.0778,-4.3458,-4.3646,-4.4863,-4.5467,-4.4975,-4.4811,-4.5022,-4.5608,-4.5116,-4.521,-4.6217,-4.6264,-4.6264,-4.6264,-4.7248,-4.7786,-4.7786,-4.884,-4.9356,-4.9356,-4.9356,-4.9356,-4.9356,-4.9356,-4.9356,-4.9356,-4.9356,-4.9356,-4.9379,-4.9473,-4.9754,-5.0129,-5.0129,-5.0176,-5.0316,-5.0823,-5.0964,-5.0987,-5.1081,-5.1128,-5.1152,-5.1245,-5.1113,-5.1128,-5.1128,-5.1128,-5.1152,-5.1245,-5.1183,-5.1159,-5.1066,-5.0738,-5.041,-5.0293,-4.9941,-4.9637,-4.952,-4.952,-4.9473,-4.9379,-4.9356,-4.9356,-4.9356,-4.9356,-4.9356,-4.9356,-4.9356,-4.9356,-4.9356,-4.9356,-4.9215,-4.8794,-4.8747,-4.8536,-4.7997,-4.7575,-4.6714,-4.5247,-3.9566,-3.568,-3.4327,-2.895,-2.6054,-2.6054,-2.6054,-2.6054,-2.6054,-2.6054,-2.6054,-2.6054,-2.6054,-2.6054,-2.6855,-2.7175,-2.7557,-2.7074,-2.6986,0.0,0.0,-2.7939,-2.9058,-3.3507,-3.3586,-3.3751,-3.6618,-3.6924,-3.6759,-3.6759,-3.958,-4.1789,-4.1789,-4.3575,-4.4962,-4.5168,-4.5192,-4.5286,-4.5491,-4.5356,-4.5309,-4.5491,-4.5748,-4.6006,-4.6264,-4.6264,-4.6264,-4.6264,-4.7248,-4.7786,-4.7786,-4.884,-4.9356,-4.9356,-4.9356,-4.9356,-4.9356,-4.9356,-4.9356,-4.9356,-4.9356,-4.9356,-4.9356,-4.9356,-4.952,-4.9731,-4.9731,-4.9731,-4.9777,-5.0035,-5.0129,-5.0152,-5.041,-5.0504,-5.0527,-5.0894,-5.08,-5.0504,-5.0504,-5.0504,-5.0635,-5.0808,-5.0964,-5.0917,-5.0574,-5.0316,-5.0058,-4.9801,-4.9543,-4.9356,-4.9356,-4.9356,-4.9356,-4.9356,-4.9356,-4.9356,-4.9356,-4.9356,-4.9356,-4.9356,-4.9356,-4.9262,-4.9004,-4.8981,-4.8794,-4.8255,-4.8208,-4.7974,-4.7458,-4.7177,-4.6186,-4.4257,-3.909,-3.5414,-3.3649,-2.8746,-2.6054,-2.6054,-2.6054,-2.6054,-2.6054,-2.6054,-2.6054,-2.6054,-2.6054,-2.6054,-2.6167,-2.6624,-2.7106,-2.6171,-2.6798,0.0,-2.6679,-2.7242,-2.9025,-3.2944,-3.3835,-3.4891,-3.8153,-3.9133,-3.911,-3.8193,-4.0473,-4.2894,-4.4351,-4.4563,-4.4774,-4.5139,-4.4986,-4.4915,-4.5303,-4.5033,-4.4939,-4.5327,-4.5748,-4.6053,-4.6264,-4.6264,-4.6264,-4.6264,-4.7154,-4.7693,-4.7786,-4.8747,-4.9262,-4.9356,-4.9356,-4.9356,-4.9356,-4.9356,-4.9356,-4.9356,-4.9356,-4.9356,-4.9356,-4.9356,-4.9356,-4.9356,-4.9356,-4.9356,-4.9356,-4.9356,-4.9356,-4.9426,-4.9824,-4.9965,-5.0035,-5.0457,-5.0316,-4.9965,-4.9965,-4.9965,-5.0058,-5.048,-5.0574,-5.048,-5.0082,-4.9965,-4.9871,-4.9449,-4.9356,-4.9356,-4.9356,-4.9356,-4.9356,-4.9356,-4.9356,-4.9356,-4.9356,-4.9356,-4.9356,-4.9356,-4.9285,-4.9075,-4.8653,-4.8512,-4.8231,-4.7693,-4.7646,-4.7435,-4.692,-4.6873,-4.5585,-4.2392,-3.842,-3.4938,-3.2233,-2.8184,-2.6054,-2.6054,-2.6054,-2.6054,-2.6054,-2.6054,-2.6054,-2.6054,-2.6054,-2.6054,-2.4611,-2.5303,-2.5984,-2.7219,-2.5975,0.0,-3.3906,-3.4738,-3.5736,-4.2492,-4.4249,-4.4554,-4.4577,-4.4624,-4.446,-4.4022,-4.4331,-4.428,-4.3622,-4.3505,-4.3716,-4.421,-4.4233,-4.4398,-4.4915,-4.4492,-4.4398,-4.4915,-4.5009,-4.5379,-4.6217,-4.6264,-4.6264,-4.6264,-4.6826,-4.7341,-4.7786,-4.8395,-4.8911,-4.9356,-4.9356,-4.9356,-4.9356,-4.9356,-4.9356,-4.9356,-4.9356,-4.9356,-4.9356,-4.9356,-4.9356,-4.9356,-4.9356,-4.9356,-4.9356,-4.9356,-4.9356,-4.9379,-4.9426,-4.9449,-4.9449,-4.952,-4.9496,-4.9449,-4.9449,-4.9449,-4.9449,-4.952,-4.9543,-4.952,-4.9473,-4.9449,-4.9426,-4.9379,-4.9356,-4.9356,-4.9356,-4.9356,-4.9356,-4.9356,-4.9356,-4.9356,-4.9356,-4.9356,-4.9356,-4.9356,-4.8981,-4.8676,-4.8606,-4.8185,-4.7669,-4.7177,-4.7107,-4.692,-4.6404,-4.6357,-4.6178,-4.5719,-3.968,-3.5968,-3.5633,-2.9467,-2.6054,-2.6054,-2.6054,-2.6054,-2.6054,-2.6054,-2.6054,-2.6054,-2.6054,-2.6054,-2.3281,-2.4151,-2.5064,-2.5458,0.0,0.0,-3.2052,-3.3751,-3.5923,-4.1696,-4.2798,-4.3338,-4.5163,-4.5256,-4.5033,-4.4516,-4.4186,-4.3834,-4.3411,-4.334,-4.3528,-4.4045,-4.3834,-4.3857,-4.4374,-4.3951,-4.3998,-4.4873,-4.4868,-4.5315,-4.6217,-4.6264,-4.6264,-4.6264,-4.6756,-4.7271,-4.7786,-4.8325,-4.8864,-4.9356,-4.9356,-4.9356,-4.9356,-4.9356,-4.9356,-4.9356,-4.9356,-4.9356,-4.9356,-4.9356,-4.9356,-4.9356,-4.9356,-4.9356,-4.9356,-4.9356,-4.9356,-4.9356,-4.9356,-4.9356,-4.9356,-4.9356,-4.9356,-4.9356,-4.9356,-4.9356,-4.9356,-4.9356,-4.9356,-4.9356,-4.9356,-4.9356,-4.9356,-4.9356,-4.9356,-4.9356,-4.9356,-4.9356,-4.9356,-4.9356,-4.9356,-4.9356,-4.9356,-4.9122,-4.8911,-4.8911,-4.8466,-4.8021,-4.7716,-4.7482,-4.7154,-4.6638,-4.6592,-4.6498,-4.6287,-4.4426,-4.331,-4.331,-3.6979,-3.4126,-3.6048,-2.9628,-2.7007,-2.8986,-2.7074,-2.6054,-2.6054,-2.6054,-2.6054,-2.6054,-2.6054,-2.6054,-2.245,0.0,0.0,0.0,0.0,0.0,-3.2498,-3.4351,-3.6759,-4.099,-4.1672,-4.2283,-4.4699,-4.4915,-4.4492,-4.3975,-4.3575,-4.334,-4.334,-4.334,-4.3528,-4.4045,-4.3646,-4.3552,-4.4045,-4.3646,-4.3716,-4.4586,-4.4849,-4.5268,-4.6006,-4.6193,-4.6264,-4.6264,-4.6615,-4.706,-4.7575,-4.8114,-4.863,-4.9145,-4.9285,-4.9356,-4.9356,-4.9356,-4.9356,-4.9356,-4.9356,-4.9356,-4.9356,-4.9356,-4.9356,-4.9356,-4.9356,-4.9356,-4.9356,-4.9356,-4.9356,-4.9356,-4.9356,-4.9356,-4.9356,-4.9356,-4.9356,-4.9356,-4.9356,-4.9356,-4.9356,-4.9356,-4.9356,-4.9356,-4.9356,-4.9356,-4.9356,-4.9356,-4.9356,-4.9356,-4.9356,-4.9356,-4.9356,-4.9356,-4.9356,-4.9309,-4.9168,-4.884,-4.8559,-4.8395,-4.7927,-4.7458,-4.7084,-4.692,-4.6685,-4.6311,-4.6264,-4.6264,-4.6264,-4.4035,-4.2606,-4.2606,-3.7137,-3.4602,-3.6127,-3.0573,-2.8184,-2.9693,-2.7315,-2.6054,-2.6054,-2.6054,-2.6054,-2.6054,-2.6054,-2.6001,0.0,0.0,0.0,-2.9682,-3.0386,-3.1935,-3.9063,-3.9979,-4.0214,-4.3364,-4.4398,-4.461,-4.4233,-4.4139,-4.3951,-4.3458,-4.3364,-4.334,-4.334,-4.334,-4.3528,-4.4045,-4.3646,-4.3552,-4.4045,-4.3646,-4.3552,-4.4092,-4.4586,-4.5103,-4.5514,-4.6006,-4.6264,-4.6264,-4.6287,-4.6545,-4.706,-4.7552,-4.8091,-4.863,-4.9122,-4.9356,-4.9356,-4.9356,-4.9356,-4.9356,-4.9356,-4.9356,-4.9356,-4.9356,-4.9356,-4.9356,-4.9356,-4.9356,-4.9356,-4.9356,-4.9356,-4.9356,-4.9356,-4.9356,-4.9356,-4.9356,-4.9356,-4.9356,-4.9356,-4.9356,-4.9356,-4.9356,-4.9356,-4.9356,-4.9356,-4.9356,-4.9356,-4.9356,-4.9356,-4.9356,-4.9356,-4.9356,-4.9356,-4.9356,-4.9356,-4.9215,-4.8723,-4.8606,-4.8419,-4.7903,-4.7388,-4.706,-4.7037,-4.6592,-4.6287,-4.6264,-4.6264,-4.6264,-4.6264,-4.6186,-4.6108,-4.6108,-4.2841,-3.9503,-3.6285,-3.2791,-2.9452,-2.6283,-2.6122,-2.6054,-2.6054,-2.6054,-2.6054,-2.6054,-2.6054,-2.5896,-2.4971,-2.6608,-2.8626,-3.2129,-3.4375,-3.651,-3.9368,-4.1319,-4.2847,-4.3881,-4.4233,-4.4304,-4.4139,-4.3834,-4.3552,-4.3364,-4.334,-4.334,-4.334,-4.334,-4.3411,-4.3575,-4.3434,-4.3411,-4.3575,-4.3434,-4.3552,-4.4069,-4.4586,-4.5103,-4.5491,-4.5983,-4.6264,-4.6264,-4.6264,-4.6521,-4.7013,-4.7201,-4.7739,-4.8606,-4.877,-4.9028,-4.9356,-4.9356,-4.9356,-4.9356,-4.9356,-4.9356,-4.9356,-4.9356,-4.9356,-4.9356,-4.9356,-4.9356,-4.9356,-4.9356,-4.9356,-4.9356,-4.9356,-4.9356,-4.9356,-4.9356,-4.9356,-4.9356,-4.9356,-4.9356,-4.9356,-4.9356,-4.9356,-4.9356,-4.9356,-4.9356,-4.9356,-4.9356,-4.9356,-4.9356,-4.9356,-4.9098,-4.8864,-4.8864,-4.8559,-4.8255,-4.8091,-4.7786,-4.7505,-4.7318,-4.6849,-4.6521,-4.6521,-4.6381,-4.6264,-4.6264,-4.6264,-4.6264,-4.6264,-4.4191,-4.2919,-4.2919,-3.9759,-3.7314,-3.6206,-3.295,-3.0557,-2.9452,-2.7154,-2.6054,-2.6054,-2.6054,-2.6054,-2.6054,-2.6054,-2.5883,-2.6444,-2.8321,-3.0386,-3.4609,-3.7511,-3.9556,-4.0614,-4.24,-4.3834,-4.3834,-4.3834,-4.3834,-4.3834,-4.3575,-4.334,-4.334,-4.334,-4.334,-4.334,-4.334,-4.334,-4.334,-4.334,-4.334,-4.334,-4.3505,-4.374,-4.4092,-4.4751,-4.5215,-4.5491,-4.5983,-4.6264,-4.6264,-4.6264,-4.6428,-4.6756,-4.6943,-4.7365,-4.8044,-4.8419,-4.877,-4.9098,-4.9285,-4.9356,-4.9356,-4.9356,-4.9356,-4.9356,-4.9356,-4.9356,-4.9356,-4.9356,-4.9356,-4.9356,-4.9356,-4.9356,-4.9356,-4.9356,-4.9356,-4.9356,-4.9356,-4.9356,-4.9356,-4.9356,-4.9356,-4.9356,-4.9356,-4.9356,-4.9356,-4.9356,-4.9356,-4.9356,-4.9356,-4.9356,-4.9309,-4.9122,-4.8676,-4.8302,-4.8302,-4.8021,-4.7739,-4.7552,-4.7248,-4.6966,-4.6779,-4.6475,-4.6264,-4.6264,-4.6264,-4.6264,-4.6264,-4.6264,-4.6264,-4.6264,-4.4269,-4.2997,-4.2997,-4.0938,-3.8656,-3.6285,-3.4064,-3.1755,-2.9292,-2.7154,-2.6054,-2.6054,-2.6054,-2.5988,-2.5883,-2.5883,-2.5817,-2.6913,-2.8931,-3.1254,-3.7331,-3.9674,-4.0919,-4.2894,-4.334,-4.334,-4.334,-4.334,-4.334,-4.334,-4.334,-4.334,-4.334,-4.334,-4.334,-4.334,-4.334,-4.334,-4.334,-4.334,-4.334,-4.334,-4.3787,-4.4069,-4.4116,-4.4981,-4.5491,-4.5514,-4.5983,-4.6264,-4.6264,-4.6264,-4.6264,-4.6264,-4.6756,-4.7013,-4.7037,-4.8044,-4.8536,-4.8583,-4.9098,-4.9309,-4.9285,-4.9285,-4.9285,-4.9285,-4.9309,-4.9332,-4.9332,-4.9356,-4.9356,-4.9356,-4.9356,-4.9356,-4.9356,-4.9356,-4.9356,-4.9356,-4.9356,-4.9356,-4.9356,-4.9356,-4.9356,-4.9356,-4.9356,-4.9356,-4.9356,-4.9356,-4.9356,-4.9356,-4.9356,-4.9356,-4.9215,-4.8723,-4.8185,-4.7786,-4.7763,-4.7716,-4.7552,-4.7084,-4.699,-4.6826,-4.6334,-4.6264,-4.6264,-4.6264,-4.6264,-4.6264,-4.6264,-4.6264,-4.6264,-4.6264,-4.6264,-4.6264,-4.6264,-4.6108,-4.3019,-3.6444,-3.5968,-3.2791,-2.6202,-2.6015,-2.6001,-2.6001,-2.6001,-2.5856,-2.5659,-2.5659,-2.5513,-3.0198,-3.3718,-3.6689,-4.0614,-4.2095,-4.2682,-4.3223,-4.334,-4.334,-4.334,-4.334,-4.334,-4.334,-4.334,-4.334,-4.334,-4.334,-4.334,-4.334,-4.334,-4.334,-4.334,-4.334,-4.334,-4.334,-4.3458,-4.3693,-4.4069,-4.4704,-4.5168,-4.5491,-4.5983,-4.6264,-4.6264,-4.6264,-4.6264,-4.6264,-4.6404,-4.6662,-4.7037,-4.7294,-4.7622,-4.8021,-4.8559,-4.8583,-4.8185,-4.8185,-4.8185,-4.8231,-4.863,-4.8794,-4.884,-4.9215,-4.9356,-4.9356,-4.9356,-4.9356,-4.9356,-4.9356,-4.9356,-4.9356,-4.9356,-4.9356,-4.9356,-4.9356,-4.9356,-4.9356,-4.9356,-4.9356,-4.9356,-4.9356,-4.9356,-4.9356,-4.9356,-4.9356,-4.9215,-4.8723,-4.8185,-4.7669,-4.7294,-4.692,-4.6615,-4.6475,-4.6451,-4.6428,-4.6287,-4.6264,-4.6264,-4.6264,-4.6264,-4.6264,-4.6264,-4.6264,-4.6264,-4.6264,-4.6264,-4.6264,-4.6264,-4.3879,-4.0624,-3.6365,-3.3729,-3.0413,-2.6135,-2.5632,-2.5487,-2.5487,-2.5487,-2.5447,-2.5381,-2.5381,-2.5144,-2.9142,-3.3601,-3.8029,-4.1413,-4.2635,-4.3011,-4.3011,-4.3176,-4.334,-4.334,-4.334,-4.334,-4.334,-4.334,-4.334,-4.334,-4.334,-4.334,-4.334,-4.334,-4.334,-4.334,-4.334,-4.334,-4.334,-4.3552,-4.3787,-4.4092,-4.4586,-4.5103,-4.5491,-4.5795,-4.6029,-4.6264,-4.6264,-4.6264,-4.6264,-4.6264,-4.6428,-4.6709,-4.692,-4.7177,-4.7482,-4.7997,-4.795,-4.7458,-4.7693,-4.7786,-4.781,-4.8114,-4.8255,-4.8302,-4.8817,-4.9028,-4.9051,-4.9285,-4.9356,-4.9356,-4.9356,-4.9356,-4.9356,-4.9356,-4.9356,-4.9356,-4.9356,-4.9356,-4.9356,-4.9356,-4.9356,-4.9356,-4.9356,-4.9356,-4.9309,-4.9075,-4.9028,-4.8817,-4.8067,-4.7669,-4.7294,-4.6802,-4.6475,-4.6264,-4.6264,-4.6264,-4.6264,-4.6264,-4.6264,-4.6264,-4.6264,-4.6264,-4.6264,-4.6264,-4.6264,-4.6264,-4.6264,-4.6264,-4.5641,-4.4113,-4.2292,-3.8951,-3.398,-3.1925,-2.9263,-2.5751,-2.5434,-2.5275,-2.5275,-2.5275,-2.5209,-2.4999,-2.4999,-2.4841,-2.7266,-3.1864,-3.7323,-4.0825,-4.2095,-4.2494,-4.2565,-4.2917,-4.327,-4.334,-4.334,-4.334,-4.334,-4.334,-4.334,-4.334,-4.334,-4.334,-4.334,-4.334,-4.334,-4.334,-4.334,-4.334,-4.334,-4.374,-4.4022,-4.4092,-4.4516,-4.5009,-4.5374,-4.542,-4.5631,-4.6147,-4.617,-4.6193,-4.6264,-4.6264,-4.6264,-4.6287,-4.6732,-4.692,-4.6943,-4.7388,-4.7341,-4.6943,-4.7388,-4.7575,-4.7599,-4.7669,-4.7693,-4.7739,-4.8278,-4.8489,-4.8559,-4.8981,-4.9192,-4.9262,-4.9262,-4.9309,-4.9356,-4.9356,-4.9356,-4.9356,-4.9356,-4.9309,-4.9262,-4.9262,-4.9215,-4.9145,-4.9145,-4.9145,-4.9051,-4.8606,-4.8442,-4.8138,-4.7154,-4.692,-4.6802,-4.6357,-4.6264,-4.6264,-4.6264,-4.6264,-4.6264,-4.6264,-4.6264,-4.6264,-4.6264,-4.6264,-4.6264,-4.6264,-4.6264,-4.6264,-4.6264,-4.5875,-4.4348,-4.1409,-4.0327,-3.7049,-3.0941,-3.0265,-2.8438,-2.5234,-2.5156,-2.5156,-2.5156,-2.5156,-2.4933,-2.4607,-2.4607,-2.4551,-3.2779,-3.5431,-3.7676,-4.0449,-4.1554,-4.2071,-4.2494,-4.2659,-4.2847,-4.3246,-4.334,-4.334,-4.334,-4.334,-4.334,-4.334,-4.334,-4.334,-4.334,-4.334,-4.334,-4.334,-4.334,-4.334,-4.334,-4.3434,-4.3646,-4.4069,-4.4186,-4.4468,-4.4986,-4.5009,-4.5168,-4.5631,-4.5655,-4.5842,-4.6264,-4.6264,-4.6264,-4.6264,-4.6357,-4.6404,-4.6404,-4.6498,-4.6475,-4.6404,-4.6498,-4.6521,-4.6568,-4.699,-4.7154,-4.7224,-4.7739,-4.7927,-4.795,-4.8021,-4.8348,-4.8747,-4.8747,-4.9004,-4.9356,-4.9356,-4.9356,-4.9356,-4.9356,-4.9075,-4.8747,-4.8747,-4.8419,-4.8067,-4.8067,-4.8067,-4.8044,-4.795,-4.7622,-4.713,-4.6521,-4.6404,-4.6381,-4.6287,-4.6264,-4.6264,-4.6264,-4.6264,-4.6264,-4.6264,-4.6264,-4.6264,-4.6264,-4.6264,-4.6264,-4.6264,-4.6264,-4.6264,-4.6264,-4.3723,-4.1801,-4.1252,-3.5719,-3.2011,-3.0784,-2.7797,-2.5618,-2.4472,-2.4459,-2.4459,-2.4459,-2.4459,-2.4432,-2.438,-2.438,-2.4353,-3.0973,-3.4103,-3.7112,-3.8616,-4.0214,-4.146,-4.1695,-4.2189,-4.2659,-4.2894,-4.2941,-4.3035,-4.3293,-4.334,-4.334,-4.334,-4.334,-4.334,-4.334,-4.334,-4.334,-4.334,-4.334,-4.334,-4.334,-4.334,-4.3434,-4.3693,-4.3716,-4.3928,-4.4445,-4.4468,-4.4704,-4.5168,-4.5374,-4.5631,-4.5865,-4.6147,-4.6264,-4.6264,-4.6264,-4.6264,-4.6264,-4.6264,-4.6264,-4.6264,-4.6264,-4.6264,-4.6287,-4.6545,-4.6638,-4.6685,-4.7201,-4.7388,-4.7435,-4.7693,-4.795,-4.8185,-4.8185,-4.8348,-4.8536,-4.8536,-4.8536,-4.8536,-4.8536,-4.8372,-4.8185,-4.8185,-4.7997,-4.7786,-4.7786,-4.7786,-4.7716,-4.7458,-4.7013,-4.6568,-4.6334,-4.6264,-4.6264,-4.6264,-4.6264,-4.6264,-4.6264,-4.6264,-4.6264,-4.6264,-4.6264,-4.6264,-4.6264,-4.6264,-4.6264,-4.6264,-4.6264,-4.5448,-4.3623,-4.1928,-3.9471,-3.5797,-3.237,-2.9642,-2.7629,-2.5713,-2.4591,-2.4314,-2.4301,-2.4301,-2.4301,-2.4301,-2.4301,-2.4301,-2.4301,-2.4301,-2.9541,-3.3022,-3.6815,-3.7629,-3.9086,-4.0449,-4.0896,-4.1648,-4.2236,-4.2236,-4.2236,-4.2447,-4.3058,-4.3082,-4.3082,-4.3317,-4.334,-4.334,-4.334,-4.334,-4.334,-4.334,-4.334,-4.334,-4.334,-4.334,-4.334,-4.334,-4.334,-4.3528,-4.3928,-4.3951,-4.4186,-4.4755,-4.5028,-4.528,-4.5514,-4.5912,-4.617,-4.6264,-4.6264,-4.6264,-4.6264,-4.6264,-4.6264,-4.6264,-4.6264,-4.6264,-4.6264,-4.6264,-4.6264,-4.6311,-4.6709,-4.6873,-4.692,-4.7318,-4.7529,-4.7622,-4.7622,-4.7693,-4.7786,-4.7786,-4.7786,-4.7786,-4.7786,-4.7716,-4.7622,-4.7622,-4.7552,-4.7458,-4.7458,-4.7458,-4.7365,-4.6966,-4.6568,-4.6264,-4.6264,-4.6264,-4.6264,-4.6264,-4.6264,-4.6264,-4.6264,-4.6264,-4.6264,-4.6264,-4.6264,-4.6264,-4.6264,-4.6264,-4.5984,-4.5168,-4.5068,-4.3623,-3.9938,-3.8972,-3.6193,-3.0646,-2.9564,-2.7796,-2.4825,-2.4459,-2.4301,-2.4301,-2.4301,-2.4301,-2.4301,-2.4301,-2.4301,-2.4301,-2.4301,-2.4301,-3.4234,-3.6313,-3.8123,-3.9603,-3.9063,-3.8687,-4.0567,-4.1084,-4.1155,-4.1155,-4.1155,-4.146,-4.2471,-4.2283,-4.2259,-4.3199,-4.334,-4.334,-4.334,-4.334,-4.334,-4.334,-4.334,-4.334,-4.334,-4.334,-4.334,-4.334,-4.334,-4.3364,-4.3411,-4.3411,-4.3646,-4.4163,-4.4233,-4.4629,-4.5514,-4.5561,-4.5819,-4.6264,-4.6264,-4.6264,-4.6264,-4.6264,-4.6264,-4.6264,-4.6264,-4.6264,-4.6264,-4.6264,-4.6264,-4.6287,-4.6334,-4.6334,-4.6357,-4.6381,-4.6709,-4.7107,-4.7107,-4.7412,-4.7786,-4.7786,-4.7786,-4.7786,-4.7786,-4.7458,-4.7107,-4.7107,-4.6756,-4.6404,-4.6404,-4.6404,-4.6404,-4.6357,-4.6311,-4.6264,-4.6264,-4.6264,-4.6264,-4.6264,-4.6264,-4.6264,-4.6264,-4.6264,-4.6264,-4.6264,-4.6264,-4.6264,-4.6264,-4.6264,-4.499,-4.1713,-4.1362,-3.9841,-3.6178,-3.3069,-3.0971,-3.0399,-2.7061,-2.5005,-2.4672,-2.4459,-2.4301,-2.4301,-2.4301,-2.4301,-2.4301,-2.4301,-2.4301,-2.4301,-2.4301,-2.4301,-2.9377,-3.2005,-3.468,-3.4985,-3.6721,-3.8616,-3.9439,-3.9627,-3.9885,-4.0825,-4.1013,-4.1131,-4.1554,-4.1977,-4.2306,-4.2424,-4.2941,-4.334,-4.334,-4.334,-4.334,-4.334,-4.334,-4.334,-4.334,-4.334,-4.334,-4.334,-4.334,-4.334,-4.334,-4.334,-4.3434,-4.3646,-4.3951,-4.4304,-4.4652,-4.521,-4.5608,-4.5819,-4.6123,-4.6123,-4.5819,-4.6123,-4.6264,-4.6264,-4.6264,-4.6264,-4.6264,-4.6264,-4.6264,-4.6264,-4.6264,-4.6264,-4.6264,-4.6264,-4.6404,-4.6568,-4.6568,-4.6709,-4.6873,-4.6873,-4.6873,-4.6873,-4.6873,-4.6732,-4.6568,-4.6568,-4.6428,-4.6264,-4.6264,-4.6264,-4.6264,-4.6264,-4.6264,-4.6264,-4.6264,-4.6264,-4.6264,-4.6264,-4.6264,-4.6264,-4.6264,-4.6264,-4.6264,-4.6264,-4.6264,-4.6147,-4.5865,-4.3904,-4.1928,-4.0511,-3.8633,-3.6006,-3.2308,-3.075,-2.907,-2.6836,-2.5283,-2.4472,-2.4472,-2.4366,-2.4301,-2.4301,-2.4301,-2.4301,-2.4301,-2.4301,-2.4301,-2.4301,-2.4301,-2.4301,-2.6634,-2.9142,-3.2028,-3.2122,-3.4609,-3.7237,-3.8012,-3.8059,-3.8546,-4.0402,-4.0402,-4.0214,-4.0684,-4.1272,-4.1695,-4.1813,-4.2682,-4.334,-4.334,-4.334,-4.334,-4.334,-4.334,-4.334,-4.334,-4.334,-4.334,-4.334,-4.334,-4.334,-4.334,-4.334,-4.334,-4.334,-4.3693,-4.3951,-4.4116,-4.4769,-4.5139,-4.528,-4.5795,-4.5865,-4.5538,-4.5889,-4.6123,-4.6264,-4.6264,-4.6264,-4.6264,-4.6264,-4.6264,-4.6264,-4.6264,-4.6264,-4.6264,-4.6264,-4.6264,-4.6264,-4.6264,-4.6264,-4.6264,-4.6264,-4.6264,-4.6264,-4.6264,-4.6264,-4.6264,-4.6264,-4.6264,-4.6264,-4.6264,-4.6264,-4.6264,-4.6264,-4.6264,-4.6264,-4.6264,-4.6264,-4.6264,-4.6264,-4.6264,-4.6264,-4.6264,-4.6264,-4.6217,-4.6076,-4.6053,-4.5865,-4.535,-4.22,-3.9243,-3.7205,-3.5057,-3.2231,-2.846,-2.8127,-2.7056,-2.4464,-2.4301,-2.4301,-2.4301,-2.4301,-2.4301,-2.4301,-2.4301,-2.4301,-2.4301,-2.4301,-2.4301,-2.4301,-2.4301,-2.4301,-2.8672,-2.9705,-3.1278,-3.2826,-3.3249,-3.3952,-3.6571,-3.6759,-3.7135,-3.9721,-3.9016,-3.8405,-3.9956,-3.9838,-4.0026,-4.1578,-4.2682,-4.334,-4.334,-4.334,-4.334,-4.334,-4.334,-4.334,-4.334,-4.334,-4.334,-4.334,-4.334,-4.334,-4.334,-4.334,-4.334,-4.334,-4.334,-4.3599,-4.4092,-4.4116,-4.4374,-4.4967,-4.5356,-4.5514,-4.5514,-4.5514,-4.5795,-4.6264,-4.6264,-4.6264,-4.6264,-4.6264,-4.6264,-4.6264,-4.6264,-4.6264,-4.6264,-4.6264,-4.6264,-4.6264,-4.6264,-4.6264,-4.6264,-4.6264,-4.6264,-4.6264,-4.6264,-4.6264,-4.6264,-4.6264,-4.6264,-4.6264,-4.6264,-4.6264,-4.6264,-4.6264,-4.6264,-4.6264,-4.6264,-4.6264,-4.6264,-4.6264,-4.6264,-4.6264,-4.6264,-4.6264,-4.61,-4.5584,-4.5514,-4.5327,-4.4939,-4.2056,-3.7432,-3.0571,-2.9781,-2.8293,-2.4703,-2.4376,-2.4301,-2.4301,-2.4301,-2.4301,-2.4301,-2.4301,-2.4301,-2.4301,-2.4301,-2.4301,-2.4301,-2.4301,-2.4301,-2.4301,-2.4301,-2.4301,-2.6493,-2.7875,-2.9705,-3.1231,-3.2169,-3.3389,-3.597,-3.7323,-3.8153,-3.9039,-3.8804,-3.8499,-3.8616,-3.9674,-4.0684,-4.1178,-4.2142,-4.2941,-4.3293,-4.334,-4.334,-4.334,-4.334,-4.334,-4.334,-4.334,-4.334,-4.334,-4.334,-4.334,-4.334,-4.334,-4.334,-4.334,-4.334,-4.3411,-4.3575,-4.3928,-4.4186,-4.4351,-4.4516,-4.4535,-4.4535,-4.4887,-4.5333,-4.5748,-4.5748,-4.5959,-4.6264,-4.6264,-4.6264,-4.6264,-4.6264,-4.6264,-4.6264,-4.6264,-4.6264,-4.6264,-4.6264,-4.6264,-4.6264,-4.6264,-4.6264,-4.6264,-4.6264,-4.6264,-4.6264,-4.6264,-4.6264,-4.6264,-4.6264,-4.6264,-4.6264,-4.6264,-4.6264,-4.6264,-4.6264,-4.6264,-4.6264,-4.6264,-4.6264,-4.6264,-4.6264,-4.5983,-4.5702,-4.5538,-4.5286,-4.4086,-4.1368,-4.0181,-3.6904,-2.9987,-2.7269,-2.551,-2.4389,-2.4301,-2.4301,-2.4301,-2.4301,-2.4301,-2.4301,-2.4301,-2.4301,-2.4301,-2.4301,-2.4301,-2.4301,-2.4301,-2.4301,-2.4301,-2.4301,-2.4301,-2.5884,-2.7266,-2.8929,-3.0503,-3.0949,-3.177,-3.475,-3.596,-3.6487,-3.705,-3.7167,-3.7253,-3.7323,-3.9016,-4.0426,-4.0426,-4.1648,-4.2682,-4.3011,-4.3223,-4.334,-4.334,-4.334,-4.334,-4.334,-4.334,-4.334,-4.334,-4.334,-4.334,-4.334,-4.334,-4.334,-4.334,-4.334,-4.334,-4.334,-4.3669,-4.381,-4.381,-4.381,-4.3928,-4.4116,-4.4445,-4.4868,-4.5286,-4.5286,-4.5514,-4.5983,-4.5983,-4.61,-4.6264,-4.6264,-4.6264,-4.6264,-4.6264,-4.6264,-4.6264,-4.6264,-4.6264,-4.6264,-4.6264,-4.6264,-4.6264,-4.6264,-4.6264,-4.6264,-4.6264,-4.6264,-4.6264,-4.6264,-4.6264,-4.6264,-4.6264,-4.6264,-4.6217,-4.6029,-4.5983,-4.5936,-4.5802,-4.5755,-4.5755,-4.5755,-4.5497,-4.476,-4.3316,-4.2947,-4.1421,-3.7709,-3.6162,-3.3759,-2.9437,-2.6149,-2.4301,-2.4301,-2.4301,-2.4301,-2.4301,-2.4301,-2.4301,-2.4301,-2.4301,-2.4301,-2.4301,-2.4301,-2.4301,-2.4301,-2.4301,-2.4353,-2.4472,-2.4472,-2.4525,-2.6421,-2.7594,-2.8765,-3.0386,-2.9846,-2.9823,-3.3178,-3.3178,-3.285,-3.4292,-3.4574,-3.4879,-3.5913,-3.773,-3.9298,-3.9556,-4.1178,-4.2447,-4.2565,-4.2988,-4.3317,-4.334,-4.334,-4.334,-4.334,-4.334,-4.334,-4.334,-4.334,-4.334,-4.334,-4.334,-4.334,-4.334,-4.334,-4.334,-4.334,-4.334,-4.334,-4.334,-4.334,-4.3599,-4.4045,-4.4045,-4.4327,-4.4821,-4.4821,-4.5051,-4.5467,-4.5467,-4.5748,-4.617,-4.6193,-4.6217,-4.6217,-4.6264,-4.6264,-4.6264,-4.6264,-4.6264,-4.6264,-4.6264,-4.6264,-4.6264,-4.6264,-4.6264,-4.6264,-4.6264,-4.6264,-4.6264,-4.6264,-4.624,-4.6217,-4.6217,-4.6193,-4.6029,-4.5561,-4.5467,-4.5303,-4.4962,-4.4868,-4.4793,-4.4567,-4.4521,-4.3187,-3.9488,-3.8861,-3.756,-3.3911,-3.0818,-2.8899,-2.8675,-2.6013,-2.4301,-2.4301,-2.4301,-2.4301,-2.4301,-2.4327,-2.4327,-2.4327,-2.4353,-2.4366,-2.4366,-2.4366,-2.4366,-2.4366,-2.4366,-2.4512,-2.4699,-2.4699,-2.4933,-2.4526,-2.5717,-2.7243,-2.9236,-3.0949,-3.2357,-3.3202,-3.292,-3.2451,-3.2435,-3.2435,-3.2623,-3.3249,-3.5055,-3.7378,-4.0191,-4.0731,-4.1202,-4.2424,-4.2682,-4.2917,-4.3293,-4.334,-4.334,-4.334,-4.334,-4.334,-4.334,-4.334,-4.334,-4.334,-4.334,-4.334,-4.334,-4.334,-4.334,-4.334,-4.334,-4.334,-4.334,-4.334,-4.3411,-4.3528,-4.3528,-4.381,-4.428,-4.428,-4.4586,-4.5056,-4.5056,-4.5127,-4.5268,-4.5538,-4.5702,-4.5748,-4.6123,-4.6264,-4.6264,-4.6264,-4.6264,-4.6264,-4.6264,-4.6264,-4.6264,-4.6264,-4.6264,-4.6264,-4.6264,-4.6264,-4.6264,-4.6264,-4.5983,-4.5702,-4.5702,-4.545,-4.5197,-4.508,-4.5056,-4.5009,-4.4892,-4.4868,-4.4093,-4.1602,-4.0899,-3.9455,-3.619,-3.5379,-3.3892,-3.0537,-2.9405,-2.8078,-2.5638,-2.4751,-2.4301,-2.4301,-2.4301,-2.4301,-2.4301,-2.4512,-2.4567,-2.4567,-2.4868,-2.5063,-2.5063,-2.5063,-2.5063,-2.5063,-2.5063,-2.5103,-2.5169,-2.5169,-2.5209,-2.4362,-2.5931,-2.7219,-2.6892,-2.8462,-2.9964,-2.9729,-2.9635,-2.9612,-2.9541,-2.933,-2.9846,-3.2052,-3.2803,-3.4328,-3.824,-3.9251,-4.0003,-4.1319,-4.193,-4.2424,-4.2941,-4.2988,-4.3082,-4.3317,-4.334,-4.334,-4.334,-4.334,-4.334,-4.334,-4.334,-4.334,-4.334,-4.334,-4.334,-4.334,-4.334,-4.334,-4.334,-4.3575,-4.3693,-4.3693,-4.3928,-4.4186,-4.4445,-4.421,-4.4539,-4.5121,-4.4727,-4.4798,-4.5168,-4.5215,-4.5215,-4.5286,-4.5725,-4.5936,-4.5959,-4.6193,-4.6264,-4.6264,-4.6264,-4.6264,-4.6264,-4.6264,-4.6264,-4.6264,-4.6264,-4.5936,-4.5638,-4.5638,-4.5426,-4.5215,-4.5215,-4.508,-4.4873,-4.4563,-4.4516,-4.4072,-4.2309,-4.1967,-4.0904,-3.7768,-3.8142,-3.783,-3.4709,-3.4003,-3.2672,-2.9421,-2.7705,-2.6149,-2.4451,-2.4301,-2.4301,-2.4301,-2.4301,-2.4301,-2.4301,-2.4577,-2.4725,-2.4947,-2.5183,-2.5275,-2.5275,-2.5275,-2.5275,-2.5275,-2.5275,-2.5341,-2.546,-2.546,-2.554,-2.4549,-2.6517,-2.7477,-2.5036,-2.5299,-2.6118,-2.5673,-2.5791,-2.6142,-2.6679,-2.6444,-2.7242,-3.0855,-3.0761,-3.1278,-3.4797,-3.6956,-3.8622,-3.9956,-4.1037,-4.1883,-4.24,-4.2541,-4.2753,-4.3176,-4.3293,-4.334,-4.334,-4.334,-4.334,-4.334,-4.334,-4.334,-4.334,-4.334,-4.334,-4.334,-4.3411,-4.3411,-4.334,-4.3951,-4.4186,-4.4116,-4.4633,-4.4868,-4.492,-4.4421,-4.4727,-4.5327,-4.4516,-4.4558,-4.5233,-4.4915,-4.4751,-4.4821,-4.5262,-4.5397,-4.5444,-4.5889,-4.6029,-4.6029,-4.6029,-4.6029,-4.6029,-4.6029,-4.6029,-4.6053,-4.6123,-4.5544,-4.4868,-4.4868,-4.4821,-4.4751,-4.4751,-4.4755,-4.4516,-4.4092,-4.3998,-4.3025,-3.984,-3.9264,-3.8071,-3.4446,-3.5994,-3.6509,-3.2894,-3.2376,-3.1337,-2.8601,-2.5938,-2.4301,-2.4301,-2.4301,-2.4301,-2.4301,-2.4301,-2.434,-2.4432,-2.467,-2.4947,-2.5328,-2.5328,-2.5354,-2.5407,-2.5407,-2.5407,-2.5407,-2.5407,-2.5526,-2.5751,-2.5751,-2.5804,-2.2847,-2.4362,-2.6025,-2.6423,-2.6421,-2.6212,-2.6118,-2.5529,-2.5083,-2.558,-2.565,-2.5908,-2.6985,-2.8814,-3.0339,-3.0973,-3.3859,-3.6839,-3.9274,-4.0473,-4.1343,-4.1883,-4.2306,-4.2612,-4.2682,-4.3082,-4.334,-4.334,-4.334,-4.334,-4.334,-4.334,-4.334,-4.334,-4.334,-4.334,-4.334,-4.3787,-4.3763,-4.3364,-4.4304,-4.4516,-4.4116,-4.4633,-4.4868,-4.4943,-4.4849,-4.4845,-4.4939,-4.4351,-4.421,-4.4327,-4.4257,-4.421,-4.428,-4.4798,-4.4986,-4.5009,-4.508,-4.5103,-4.5103,-4.5103,-4.5103,-4.5103,-4.5103,-4.5103,-4.5197,-4.5514,-4.5262,-4.4868,-4.4868,-4.4539,-4.421,-4.421,-4.3881,-4.3552,-4.3481,-4.3458,-4.3289,-4.2759,-4.259,-4.0747,-3.4815,-3.4225,-3.2524,-2.6598,-2.5788,-2.5563,-2.5038,-2.4601,-2.4301,-2.4301,-2.4301,-2.4301,-2.4301,-2.4301,-2.4512,-2.5103,-2.5183,-2.5328,-2.5606,-2.5619,-2.5659,-2.5909,-2.5922,-2.5922,-2.5922,-2.5922,-2.5936,-2.5975,-2.5975,-2.6001,-2.3448,-2.4921,-2.6176,-2.5486,-2.5795,-2.6081,-2.5509,-2.5057,-2.4755,-2.5013,-2.4807,-2.5018,-2.6421,-2.7641,-2.9002,-3.0668,-3.2826,-3.5008,-3.705,-3.8757,-4.0167,-4.1249,-4.186,-4.2283,-4.2565,-4.3035,-4.334,-4.334,-4.334,-4.334,-4.334,-4.334,-4.334,-4.334,-4.334,-4.334,-4.334,-4.3857,-4.3975,-4.3763,-4.4722,-4.5098,-4.4887,-4.5403,-4.5638,-4.5614,-4.5333,-4.5379,-4.5567,-4.4845,-4.468,-4.484,-4.4633,-4.4516,-4.4586,-4.5028,-4.5103,-4.4915,-4.5121,-4.5103,-4.4915,-4.5121,-4.5403,-4.5638,-4.5638,-4.5315,-4.4915,-4.5098,-4.5056,-4.4873,-4.4516,-4.428,-4.4045,-4.3763,-4.3505,-4.334,-4.334,-4.334,-4.2299,-3.8897,-3.8217,-3.6141,-2.9793,-3.0074,-3.0223,-2.7272,-2.6823,-2.6823,-2.6823,-2.5338,-2.4301,-2.4301,-2.4301,-2.4366,-2.4525,-2.4696,-2.4984,-2.5249,-2.5407,-2.5553,-2.5672,-2.5764,-2.5909,-2.6041,-2.6054,-2.6054,-2.6054,-2.6054,-2.6054,-2.6054,-2.6054,-2.6054,-2.5501,0.0,-2.7596,-2.6109,-2.6253,-2.6541,0.0,-2.5122,-2.4848,-2.4708,-2.4461,-2.4779,-2.6362,-2.6881,-2.7897,-3.0468,-3.1777,-3.3131,-3.4938,-3.6651,-3.8405,-4.0073,-4.0872,-4.1531,-4.2165,-4.28,-4.3223,-4.334,-4.334,-4.334,-4.334,-4.334,-4.334,-4.334,-4.3458,-4.3458,-4.334,-4.4092,-4.4351,-4.4116,-4.5215,-4.5631,-4.5538,-4.6029,-4.6264,-4.6264,-4.5865,-4.5912,-4.6193,-4.5356,-4.5215,-4.5467,-4.508,-4.4868,-4.4915,-4.5262,-4.5145,-4.4939,-4.5262,-4.5145,-4.4939,-4.5262,-4.5584,-4.599,-4.599,-4.552,-4.5056,-4.5056,-4.4962,-4.4774,-4.4374,-4.428,-4.4163,-4.3646,-4.3528,-4.3481,-4.3364,-4.2736,-4.0747,-3.5847,-3.4298,-3.2005,-2.6374,-2.7331,-2.875,-2.8004,-2.7854,-2.7854,-2.7854,-2.5788,-2.4327,-2.4393,-2.4406,-2.4525,-2.4828,-2.5118,-2.5394,-2.5473,-2.5672,-2.5791,-2.5791,-2.5936,-2.6054,-2.6054,-2.6054,-2.6054,-2.6054,-2.6054,-2.6054,-2.6054,-2.6054,-2.6054,0.0,-3.0202,-3.0695,-3.1077,-2.9755,-2.8275,-2.7687,-2.6444,0.0,-2.4801,-2.5033,-2.5412,-2.5556,-2.6358,-2.7353,-2.8436,-2.96,-3.1231,-3.3741,-3.4691,-3.5843,-3.7888,-3.9016,-4.0026,-4.1013,-4.2048,-4.2847,-4.3317,-4.334,-4.334,-4.334,-4.334,-4.334,-4.334,-4.381,-4.3834,-4.334,-4.4746,-4.4981,-4.4116,-4.5567,-4.5959,-4.5538,-4.6029,-4.6264,-4.6264,-4.624,-4.624,-4.6217,-4.5678,-4.5467,-4.5467,-4.508,-4.4868,-4.4868,-4.4915,-4.4892,-4.4868,-4.4915,-4.4892,-4.4868,-4.4915,-4.4939,-4.4986,-4.4986,-4.5192,-4.5467,-4.5467,-4.5168,-4.4943,-4.4896,-4.4821,-4.468,-4.4186,-4.4045,-4.3928,-4.3434,-4.0966,-3.873,-3.8217,-3.5773,-3.2746,-2.9272,-2.8824,-2.8004,-2.5038,-2.4601,-2.4601,-2.4601,-2.4451,-2.4406,-2.4607,-2.4633,-2.4841,-2.5209,-2.55,-2.5778,-2.5975,-2.6001,-2.6015,-2.6015,-2.6041,-2.6054,-2.6054,-2.6054,-2.6054,-2.6054,-2.6054,-2.6054,-2.6054,-2.6054,-2.6054,-3.1309,-3.255,-3.3223,-3.237,-3.1674,-3.0579,-2.8605,-2.7283,-2.6159,-2.5361,-2.5329,-2.5633,-2.6224,-2.6445,-2.7294,-2.9611,-3.0052,-3.0926,-3.3202,-3.4516,-3.5665,-3.683,-3.9016,-4.059,-4.0966,-4.1954,-4.2659,-4.2847,-4.3176,-4.334,-4.334,-4.334,-4.334,-4.334,-4.3834,-4.4022,-4.381,-4.4905,-4.5303,-4.5004,-4.5842,-4.617,-4.5983,-4.6193,-4.6264,-4.6264,-4.6264,-4.6264,0.0,-4.6053,-4.5983,-4.5959,-4.5849,-4.5755,-4.5755,-4.5755,-4.5567,-4.5286,-4.5286,-4.5074,-4.4915,-4.5168,-4.5286,-4.5356,-4.5661,-4.5819,-4.5983,-4.5983,-4.5842,-4.5684,-4.5379,-4.374,-4.1961,-4.1503,-3.9695,-3.8125,-3.7964,-3.6825,-3.5213,-3.327,-3.1995,-3.0133,-2.6826,-2.6296,-2.6,-2.5058,-2.4696,-2.4643,-2.4905,-2.4931,-2.4907,-2.5013,-2.5026,-2.5224,-2.5685,-2.583,-2.5936,-2.6041,-2.6054,-2.6054,-2.6054,-2.6054,-2.6054,-2.6054,-2.6054,-2.6054,-2.6054,-2.6054,-2.6054,-2.6054,-2.6054,-2.6054,-3.3914,-3.5225,-3.5961,-3.4605,-3.3942,-3.2909,-3.0019,-2.8487,-2.7301,-2.5948,-2.5742,-2.6079,-2.6917,-2.6867,-2.7569,-3.0361,-3.0413,-3.0973,-3.3366,-3.4691,-3.5678,-3.6463,-3.864,-4.0097,-4.0261,-4.1366,-4.2236,-4.2565,-4.2917,-4.3176,-4.334,-4.334,-4.3411,-4.3575,-4.4257,-4.4516,-4.4351,-4.5309,-4.5678,-4.5514,-4.6029,-4.6264,-4.6264,-4.6264,-4.6264,-4.6264,-4.6264,-4.6264,-4.6264,-4.6264,-4.6264,-4.6264,-4.6264,-4.6264,-4.6264,-4.6264,-4.6053,-4.5748,-4.5748,-4.5591,-4.5356,-4.5631,-4.5748,-4.5819,-4.617,-4.6264,-4.6264,-4.6264,-4.5462,-4.4592,-4.4252,-4.1644,-3.8961,-3.8444,-3.6561,-3.4833,-3.4611,-3.3707,-3.2239,-3.0048,-2.8842,-2.7435,-2.5068,-2.4751,-2.492,-2.5039,-2.496,-2.496,-2.5249,-2.5275,-2.5302,-2.5394,-2.5407,-2.5527,-2.6001,-2.6054,-2.6054,-2.6054,-2.6054,-2.6054,-2.6054,-2.6054,-2.6054,-2.6054,-2.6054,-2.6054,-2.6054,-2.6054,-2.6054,-2.6054,-2.6054,-2.5477,-3.7214,-3.8304,-3.8898,-3.8254,-3.6947,-3.5008,-3.2175,-3.0279,-2.8575,-2.6473,-2.6361,-2.6826,-2.7467,-2.7619,-2.8269,-3.0361,-3.0399,-3.1207,-3.4362,-3.4809,-3.5396,-3.6971,-3.7605,-3.8123,-3.8622,-4.012,-4.1437,-4.2494,-4.2588,-4.28,-4.3317,-4.334,-4.3575,-4.4092,-4.5028,-4.5309,-4.4868,-4.5825,-4.6006,-4.5514,-4.6029,-4.6264,-4.6264,-4.6264,-4.6264,-4.6264,-4.6264,-4.6264,-4.6264,-4.6264,-4.6264,-4.6264,-4.6264,-4.6264,-4.6264,-4.6264,-4.6264,-4.6264,-4.6264,-4.6264,-4.6264,-4.6264,-4.6264,-4.6264,-4.6264,-4.6264,-4.6264,-4.6264,-4.3879,-4.1252,-4.1252,-3.8637,-3.5938,-3.5476,-3.5307,-3.5101,-3.4607,-3.2094,-2.989,-2.989,-2.7348,-2.5183,-2.4725,-2.4999,-2.5092,-2.4725,-2.5013,-2.5275,-2.5275,-2.5288,-2.5381,-2.5659,-2.5685,-2.5804,-2.6028,-2.6054,-2.6054,-2.6054,-2.6054,-2.6054,-2.6054,-2.6054,-2.6054,-2.6054,-2.6054,-2.6054,-2.6054,-2.6054,-2.6054,-2.596,-2.596,-2.4093,-3.8838,-3.9487,-3.9578,-3.896,-3.7878,-3.6043,-3.23,-3.0303,-2.8549,-2.6378,-2.6011,-2.6492,-2.7795,-2.7508,-2.8014,-3.0902,-3.0976,-3.1489,-3.3939,-3.5208,-3.636,-3.7535,-3.8146,-3.8828,-3.9721,-4.0214,-4.0755,-4.1413,-4.2165,-4.2635,-4.28,-4.28,-4.3035,-4.3552,-4.4233,-4.4492,-4.4327,-4.521,-4.5655,-4.5514,-4.6029,-4.6264,-4.6264,-4.6264,-4.6264,-4.6264,-4.6264,-4.6264,-4.6264,-4.6264,-4.6264,-4.6264,-4.6264,-4.6264,-4.6264,-4.6264,-4.6264,-4.6264,-4.6264,-4.6264,-4.6264,-4.6264,-4.6264,-4.6264,-4.6264,-4.6264,-4.6264,-4.6264,-4.5563,-4.4191,-4.1801,-3.69,-3.2598,-3.2403,-3.0497,-2.8745,-2.8643,-2.7742,-2.6891,-2.6891,-2.6183,-2.5526,-2.5369,-2.55,-2.5527,-2.5645,-2.5553,-2.5645,-2.5764,-2.579,-2.583,-2.5909,-2.5922,-2.5949,-2.6041,-2.6054,-2.6054,-2.6054,-2.6054,-2.6054,-2.6054,-2.6054,-2.6054,-2.6054,-2.6054,-2.6054,-2.6054,-2.6054,-2.4751,-2.2386,-2.2386,-2.0435,-4.0054,-4.0417,-4.0258,-3.9331,-3.8589,-3.7062,-3.3029,-3.1203,-2.9632,-2.6994,-2.645,-2.6813,-2.7964,-2.7777,-2.8532,-3.179,-3.1863,-3.2451,-3.5208,-3.6383,-3.7441,-3.8687,-3.9133,-3.958,-4.0191,-4.0238,-4.0379,-4.0684,-4.1484,-4.2048,-4.2259,-4.2847,-4.334,-4.3646,-4.4139,-4.4421,-4.4421,-4.4957,-4.5303,-4.5514,-4.5819,-4.6076,-4.6264,-4.6264,-4.6264,-4.6264,-4.6264,-4.6264,-4.6264,-4.6264,-4.6264,-4.6264,-4.6264,-4.6264,-4.6264,-4.6264,-4.6264,-4.6264,-4.6264,-4.6264,-4.6264,-4.6264,-4.6264,-4.6264,-4.6264,-4.6264,-4.603,-4.4582,-4.4269,-4.3153,-3.84,-3.4126,-3.0797,-2.9372,-2.7556,-2.6054,-2.6054,-2.5909,-2.5777,-2.5777,-2.5777,-2.5751,-2.5712,-2.5698,-2.5804,-2.587,-2.5817,-2.5843,-2.6028,-2.6054,-2.6054,-2.6054,-2.6054,-2.6054,-2.6054,-2.6054,-2.6054,-2.6054,-2.6054,-2.6054,-2.6054,-2.6054,-2.5396,-2.4013,-2.3932,-2.3286,-2.1901,-2.1901,-2.0758,-1.8735,-1.8735,-1.6861,-4.0822,-4.1033,-4.0725,-3.9455,-3.9084,-3.801,-3.4021,-3.2692,-3.1321,-2.8078,-2.7413,-2.7528,-2.8006,-2.8339,-2.9524,-3.2649,-3.2966,-3.3929,-3.7347,-3.7958,-3.8569,-4.0003,-4.0214,-4.0238,-4.0238,-4.0238,-4.0238,-4.0238,-4.0684,-4.1202,-4.1719,-4.3176,-4.3975,-4.4045,-4.4492,-4.4802,-4.4802,-4.4774,-4.4957,-4.5374,-4.5467,-4.5748,-4.6193,-4.6264,-4.6264,-4.6264,-4.6264,-4.6264,-4.6264,-4.6264,-4.6264,-4.6264,-4.6264,-4.6264,-4.6264,-4.6264,-4.6264,-4.6264,-4.6264,-4.6264,-4.6264,-4.6264,-4.603,-4.5797,-4.5797,-4.5563,-4.4682,-4.1644,-4.076,-3.9267,-3.2774,-3.1116,-3.0237,-2.6846,-2.6054,-2.6054,-2.6054,-2.6054,-2.6054,-2.6054,-2.6054,-2.5962,-2.5778,-2.587,-2.5962,-2.5764,-2.587,-2.6054,-2.6054,-2.6054,-2.6054,-2.6054,-2.6054,-2.6054,-2.6054,-2.6054,-2.6054,-2.6054,-2.6054,-2.5893,-2.5558,-2.5558,-2.3932,-2.0354,-2.0273,-1.8735,-1.557,-1.557,-1.5408,-1.5083,-1.5083,-1.3288,-4.0841,-4.1033,-4.0848,-3.9986,-3.9455,-3.813,-3.4618,-3.298,-3.1321,-2.8078,-2.7413,-2.7465,-2.7554,-2.8692,-3.0214,-3.2152,-3.3838,-3.5454,-3.7088,-3.8358,-3.9274,-3.9603,-4.0003,-4.0238,-4.0238,-4.0238,-4.0238,-4.0238,-4.0355,-4.0825,-4.1696,-4.2518,-4.3082,-4.3505,-4.3622,-4.3669,-4.3669,-4.4069,-4.4327,-4.4445,-4.5116,-4.5561,-4.5702,-4.6076,-4.6264,-4.6264,-4.6264,-4.6264,-4.6264,-4.6264,-4.6264,-4.6264,-4.6264,-4.6264,-4.6264,-4.6264,-4.6264,-4.6264,-4.6264,-4.6264,-4.6264,-4.6264,-4.4426,-4.2271,-4.2271,-4.0467,-3.8183,-3.7472,-3.7235,-3.6267,-3.2137,-3.1116,-3.0237,-2.6846,-2.6054,-2.6054,-2.6054,-2.6054,-2.6054,-2.6054,-2.6054,-2.6028,-2.5962,-2.6001,-2.6028,-2.5962,-2.6001,-2.6054,-2.6054,-2.6054,-2.6054,-2.6054,-2.6054,-2.6054,-2.6054,-2.6054,-2.6054,-2.6054,-2.6054,-2.4832,-2.2063,-2.1901,-2.0273,-1.6788,-1.6707,-1.6301,-1.557,-1.557,-1.4182,-1.1579,-1.1579,-0.9712,-4.0539,-4.0825,-4.0787,-3.9826,-3.9331,-3.8281,-3.5436,-3.4073,-3.2535,-2.9579,-2.8983,-2.8737,-2.7954,-2.9376,-3.1098,-3.2419,-3.4316,-3.5994,-3.7323,-3.8217,-3.8828,-3.9086,-3.9556,-3.9885,-3.9885,-4.0308,-4.0614,-4.0614,-4.0849,-4.1343,-4.2142,-4.2447,-4.2823,-4.3317,-4.334,-4.334,-4.334,-4.3857,-4.4233,-4.4492,-4.5215,-4.5631,-4.5889,-4.6147,-4.6264,-4.6264,-4.6264,-4.6264,-4.6264,-4.6264,-4.6264,-4.6264,-4.6264,-4.6264,-4.6264,-4.6264,-4.6264,-4.6264,-4.6264,-4.6264,-4.5719,-4.2471,-4.0231,-3.8794,-3.8794,-3.7551,-3.581,-3.4205,-3.3729,-3.295,-2.9532,-2.8666,-2.8184,-2.6444,-2.6054,-2.6054,-2.6054,-2.6054,-2.6054,-2.6054,-2.6054,-2.6054,-2.6054,-2.6054,-2.6054,-2.6054,-2.6054,-2.6054,-2.6054,-2.5922,-2.5843,-2.5843,-2.5962,-2.6054,-2.6054,-2.4497,-2.3528,-2.3528,-2.1982,-2.0192,-1.8329,-1.8248,-1.6618,-1.3206,-1.3125,-1.2312,-1.0608,-1.0608,-0.9712,-0.8,-0.8,-0.7024,-4.0288,-4.0617,-4.0658,-3.9677,-3.9256,-3.854,-3.6396,-3.5403,-3.421,-3.1669,-3.1062,-3.0521,-2.9012,-3.0609,-3.238,-3.3243,-3.5014,-3.6647,-3.7794,-3.8069,-3.8287,-3.8546,-3.911,-3.9509,-3.9603,-4.0449,-4.1037,-4.1131,-4.1648,-4.2189,-4.2682,-4.2635,-4.2823,-4.3317,-4.334,-4.334,-4.334,-4.3857,-4.4304,-4.4751,-4.521,-4.5725,-4.6147,-4.624,-4.6264,-4.6264,-4.6264,-4.6264,-4.6264,-4.6264,-4.6264,-4.6264,-4.6264,-4.5952,-4.5384,-4.5384,-4.4994,-4.4526,-4.4526,-4.4526,-4.3566,-3.7946,-3.581,-3.5237,-3.5237,-3.4858,-3.3825,-3.1036,-3.0237,-2.9613,-2.6766,-2.6054,-2.6054,-2.6054,-2.6054,-2.6054,-2.6054,-2.6054,-2.6041,-2.5975,-2.5936,-2.5896,-2.5896,-2.5936,-2.5975,-2.5975,-2.5975,-2.5975,-2.5975,-2.5791,-2.5593,-2.554,-2.5234,-2.5082,-2.5082,-2.1859,-1.9919,-1.9919,-1.717,-1.5314,-1.4668,-1.4668,-1.3052,-0.9653,-0.9591,-0.8142,-0.5218,-0.5228,-0.5234,-0.5234,-0.5234,-0.5234,-4.0383,-4.0617,-4.0435,-4.0658,-3.9998,-3.8913,-3.7551,-3.6736,-3.5593,-3.3211,-3.2365,-3.1866,-3.1206,-3.2949,-3.4536,-3.4741,-3.7194,-3.888,-3.8198,-3.8726,-3.8969,-3.8099,-3.8875,-3.965,-4.0097,-4.0661,-4.1202,-4.1672,-4.2189,-4.2706,-4.3223,-4.2823,-4.2823,-4.3317,-4.334,-4.334,-4.334,-4.3857,-4.4139,-4.421,-4.5046,-4.5561,-4.5631,-4.6076,-4.6264,-4.6264,-4.6264,-4.6264,-4.6264,-4.6264,-4.6264,-4.6264,-4.6264,-4.4504,-4.1879,-4.1879,-3.9995,-3.7472,-3.7472,-3.7472,-3.7314,-3.6444,-3.4143,-3.1755,-3.1755,-2.9693,-2.7315,-2.6846,-2.6766,-2.6605,-2.6122,-2.6054,-2.6054,-2.6054,-2.6054,-2.6054,-2.6054,-2.6054,-2.5975,-2.5791,-2.5553,-2.5381,-2.5381,-2.5579,-2.5738,-2.5738,-2.5738,-2.5738,-2.5738,-2.55,-2.5222,-2.4804,-2.2604,-2.1179,-2.1179,-1.8105,-1.6216,-1.6216,-1.5822,-1.4166,-1.1092,-1.1019,-0.9357,-0.587,-0.5771,-0.556,-0.5076,-0.5207,-0.5234,-0.5234,-0.5234,-0.5234,-3.8306,-3.9163,-3.936,-3.8075,-3.6934,-3.6094,-3.6078,-3.5505,-3.4936,-3.4993,-3.4614,-3.3783,-3.2214,-3.332,-3.4426,-3.4455,-3.667,-3.8164,-3.7621,-3.8489,-3.8814,-3.8022,-3.8828,-3.958,-3.9791,-4.0825,-4.1554,-4.1813,-4.266,-4.323,-4.3317,-4.3301,-4.3111,-4.2917,-4.2917,-4.2917,-4.2917,-4.3716,-4.4116,-4.4116,-4.4868,-4.5309,-4.5514,-4.5748,-4.6006,-4.6264,-4.6264,-4.6264,-4.6264,-4.6264,-4.6264,-4.6264,-4.6264,-4.4191,-4.1487,-4.331,-4.0702,-3.6444,-3.8321,-3.503,-3.0014,-3.0014,-2.9072,-2.7828,-2.7828,-2.6817,-2.5645,-2.5645,-2.5645,-2.5645,-2.5645,-2.5645,-2.5645,-2.5645,-2.5645,-2.5645,-2.5645,-2.5645,-2.5606,-2.5473,-2.5354,-2.5222,-2.4973,-2.5184,-2.5394,-2.5144,-2.5341,-2.4638,-2.2454,-2.207,-2.127,-1.9337,-1.8187,-1.7539,-1.7539,-1.4517,-1.2614,-1.2614,-1.0725,-0.8993,-0.7421,-0.7342,-0.6635,-0.5056,-0.5083,-0.5016,-0.5016,-0.5122,-0.5136,-0.5136,-0.5136,-0.5136,-3.5232,-3.6029,-3.626,-3.5107,-3.3662,-3.2847,-3.4169,-3.3615,-3.3408,-3.5385,-3.5402,-3.4767,-3.3594,-3.3606,-3.3962,-3.4549,-3.6057,-3.7247,-3.7743,-3.866,-3.9032,-3.8442,-3.8987,-3.9533,-3.9674,-4.0849,-4.1252,-4.0484,-4.2353,-4.3515,-4.349,-4.3802,-4.3777,-4.3349,-4.2538,-4.2036,-4.182,-4.1825,-4.1714,-4.17,-4.2189,-4.2611,-4.2913,-4.2913,-4.3113,-4.3523,-4.3523,-4.3523,-4.3523,-4.3523,-4.3523,-4.3523,-4.3523,-4.1384,-3.8694,-4.1228,-3.8479,-3.3849,-3.7286,-3.2627,-2.5275,-2.5275,-2.5275,-2.5275,-2.5275,-2.5275,-2.5275,-2.5275,-2.5275,-2.5275,-2.5275,-2.5275,-2.5275,-2.5275,-2.5275,-2.5275,-2.5275,-2.5275,-2.5249,-2.5169,-2.5078,-2.4986,-2.4683,-2.4815,-2.4868,-2.4577,-2.4722,-2.3259,-1.8632,-1.8085,-1.721,-1.4862,-1.4169,-1.3899,-1.3899,-1.082,-0.888,-0.888,-0.6488,-0.5014,-0.5014,-0.5014,-0.5014,-0.5014,-0.503,-0.5035,-0.5035,-0.5051,-0.5056,-0.5056,-0.5056,-0.5056,-3.1414,-3.0781,-2.993,-3.31,-3.1647,-3.0015,-3.2444,-3.1778,-3.131,-3.3377,-3.3569,-3.3976,-3.5992,-3.4691,-3.393,-3.6098,-3.6498,-3.7346,-3.9408,-4.0094,-4.0188,-3.9617,-3.9485,-3.9674,-4.0144,-4.0708,-3.9844,-3.7056,-4.0649,-4.3243,-4.3728,-4.4297,-4.4849,-4.5295,-4.2448,-4.0535,-3.9784,-3.6896,-3.5358,-3.5064,-3.5647,-3.5873,-3.5892,-3.5892,-3.5892,-3.591,-3.591,-3.591,-3.591,-3.591,-3.591,-3.591,-3.591,-3.3839,-3.091,-3.1065,-2.8929,-2.6315,-2.9689,-2.8434,-2.5275,-2.5275,-2.5275,-2.5275,-2.5275,-2.5275,-2.5275,-2.5275,-2.5275,-2.5275,-2.5275,-2.5275,-2.5275,-2.5275,-2.5275,-2.5275,-2.5275,-2.5275,-2.5183,-2.4751,-2.4699,-2.4593,-2.438,-2.434,-2.4248,-2.3971,-2.3945,-2.1663,-1.5114,-1.4493,-1.4469,-1.4074,-1.1528,-0.9858,-0.9858,-0.6934,-0.5113,-0.5113,-0.4941,-0.4897,-0.4897,-0.4897,-0.4897,-0.4897,-0.5027,-0.5057,-0.5057,-0.5032,-0.5056,-0.5056,-0.5056,-0.5056,-2.9837,-2.8968,-2.7752,-2.7897,-2.6797,-2.663,-3.0479,-2.9221,-2.8542,-3.2941,-3.246,-3.19,-3.403,-3.3475,-3.3163,-3.4354,-3.5971,-3.6715,-3.5701,-3.8458,-4.0329,-3.9746,-4.0165,-3.9959,-3.8278,-3.8254,-3.7861,-3.6646,-3.6675,-3.6969,-3.7451,-3.7862,-3.897,-4.1018,-4.0035,-4.0246,-4.1929,-3.9193,-3.7787,-3.7717,-3.6223,-3.5845,-3.6385,-3.6385,-3.6293,-3.6141,-3.6141,-3.5854,-3.5395,-3.5395,-3.5395,-3.5395,-3.5395,-3.3325,-3.063,-3.2787,-3.0029,-2.5378,-2.6188,-2.5669,-2.4617,-2.4617,-2.4617,-2.4617,-2.4617,-2.4617,-2.4617,-2.4617,-2.4617,-2.4617,-2.4617,-2.4617,-2.4617,-2.4617,-2.4617,-2.4617,-2.4617,-2.4617,-2.4591,-2.4485,-2.4459,-2.4366,-2.409,-2.3879,-2.3069,-2.0735,-1.8597,-1.5717,-1.1396,-1.093,-1.0229,-0.812,-0.6991,-0.6394,-0.6394,-0.5368,-0.4759,-0.4871,-0.4893,-0.4847,-0.4887,-0.4887,-0.4887,-0.4887,-0.4908,-0.4918,-0.4918,-0.494,-0.4947,-0.4947,-0.4947,-0.4947,-2.7009,-2.6212,-2.511,-2.3857,-2.3017,-2.3415,-2.7072,-2.5898,-2.5424,-3.0197,-2.9846,-2.9338,-3.1474,-3.0963,-3.0842,-3.2745,-3.3477,-3.3785,-3.375,-3.58,-3.7271,-3.7089,-3.8581,-3.8772,-3.672,-3.5757,-3.5387,-3.5567,-3.5524,-3.5519,-3.5613,-3.6172,-3.6787,-3.7505,-3.6759,-3.7178,-3.8895,-3.6187,-3.4651,-3.4437,-3.2647,-3.2263,-3.2977,-3.3027,-3.2997,-3.2771,-3.2543,-3.2163,-3.1648,-3.1648,-3.1648,-3.1648,-3.1648,-3.0277,-2.8597,-3.081,-2.8994,-2.5302,-2.4824,-2.4526,-2.4301,-2.4301,-2.4301,-2.4301,-2.4301,-2.4235,-2.4169,-2.4169,-2.4169,-2.4169,-2.4169,-2.4235,-2.4301,-2.4301,-2.4235,-2.4169,-2.4169,-2.4169,-2.4103,-2.3905,-2.3191,-2.2499,-2.2165,-2.1085,-1.958,-1.7275,-1.5085,-1.2106,-0.8044,-0.7476,-0.6708,-0.4616,-0.4513,-0.4537,-0.4537,-0.459,-0.4648,-0.4706,-0.4801,-0.485,-0.4855,-0.4857,-0.4868,-0.4887,-0.4887,-0.4887,-0.4887,-0.4887,-0.4734,-0.4429,-0.4429,-0.4352,-2.2736,-2.2236,-2.1538,-2.1125,-2.0482,-2.0451,-2.2328,-2.2025,-2.2105,-2.4905,-2.5608,-2.639,-2.8641,-2.7328,-2.7214,-3.137,-2.9132,-2.8697,-3.3868,-3.2372,-3.107,-3.2046,-3.4549,-3.6028,-3.5481,-3.3308,-3.2353,-3.3371,-3.7107,-3.9042,-3.8262,-3.9468,-3.8593,-3.5209,-3.2835,-3.1356,-3.0625,-2.7446,-2.5442,-2.4647,-2.4589,-2.4741,-2.5092,-2.5336,-2.5488,-2.5413,-2.4663,-2.4287,-2.4301,-2.4301,-2.4301,-2.4301,-2.4301,-2.4301,-2.4376,-2.4287,-2.48,-2.54,-2.54,-2.4875,-2.4274,-2.4274,-2.4274,-2.4274,-2.4274,-2.409,-2.3879,-2.3879,-2.3879,-2.3879,-2.3879,-2.4076,-2.4274,-2.4274,-2.4076,-2.3879,-2.3805,-2.3792,-2.3621,-2.2815,-2.0822,-1.9024,-1.843,-1.5926,-1.3949,-1.3834,-1.3573,-1.1114,-0.5061,-0.4296,-0.4296,-0.4296,-0.4296,-0.4296,-0.4296,-0.4417,-0.4473,-0.4458,-0.4587,-0.4742,-0.4861,-0.4866,-0.4818,-0.4876,-0.4876,-0.48,-0.48,-0.48,-0.4421,-0.3659,-0.3659,-0.3202,-2.1643,-1.9939,-1.8292,-1.7919,-1.813,-1.9208,-2.2097,-2.1182,-2.0772,-2.4652,-2.4105,-2.3681,-2.6276,-2.6233,-2.6219,-2.7415,-2.8073,-2.8878,-3.0324,-3.0656,-3.157,-3.3772,-3.3299,-3.1738,-2.9024,-2.8603,-2.8572,-2.8526,-2.8116,-2.8161,-2.8618,-2.95,-3.0664,-3.2348,-3.1724,-3.2052,-3.3467,-3.0525,-2.8662,-2.7824,-2.592,-2.5099,-2.5256,-2.5586,-2.5564,-2.517,-2.4948,-2.4624,-2.4301,-2.4301,-2.4301,-2.4301,-2.4301,-2.4676,-2.5072,-2.4636,-2.4267,-2.4047,-2.4047,-2.3901,-2.3754,-2.3754,-2.3754,-2.3754,-2.3754,-2.3701,-2.3648,-2.3648,-2.3648,-2.3648,-2.3648,-2.3701,-2.3754,-2.3754,-2.3701,-2.3052,-2.0753,-2.1785,-2.1888,-1.7571,-1.7826,-1.7894,-1.5494,-1.4431,-1.3057,-1.0714,-0.8337,-0.625,-0.4504,-0.4296,-0.4296,-0.4296,-0.4296,-0.4296,-0.4296,-0.4312,-0.4346,-0.4473,-0.4492,-0.4531,-0.4603,-0.4608,-0.4544,-0.456,-0.456,-0.4343,-0.3906,-0.3906,-0.349,-0.286,-0.286,-0.148,-2.0728,-1.9201,-1.7513,-1.6549,-1.6747,-1.7875,-2.0573,-1.9899,-1.9628,-2.2697,-2.2164,-2.1697,-2.341,-2.3952,-2.44,-2.5279,-2.5726,-2.6253,-2.7145,-2.7124,-2.7506,-2.8956,-2.7859,-2.6329,-2.4675,-2.4955,-2.5808,-2.7281,-2.6186,-2.5672,-2.6265,-2.6622,-2.7235,-2.8119,-2.8458,-2.9342,-3.0777,-2.9089,-2.8161,-2.7741,-2.6238,-2.5575,-2.5779,-2.6343,-2.6309,-2.5816,-2.5437,-2.5183,-2.4833,-2.4833,-2.4833,-2.4833,-2.4833,-2.4907,-2.5013,-2.4668,-2.4313,-2.4023,-2.4023,-2.3806,-2.3516,-2.3516,-2.3516,-2.3516,-2.3516,-2.3437,-2.3259,-2.3259,-2.3259,-2.3259,-2.3259,-2.3423,-2.3516,-2.3516,-2.2399,-2.0906,-1.9056,-1.8997,-1.8095,-1.4535,-1.4189,-1.3907,-1.1879,-1.0566,-0.9166,-0.7304,-0.5426,-0.429,-0.429,-0.429,-0.429,-0.429,-0.429,-0.429,-0.429,-0.429,-0.4317,-0.4375,-0.4378,-0.4415,-0.4497,-0.3654,-0.317,-0.3186,-0.2337,-0.17,-0.1275,-0.0708,-0.0071,0.0644,0.1288,0.3449,-1.9329,-1.8752,-1.7708,-1.6013,-1.5732,-1.6362,0.0,-1.8231,-1.8365,-1.9762,-2.006,-2.0183,-2.054,-2.1105,-2.213,-2.4132,-2.2927,-2.2428,-2.4592,-2.3005,-2.1521,-2.1202,-2.0991,-2.1262,-2.2133,-2.2213,-2.3771,-2.7449,-2.7814,-2.7748,-2.7732,-2.7732,-2.647,-2.3833,-2.445,-2.495,-2.5364,-2.5364,-2.5446,-2.5763,-2.5763,-2.5928,-2.6285,-2.7007,-2.7035,-2.6594,-2.5919,-2.563,-2.5645,-2.5529,-2.5471,-2.5399,-2.5399,-2.4953,-2.4323,-2.4437,-2.4451,-2.4379,-2.4379,-2.3974,-2.3423,-2.3423,-2.3423,-2.3423,-2.3423,-2.3167,-2.2885,-2.2885,-2.2885,-2.2814,-2.2517,-2.2639,-2.2833,-2.2471,-2.0117,-1.7816,-1.747,-1.5558,-1.3497,-1.2288,-1.0419,-0.8836,-0.8,-0.5862,-0.4245,-0.4244,-0.4233,-0.4236,-0.4242,-0.4244,-0.4247,-0.4252,-0.4255,-0.4255,-0.4255,-0.4255,-0.4277,-0.4264,-0.4067,-0.3977,-0.4072,-0.2071,-0.0971,-0.0983,0.0983,0.2034,0.2102,0.3575,0.4629,0.54,0.674,0.954,0.0,0.0,0.0,0.0,0.0,0.0,0.0,-1.5596,-1.6263,-1.7475,-1.7908,-1.8378,-1.9352,-1.9533,-2.0146,-2.1805,-2.1442,-2.1927,-2.4528,-2.262,-2.0924,-2.0847,-2.126,-2.144,-2.1106,-2.1572,-2.2344,-2.3442,-2.3968,-2.4417,-2.4754,-2.4769,-2.4502,-2.3915,-2.4049,-2.4277,-2.4531,-2.4531,-2.4691,-2.5068,-2.5068,-2.5097,-2.517,-2.538,-2.5339,-2.5273,-2.5324,-2.5369,-2.5327,-2.4939,-2.4386,-2.3951,-2.3951,-2.357,-2.3164,-2.3482,-2.3164,-2.2679,-2.2679,-2.27,-2.2758,-2.2758,-2.2758,-2.2758,-2.2758,-2.2718,-2.2595,-2.2595,-2.2595,-2.2092,-1.9681,-1.9082,-1.855,-1.6128,-1.5041,-1.387,-1.1451,-1.2157,-1.1743,-0.6928,-0.7344,-0.7765,-0.5453,-0.46,-0.4233,-0.4126,-0.411,-0.4126,-0.411,-0.4118,-0.4137,-0.4247,-0.4255,-0.4255,-0.4255,-0.4255,-0.4258,-0.4271,-0.2627,-0.1646,-0.1655,0.0331,0.1457,0.146,0.2919,0.3826,0.4244,0.5935,0.6958,0.7426,0.7911,1.0834,0.0,0.0,0.0,0.0,0.0,0.0,0.0,0.0,0.0,0.0,0.0,-1.7269,-1.7773,0.0,-1.9657,-2.0396,-2.0832,-2.1619,-2.3105,-2.212,-2.1155,-2.0833,-2.1091,-2.1155,-2.0833,-2.1091,-2.1351,-2.1578,-2.1903,-2.248,-2.337,-2.3435,-2.3566,-2.3894,-2.3894,-2.3859,-2.3833,-2.4007,-2.4599,-2.5485,-2.5068,-2.5156,-2.5668,-2.5141,-2.4859,-2.4859,-2.4804,-2.4804,-2.4734,-2.4386,-2.4038,-2.362,-2.2922,-2.2492,-2.2253,-2.247,-2.2321,-2.1982,-2.1982,-2.2019,-2.2138,-2.2138,-2.2138,-2.2138,-2.2138,-2.1179,-2.0,-2.0,-1.9039,-1.7653,-1.6129,-1.5785,-1.5371,-1.3846,-1.239,-1.0858,-0.9278,-0.879,-0.7786,-0.4767,-0.5262,-0.576,-0.442,-0.4164,-0.4145,-0.4083,-0.4075,-0.4085,-0.4052,-0.4081,-0.4099,-0.4164,-0.3288,-0.3107,-0.408,-0.233,-0.1558,-0.255,-0.065,0.0453,0.0453,0.3081,0.4475,0.4475,0.677,0.8083,0.8346,0.9931,1.0791,1.0982,1.1773,1.3578,0.0,0.0,0.0,0.0,0.0,0.0,0.0,0.0,0.0,0.0,0.0,0.0,0.0,0.0,0.0,-1.9515,-2.0433,-2.1231,-2.1483,-2.1469,-2.1263,-2.0805,-2.0754,-2.0703,-2.0768,-2.0897,-2.0962,-2.0962,-2.0962,-2.1504,-2.2735,-2.2613,-2.2885,-2.3663,-2.3544,-2.3533,-2.3639,-2.391,-2.471,-2.6065,-2.5444,0.0,-2.6323,-2.5495,-2.5099,-2.5069,-2.4614,-2.4443,-2.436,-2.3882,-2.3714,-2.3566,-2.2105,-2.1664,-2.1757,-2.1704,-2.1691,-2.1691,-2.1691,-2.1717,-2.1703,-2.1153,-2.0951,-2.0817,-2.0347,-1.8519,0.0,-1.6699,-1.5136,-1.3311,-1.2702,-1.2567,-1.2431,-1.1822,-0.9788,-0.7994,-0.7887,-0.6005,-0.4236,-0.4113,-0.4052,-0.4075,-0.4075,-0.4056,-0.4037,-0.4026,-0.4034,-0.4042,-0.4042,-0.4031,-0.3925,-0.3576,-0.209,-0.1658,-0.287,0.0,0.121,-0.0324,0.0958,0.2084,0.2645,0.5596,0.7348,0.7594,1.0496,1.2083,1.2209,1.3681,1.4364,1.4369,1.4839,1.5221,0.0,0.0,0.0,0.0,0.0,0.0,0.0,0.0,0.0,0.0,0.0,0.0,0.0,0.0,0.0,0.0,-1.9801,-2.0259,-2.0537,-2.0365,-2.0298,-2.0411,-2.045,-2.0543,-2.0806,-2.1348,-2.167,-2.167,-2.167,-2.1858,-2.2395,-2.1562,0.0,0.0,0.0,-2.2856,-2.4709,-2.4534,-2.4991,-2.6045,-2.5978,-2.5993,-2.6092,-2.5993,-2.5911,-2.5895,-2.5127,-2.4844,-2.4695,-2.3393,-2.2896,-2.2721,-2.1398,-2.1242,-2.173,-2.136,-2.1268,-2.1268,-2.1268,0.0,0.0,-1.8799,-1.7991,-1.7508,-1.5069,-1.4123,-1.3852,-1.3852,-1.3649,-1.277,-1.0127,-0.9449,-0.877,-0.5993,-0.5043,-0.4821,-0.4756,-0.4494,-0.4236,-0.4113,-0.4052,-0.4075,-0.4075,-0.3989,-0.3842,-0.373,-0.3827,-0.3921,-0.3921,-0.3909,-0.3279,-0.169,-0.1318,0.0,0.0942,0.1288,0.1406,0.1446,0.1411,0.264,0.5261,0.7499,0.9261,1.0378,1.1905,1.2956,1.3427,1.4978,1.5647,1.5508,1.3095,1.266,0.0,0.0,0.0,0.0,0.0,0.0,0.0,0.0,0.0,0.0,0.0,0.0,0.0,0.0,0.0,0.0,-1.8801,-1.9333,-1.8702,-1.9204,-1.9704,-1.9822,-2.0042,-2.0266,-2.0556,-2.0837,-2.0964,-2.0964,-2.1125,-2.1467,-2.1992,-2.1623,-2.1746,-2.25,-2.2033,-2.1988,-2.2498,-2.2554,-2.3133,-2.4249,-2.3781,-2.3882,-2.4461,-2.38,-2.358,-2.3566,-2.2995,-2.2712,-2.2698,-2.1925,-2.1689,-2.1731,0.0,0.0,0.0,0.0,-1.9826,-1.8324,-1.6683,-1.6211,-1.6161,-1.4975,-1.4579,-1.4315,-1.3193,-1.174,-1.0489,-1.0489,-0.9297,-0.7843,-0.6581,-0.6249,-0.5917,-0.4594,-0.4261,-0.4256,-0.4295,-0.4217,-0.4142,-0.4118,-0.4037,0.0,-0.3975,-0.3935,-0.3894,-0.3808,-0.2868,-0.2219,-0.2219,-0.1275,-0.0306,0.055,0.16,0.2104,0.1794,0.3789,0.0,0.0,0.0,0.6837,0.8056,0.9669,0.0,0.0,0.0,1.3301,1.3405,1.3335,0.0,0.0,1.2263,1.2063,0.0,0.0,0.0,0.0,0.0,0.0,0.0,0.0,0.0,0.0,0.0,0.0,0.0,0.0,0.0,0.0,-1.7406,-1.806,-1.6887,-1.7972,-1.8849,-1.877,-1.9356,-1.9791,-1.991,-2.0068,-2.0226,-2.0385,-2.0595,-2.0973,-2.1599,-2.1531,-2.1913,-2.2774,-2.2136,-2.184,-2.2052,-2.18,-2.2188,-2.319,-2.2461,-2.2505,-2.3196,-2.2424,-2.2063,-2.2049,-2.157,-2.1359,-2.1345,-2.0925,-2.09,-2.0914,-1.8998,-1.8205,-1.8205,-1.8205,-1.7094,-1.5231,-1.3158,-1.2436,-1.2306,-1.1535,-1.134,-1.121,-1.043,-0.8809,-0.7254,-0.7254,-0.5821,-0.425,-0.4233,-0.4228,-0.4225,-0.4209,-0.4204,-0.4201,-0.4182,-0.411,-0.4045,-0.4032,-0.3959,-0.3902,-0.3902,-0.3902,-0.3715,-0.3103,-0.1854,-0.0777,-0.0238,0.0965,0.2063,0.27,0.3935,0.4327,0.3411,0.5983,0.7215,0.6238,0.8406,0.9822,1.016,1.1195,1.2174,1.314,1.3531,1.3548,0.0,0.0,0.0,0.0,0.0,0.0,0.0,0.0,0.0,0.0,0.0,0.0,0.0,0.0,0.0,0.0,0.0,0.0,0.0,0.0,0.0,0.0,0.0,0.0,-1.5363,-1.6438,-1.7285,-1.6996,-1.8205,-1.8954,-1.8763,-1.9178,-1.973,-2.0358,-2.0398,-2.0661,-2.1176,-2.0991,-2.1749,-2.3804,-2.2508,-2.2907,-2.5302,-2.3697,-2.3242,-2.39,-2.3178,-2.2935,-2.295,-2.2935,-2.2921,-2.2871,-2.2084,-2.1748,-2.1684,-2.1104,-2.0782,-2.0265,-1.4843,-1.2687,-1.2687,-1.2687,-1.263,-1.2566,-1.2501,-1.2436,-1.1982,-0.933,-0.8489,-0.7967,-0.5364,-0.4449,-0.4383,-0.4383,-0.432,-0.4242,-0.4118,-0.4102,-0.4089,-0.4094,-0.408,-0.4064,-0.3943,-0.3869,-0.3911,-0.3919,-0.3905,-0.3902,-0.3902,-0.3902,-0.3224,-0.1174,-0.095,0.0,0.1584,0.19,0.2638,0.4556,0.4796,0.5519,0.7266,0.7415,0.7959,0.9271,0.9215,0.982,1.1358,1.1798,1.2198,1.2446,1.3591,1.3737,1.2832,0.0,0.0,0.0,0.0,0.0,0.0,0.0,0.0,0.0,0.0,0.0,0.0,0.0,0.0,0.0,0.0,0.0,0.0,0.0,0.0,0.0,0.0,0.0,0.0,-1.5998,-1.7085,-1.6152,-1.7127,-1.7706,-1.7273,-1.7932,-1.8517,-1.8715,-1.9382,-1.9848,-2.0045,-2.0213,-2.0703,-2.1528,-2.097,-2.101,-2.1861,-2.1261,-2.108,-2.1345,-2.1286,-2.1241,-2.1255,-2.1459,-2.1541,-2.1413,-1.9325,-1.8421,-1.8292,-1.6137,-1.5219,-1.4941,-1.2783,-1.1946,-1.1946,-1.1946,-1.0797,-0.9256,-0.95,-0.8378,-0.6643,-0.5827,-0.5601,-0.5474,-0.4478,-0.419,-0.4236,-0.4158,-0.4164,-0.4115,-0.412,-0.4104,-0.4099,-0.408,-0.4075,-0.4069,-0.4048,-0.3951,-0.3919,-0.3901,-0.2971,-0.2247,-0.2454,-0.224,-0.1511,0.0111,0.1718,0.3016,0.3803,0.4958,0.5938,0.6597,0.6657,0.6897,0.75,0.8312,0.8998,0.951,1.092,1.1954,1.2492,1.3319,1.3799,1.3869,1.4263,1.3527,1.1674,0.0,0.0,0.0,0.0,0.0,0.0,0.0,0.0,0.0,0.0,0.0,0.0,0.0,0.0,0.0,0.0,0.0,0.0,0.0,0.0,0.0,0.0,0.0,0.0,0.0,0.0,-1.5484,-1.6268,0.0,-1.6272,-1.6552,-1.6926,-1.7353,-1.7935,-1.8468,-1.8981,-1.9251,-1.9722,-2.0293,-1.9874,-1.9903,-2.0449,-1.9903,-1.9781,-2.0098,-1.9107,-1.8689,-1.8628,-1.8052,-1.7747,-1.7622,-1.5855,-1.5101,-1.485,-1.1009,-0.9257,-0.9092,-0.8823,-0.8753,-0.8694,-0.8734,-0.7644,-0.6191,-0.6542,-0.5427,-0.393,-0.3967,-0.3975,-0.4021,-0.3967,-0.3929,-0.3908,-0.3856,-0.3885,-0.3914,-0.3919,-0.3919,-0.3914,-0.3954,-0.3948,-0.3948,-0.3948,-0.3422,-0.2914,-0.287,-0.1987,-0.1351,-0.1702,-0.1528,-0.0609,0.1589,0.3349,0.4756,0.5687,0.6873,0.756,0.756,0.756,0.78,0.8214,0.9001,0.9859,1.0739,1.2105,1.3108,1.3569,1.4161,1.4316,1.4118,1.3875,1.28,0.0,0.0,0.0,0.0,0.0,0.0,0.0,0.0,0.0,0.0,0.0,0.0,0.0,0.0,0.0,0.0,0.0,0.0,0.0,0.0,0.0,0.0,0.0,0.0,0.0,0.0,0.0,-1.5117,-1.5558,0.0,0.0,0.0,0.0,-1.6257,-1.6174,-1.6625,-1.7945,-1.8064,-1.8638,-1.9767,-1.9091,-1.9353,-2.0686,-1.9334,-1.904,-1.9732,-1.6774,-1.5357,-1.5298,-1.3175,-1.2234,-1.2242,-1.2064,-1.2004,-1.1588,-0.6127,-0.3702,-0.349,-0.3482,-0.3375,-0.3302,-0.342,-0.3485,-0.3514,-0.3752,-0.385,-0.3832,-0.3829,-0.3681,-0.3511,-0.3609,-0.3485,0.0,0.0,-0.349,-0.3522,-0.3642,-0.3675,-0.3665,-0.3678,-0.3665,-0.3665,-0.355,-0.2319,-0.1122,-0.0906,-0.0795,-0.0944,-0.1496,0.0,-0.0307,0.3219,0.3909,0.4881,0.7232,0.758,0.7545,0.7545,0.7545,0.8072,0.9364,0.9424,1.0451,1.2825,1.2805,1.3261,1.4506,1.4232,1.3769,1.3146,1.2476,0.0,0.0,0.0,0.0,0.0,0.0,0.0,0.0,0.0,0.0,0.0,0.0,0.0,0.0,0.0,0.0,0.0,0.0,0.0,0.0,0.0,0.0,0.0,0.0,0.0,0.0,-1.1237,-1.1531,-1.4267,-1.3254,-1.2691,0.0,0.0,0.0,0.0,0.0,0.0,-1.4515,-1.5141,-1.511,-1.4196,-1.4069,-1.3913,-1.3836,-1.3444,-1.3357,-1.3542,-1.2968,-1.264,-1.2649,-1.2262,-1.2174,-1.2123,-0.998,-0.9086,-0.878,-0.4905,-0.3204,-0.306,-0.2976,-0.2899,-0.287,-0.2911,-0.2971,-0.3095,-0.3358,-0.3458,-0.3461,-0.3475,-0.3421,-0.3281,-0.3029,0.0,0.0,0.0,0.0,-0.3225,-0.3384,-0.3458,-0.3574,-0.3695,-0.3665,-0.3321,-0.1947,-0.1313,-0.0778,0.0051,0.1303,0.1913,0.102,0.1187,0.0,0.4231,0.5155,0.5934,0.6874,0.7235,0.7415,0.7415,0.7415,0.7839,0.8873,0.9794,1.0898,1.2198,1.2984,1.3521,1.3844,1.2945,1.229,1.1931,0.0,0.0,0.0,0.0,0.0,0.0,0.0,0.0,0.0,0.0,0.0,0.0,0.0,0.0,0.0,0.0,0.0,0.0,0.0,0.0,0.0,0.0,0.0,0.0,0.0,0.0,0.0,-1.0655,-1.1075,-1.3197,-1.1794,-1.0801,0.0,0.0,0.0,0.0,0.0,0.0,0.0,0.0,0.0,-1.0987,-1.1077,-1.0954,-1.0573,-1.0665,-1.068,-1.0683,-0.9912,-0.9519,-0.9526,-0.8614,-0.8247,-0.8265,-0.6637,-0.5892,-0.568,-0.3784,-0.2891,-0.2645,0.0,0.0,0.0,0.0,-0.2565,-0.261,-0.2878,-0.2971,-0.2965,-0.2982,0.0,0.0,0.0,0.0,0.0,0.0,0.0,-0.291,-0.306,-0.3262,-0.344,-0.3487,-0.3018,-0.2193,-0.1206,-0.0157,0.0733,0.1302,0.223,0.2614,0.1799,0.1944,0.0,0.0,0.0,0.6081,0.6584,0.7002,0.7308,0.7308,0.7805,0.8526,0.9498,1.0636,1.1716,1.2647,1.318,1.3241,1.2879,1.2079,1.1181,0.0,0.0,0.0,0.0,0.0,0.0,0.0,0.0,0.0,0.0,0.0,0.0,0.0,0.0,0.0,0.0,0.0,0.0,0.0,0.0,0.0,0.0,0.0,0.0,0.0,0.0,0.0,0.0,0.0,-1.1901,-1.2055,0.0,0.0,0.0,0.0,0.0,0.0,0.0,0.0,0.0,0.0,0.0,0.0,0.0,-0.902,-0.893,-0.8998,-0.9098,-0.9153,-0.7164,-0.6285,-0.6335,-0.4185,-0.3244,-0.3265,-0.3201,0.0,-0.3036,-0.2838,0.0,0.0,0.0,0.0,0.0,0.0,0.0,0.0,0.0,0.0,0.0,0.0,0.0,0.0,0.0,0.0,0.0,0.0,0.0,0.0,0.0,0.0,-0.2872,-0.2834,-0.1732,-0.0714,-0.0551,0.1258,0.2806,0.2746,0.2635,0.2364,0.0,0.0,0.0,0.0,0.0,0.0,0.6207,0.6774,0.7192,0.7303,0.8358,0.9498,1.0635,1.1474,1.2375,1.34,1.3104,1.2523,1.1722,1.136,0.0,0.0,0.0,0.0,0.0,0.0,0.0,0.0,0.0,0.0,0.0,0.0,0.0,0.0,0.0,0.0,0.0,0.0,0.0,0.0,0.0,0.0,0.0,0.0,0.0,0.0,0.0,0.0,0.0,0.0,0.0,0.0,0.0,0.0,0.0,0.0,0.0,0.0,0.0,0.0,0.0,0.0,0.0,0.0,0.0,0.0,0.0,0.0,0.0,0.0,-0.3923,-0.3596,-0.4191,-0.3264,-0.2888,-0.2958,-0.2659,-0.2544,-0.2585,-0.2249,0.0,0.0,0.0,0.0,0.0,0.0,0.0,0.0,0.0,0.0,0.0,0.0,0.0,0.0,0.0,0.0,0.0,0.0,0.0,0.0,0.0,0.0,-0.0647,-0.0313,0.014,0.0751,0.1706,0.0,0.0,0.0,0.0,0.0,0.0,0.0,0.0,0.0,0.0,0.0,0.5717,0.6314,0.7036,0.7927,0.8411,0.9292,1.0889,1.1346,1.1879,1.2575,1.167,1.1011,0.0,0.0,0.0,0.0,0.0,0.0,0.0,0.0,0.0,0.0,0.0,0.0,0.0,0.0,0.0,0.0,0.0,0.0,0.0,0.0,0.0,0.0,0.0,0.0,0.0,0.0,0.0,0.0,0.0,0.0,0.0,0.0,0.0,0.0,0.0,0.0,0.0,0.0,0.0,0.0,0.0,0.0,0.0,0.0,0.0,0.0,0.0,0.0,0.0,0.0,0.0,0.0,0.0,0.0,0.0,0.0,0.0,0.0,-0.2377,-0.2163,0.0,0.0,0.0,0.0,0.0,0.0,0.0,0.0,0.0,0.0,0.0,0.0,0.0,0.0,0.0,0.0,0.0,0.0,0.0,0.0,0.0,0.0,0.0,0.0,0.0,0.0,0.0,0.0,0.0,0.0,0.0,0.0,0.0,0.0,0.0,0.0,0.0,0.0,0.0,0.0,0.5386,0.6017,0.6624,0.7193,0.7988,0.8706,0.9382,1.0648,1.1252,1.0962,1.07,0.0,0.0,0.0,0.0,0.0,0.0,0.0,0.0,0.0,0.0,0.0,0.0,0.0,0.0,0.0,0.0,0.0,0.0,0.0,0.0,0.0,0.0,0.0,0.0,0.0,0.0,0.0,0.0,0.0,0.0,0.0,0.0,0.0,0.0,0.0,0.0,0.0,0.0,0.0,0.0,0.0,0.0,0.0,0.0,0.0,0.0,0.0,0.0,0.0,0.0,0.0,0.0,0.0,0.0,0.0,0.0,0.0,0.0,0.0,-0.2074,-0.1848,0.0,0.0,0.0,0.0,0.0,0.0,0.0,0.0,0.0,0.0,0.0,0.0,0.0,0.0,0.0,0.0,0.0,0.0,0.0,0.0,0.0,0.0,0.0,0.0,0.0,0.0,0.0,0.0,0.0,0.0,0.0,0.0,0.0,0.0,0.0,0.0,0.0,0.0,0.0,0.0,0.5101,0.5768,0.6288,0.6626,0.7602,0.8282,0.8479,1.0175,1.0792,0.9799,0.9995,0.0,0.0,0.0,0.0,0.0,0.0,0.0,0.0,0.0,0.0,0.0,0.0,0.0,0.0,0.0,0.0,0.0,0.0,0.0,0.0,0.0,0.0,0.0,0.0,0.0,0.0,0.0,0.0,0.0,0.0,0.0,0.0,0.0,0.0,0.0,0.0,0.0,0.0,0.0,0.0,0.0,0.0,0.0,0.0,0.0,0.0,0.0,0.0,0.0,0.0,0.0,0.0,0.0,0.0,0.0,0.0,0.0,0.0,0.0,0.0,0.0,0.0,0.0,0.0,0.0,0.0,0.0,0.0,0.0,0.0,0.0,0.0,0.0,0.0,0.0,0.0,0.0,0.0,0.0,0.0,0.0,0.0,0.0,0.0,0.0,0.0,0.0,0.0,0.0,0.0,0.0,0.0,0.0,0.0,0.0,0.0,0.0,0.0,0.0,0.0,0.0,0.4852,0.5568,0.6429,0.7365,0.7692,0.8479,1.0131,1.0661,1.0793,1.0414,0.0,0.0,0.0,0.0,0.0,0.0,0.0,0.0,0.0,0.0,0.0,0.0,0.0,0.0,0.0,0.0,0.0,0.0,0.0,0.0,0.0,0.0,0.0,0.0,0.0,0.0,0.0,0.0,0.0,0.0,0.0,0.0,0.0,0.0,0.0,0.0,0.0,0.0,0.0,0.0,0.0,0.0,0.0,0.0,0.0,0.0,0.0,0.0,0.0,0.0,0.0,0.0,0.0,0.0,0.0,0.0,0.0,0.0,0.0,0.0,0.0,0.0,0.0,0.0,0.0,0.0,0.0,0.0,0.0,0.0,0.0,0.0,0.0,0.0,0.0,0.0,0.0,0.0,0.0,0.0,0.0,0.0,0.0,0.0,0.0,0.0,0.0,0.0,0.0,0.0,0.0,0.0,0.0,0.0,0.0,0.0,0.0,0.0,0.0,0.0,0.0,0.0,0.4588,0.5386,0.6076,0.6608,0.7173,0.7837,0.8559,0.978,1.0071,0.894,0.0,0.0,0.0,0.0,0.0,0.0,0.0,0.0,0.0,0.0,0.0,0.0,0.0,0.0,0.0,0.0,0.0,0.0,0.0,0.0,0.0,0.0,0.0,0.0,0.0,0.0,0.0,0.0,0.0,0.0,0.0,0.0,0.0,0.0,0.0,0.0,0.0,0.0,0.0,0.0,0.0,0.0,0.0,0.0,0.0,0.0,0.0,0.0,0.0,0.0,0.0,0.0,0.0,0.0,0.0,0.0,0.0,0.0,0.0,0.0,0.0,0.0,0.0,0.0,0.0,0.0,0.0,0.0,0.0,0.0,0.0,0.0,0.0,0.0,0.0,0.0,0.0,0.0,0.0,0.0,0.0,0.0,0.0,0.0,0.0,0.0,0.0,0.0,0.0,0.0,0.0,0.0,0.0,0.0,0.0,0.0,0.0,0.0,0.0,0.0,0.0,0.0,0.4375,0.5196,0.591,0.6269,0.7228,0.79,0.8081,0.9718,0.9984,0.817,0.0,0.0,0.0,0.0,0.0,0.0,0.0,0.0,0.0,0.0,0.0,0.0,0.0,0.0,0.0,0.0,0.0,0.0,0.0,0.0,0.0,0.0,0.0,0.0,0.0,0.0,0.0,0.0,0.0,0.0,0.0,0.0,0.0,0.0,0.0,0.0,0.0,0.0,0.0,0.0,0.0,0.0,0.0,0.0,0.0,0.0,0.0,0.0,0.0,0.0,0.0,0.0,0.0,0.0,0.0,0.0,0.0,0.0,0.0,0.0,0.0,0.0,0.0,0.0,0.0,0.0,0.0,0.0,0.0,0.0,0.0,0.0,0.0,0.0,0.0,0.0,0.0,0.0,0.0,0.0,0.0,0.0,0.0,0.0,0.0,0.0,0.0,0.0,0.0,0.0,0.0,0.0,0.0,0.0,0.0,0.0,0.0,0.0,0.0,0.0,0.0,0.0,0.4249,0.508,0.598,0.6895,0.8141,0.9129,0.9658,1.1031,1.0945,0.0,0.0,0.0,0.0,0.0,0.0,0.0,0.0,0.0,0.0,0.0,0.0,0.0,0.0,0.0,0.0,0.0,0.0,0.0,0.0,0.0,0.0,0.0,0.0,0.0,0.0,0.0,0.0,0.0,0.0,0.0,0.0,0.0,0.0,0.0,0.0,0.0,0.0,0.0,0.0,0.0,0.0,0.0,0.0,0.0,0.0,0.0,0.0,0.0,0.0,0.0,0.0,0.0,0.0,0.0,0.0,0.0,0.0,0.0,0.0,0.0,0.0,0.0,0.0,0.0,0.0,0.0,0.0,0.0,0.0,0.0,0.0,0.0,0.0,0.0,0.0,0.0,0.0,0.0,0.0,0.0,0.0,0.0,0.0,0.0,0.0,0.0,0.0,0.0,0.0,0.0,0.0,0.0,0.0,0.0,0.0,0.0,0.0,0.0,0.0,0.0,0.0,0.0,0.4089,0.4698,0.5561,0.6748,0.7856,0.8869,0.9648,1.0696,1.0667,0.9095,0.0,0.0,0.0,0.0,0.0,0.0,0.0,0.0,0.0,0.0,0.0,0.0,0.0,0.0,0.0,0.0,0.0,0.0,0.0,0.0,0.0,0.0,0.0,0.0,0.0,0.0,0.0,0.0,0.0,0.0,0.0,0.0,0.0,0.0,0.0,0.0,0.0,0.0,0.0,0.0,0.0,0.0,0.0,0.0,0.0,0.0,0.0,0.0,0.0,0.0,0.0,0.0,0.0,0.0,0.0,0.0,0.0,0.0,0.0,0.0,0.0,0.0,0.0,0.0,0.0,0.0,0.0,0.0,0.0,0.0,0.0,0.0,0.0,0.0,0.0,0.0,0.0,0.0,0.0,0.0,0.0,0.0,0.0,0.0,0.0,0.0,0.0,0.0,0.0,0.0,0.0,0.0,0.0,0.0,0.0,0.0,0.0,0.0,0.0,0.0,0.0,0.0,0.0,0.5451,0.6598,0.7134,0.8574,0.9681,0.9987,1.1075,1.1095,0.9527,0.0,0.0,0.0,0.0,0.0,0.0,0.0,0.0,0.0,0.0,0.0,0.0,0.0,0.0,0.0,0.0,0.0,0.0,0.0,0.0,0.0,0.0,0.0,0.0,0.0,0.0,0.0,0.0,0.0,0.0,0.0,0.0,0.0,0.0,0.0,0.0,0.0,0.0,0.0,0.0,0.0,0.0,0.0,0.0,0.0,0.0,0.0,0.0,0.0,0.0,0.0,0.0,0.0,0.0,0.0,0.0,0.0,0.0,0.0,0.0,0.0,0.0,0.0,0.0,0.0,0.0,0.0,0.0,0.0,0.0,0.0,0.0,0.0,0.0,0.0,0.0,0.0,0.0,0.0,0.0,0.0,0.0,0.0,0.0,0.0,0.0,0.0,0.0,0.0,0.0,0.0,0.0,0.0,0.0,0.0,0.0,0.0,0.0,0.0,0.0,0.0,0.0,0.0,0.6748,0.8407,0.7843,0.9827,1.0994,1.0532,1.1826,1.186,0.9961,0.8317,0.0,0.0,0.0,0.0,0.0,0.0,0.0,0.0,0.0,0.0,0.0,0.0,0.0,0.0,0.0,0.0,0.0,0.0,0.0,0.0,0.0,0.0,0.0,0.0,0.0,0.0,0.0,0.0,0.0,0.0,0.0,0.0,0.0,0.0,0.0,0.0,0.0,0.0,0.0,0.0,0.0,0.0,0.0,0.0,0.0,0.0,0.0,0.0,0.0,0.0,0.0,0.0,0.0,0.0,0.0,0.0,0.0,0.0,0.0,0.0,0.0,0.0,0.0,0.0,0.0,0.0,0.0,0.0,0.0,0.0,0.0,0.0,0.0,0.0,0.0,0.0,0.0,0.0,0.0,0.0,0.0,0.0,0.0,0.0,0.0,0.0,0.0,0.0,0.0,0.0,0.0,0.0,0.0,0.0,0.0,0.0,0.0,0.0,0.0,0.0,0.0,0.0,0.4982,0.6071,0.7477,0.823,0.9139,1.04,1.0849,1.0462,0.91,0.8071,0.0,0.0,0.0,0.0,0.0,0.0,0.0,0.0,0.0,0.0,0.0,0.0,0.0,0.0,0.0,0.0,0.0,0.0,0.0,0.0,0.0,0.0,0.0,0.0,0.0,0.0,0.0,0.0,0.0,0.0,0.0,0.0,0.0,0.0,0.0,0.0,0.0,0.0,0.0,0.0,0.0,0.0,0.0,0.0,0.0,0.0,0.0,0.0,0.0,0.0,0.0,0.0,0.0,0.0,0.0,0.0,0.0,0.0,0.0,0.0,0.0,0.0,0.0,0.0,0.0,0.0,0.0,0.0,0.0,0.0,0.0,0.0,0.0,0.0,0.0,0.0,0.0,0.0,0.0,0.0,0.0,0.0,0.0,0.0,0.0,0.0,0.0,0.0,0.0,0.0,0.0,0.0,0.0,0.0,0.0,0.0,0.0,0.0,0.0,0.0,0.0,0.0,0.443,0.4999,0.7251,0.8322,0.9196,1.0056,1.0259,1.0003,0.9236,0.8184,0.0,0.0,0.0,0.0,0.0,0.0,0.0,0.0,0.0,0.0,0.0,0.0,0.0,0.0,0.0,0.0,0.0,0.0,0.0,0.0,0.0,0.0,0.0,0.0,0.0,0.0,0.0,0.0,0.0,0.0,0.0,0.0,0.0,0.0,0.0,0.0,0.0,0.0,0.0,0.0,0.0,0.0,0.0,0.0,0.0,0.0,0.0,0.0,0.0,0.0,0.0,0.0,0.0,0.0,0.0,0.0,0.0,0.0,0.0,0.0,0.0,0.0,0.0,0.0,0.0,0.0,0.0,0.0,0.0,0.0,0.0,0.0,0.0,0.0,0.0,0.0,0.0,0.0,0.0,0.0,0.0,0.0,0.0,0.0,0.0,0.0,0.0,0.0,0.0,0.0,0.0,0.0,0.0,0.0,0.0,0.0,0.0,0.0,0.0,0.0,0.0,0.0,0.0,0.4635,0.6896,0.8931,1.0032,0.9727,1.0077,1.0098,0.9553,0.0,0.0,0.0,0.0,0.0,0.0,0.0,0.0,0.0,0.0,0.0,0.0,0.0,0.0,0.0,0.0,0.0,0.0,0.0,0.0,0.0,0.0,0.0,0.0,0.0,0.0,0.0,0.0,0.0,0.0,0.0,0.0,0.0,0.0,0.0,0.0,0.0,0.0,0.0,0.0,0.0,0.0,0.0,0.0,0.0,0.0,0.0,0.0,0.0,0.0,0.0,0.0,0.0,0.0,0.0,0.0,0.0,0.0,0.0,0.0,0.0,0.0,0.0,0.0,0.0,0.0,0.0,0.0,0.0,0.0,0.0,0.0,0.0,0.0,0.0,0.0,0.0,0.0,0.0,0.0,0.0,0.0,0.0,0.0,0.0,0.0,0.0,0.0,0.0,0.0,0.0,0.0,0.0,0.0,0.0,0.0,0.0,0.0,0.0,0.0,0.0,0.0,0.0,0.0,0.4614,0.5788,0.8519,1.0105,0.9754,1.0685,1.05,0.8673,0.0,0.0,0.0,0.0,0.0,0.0,0.0,0.0,0.0,0.0,0.0,0.0,0.0,0.0]}],[{"header":{"parameterUnit":"kt","parameterCategory":2,"dx":1,"dy":1,"la1":29.285339999999998,"la2":30.599998999999997,"lo1":-89.70041500000002,"lo2":-87.6738589999976,"nx":112,"ny":82,"refTime":"2022-11-01T12:00:00:Z","depth":0,"parameterNumber":2,"parameterNumberName":"V-component_of_WINDS"},"data":[12.8973,13.1361,13.1215,11.7441,11.474,11.1528,9.6566,9.4449,9.5091,9.2989,9.4099,9.6654,0.0,0.0,0.0,0.0,0.0,0.0,0.0,7.1137,0.0,0.0,0.0,0.0,0.0,0.0,0.0,0.0,0.0,0.0,0.0,14.4455,14.4311,14.2722,14.5683,14.7345,14.7345,15.0595,15.2184,15.2184,15.2184,15.2184,15.2256,15.2762,15.3917,15.5406,15.6012,15.7745,16.0201,16.0201,16.0851,16.1718,16.1718,16.1718,16.1718,16.1718,16.1718,16.1718,16.1718,16.1718,16.1718,16.1718,16.1718,16.1718,16.1718,16.1718,16.1646,16.1068,16.1284,16.1573,16.1068,16.1357,16.1718,16.1718,16.1718,16.1718,16.1718,16.0923,16.0057,15.9551,15.7673,15.6084,15.5506,15.4062,15.2834,15.2256,15.2184,15.2184,15.2184,15.2184,15.2184,15.2184,15.3003,15.3426,15.3228,15.4553,15.5393,15.5393,15.6781,15.7183,15.6061,15.5986,15.5538,15.4431,15.4356,15.4057,15.3519,15.2472,15.1649,15.1065,14.9463,14.8729,12.2915,12.5178,12.5158,10.9631,10.693,10.4448,9.0434,8.8495,8.9036,8.6849,9.0247,9.3061,0.0,0.0,0.0,0.0,0.0,0.0,0.0,0.0,0.0,0.0,0.0,0.0,0.0,0.0,0.0,0.0,12.6065,0.0,14.2794,14.395,14.3733,14.2722,14.5683,14.7345,14.7345,15.0595,15.2184,15.2184,15.2184,15.2184,15.2184,15.2184,15.305,15.4567,15.4567,15.6084,15.8612,15.919,15.9984,16.0996,16.1501,16.1718,16.1718,16.1718,16.1718,16.1718,16.1718,16.1718,16.1718,16.1718,16.1718,16.1718,16.1718,16.1718,16.1718,16.1718,16.1718,16.1718,16.1718,16.1718,16.1718,16.1718,16.1718,16.1573,16.1068,16.0129,15.9045,15.7962,15.6012,15.4351,15.3845,15.2906,15.2184,15.2184,15.2184,15.2184,15.2184,15.2184,15.2184,15.2184,15.2744,15.2898,15.2238,15.3279,15.4045,15.4067,15.5808,15.6061,15.4341,15.4266,15.3743,15.2636,15.2561,15.2337,15.1813,15.0766,14.9944,14.9406,14.8284,14.7761,11.817,11.6127,11.4138,9.985,9.7514,9.6216,8.6566,8.7755,8.9986,8.7015,8.9811,9.2338,0.0,0.0,0.0,0.0,0.0,0.0,0.0,0.0,0.0,0.0,0.0,0.0,0.0,10.6228,10.9261,0.0,12.0866,12.3487,14.3878,14.3516,14.265,14.265,14.5683,14.7345,14.7345,15.0595,15.2184,15.2184,15.2184,15.2184,15.2184,15.2184,15.305,15.4495,15.4495,15.5362,15.6923,15.854,15.9334,15.9551,16.1068,16.1646,16.1646,16.1718,16.1718,16.1718,16.1718,16.1718,16.1718,16.1718,16.1718,16.1718,16.1718,16.1718,16.1718,16.1718,16.1718,16.1718,16.1718,16.1718,16.1646,16.1646,16.1646,16.114,15.9623,15.9262,15.8323,15.5145,15.4495,15.3989,15.2473,15.2184,15.2184,15.2184,15.2184,15.2184,15.2184,15.2184,15.2184,15.2184,15.2184,15.2184,15.2184,15.2184,15.2226,15.232,15.4062,15.4237,15.2561,15.2486,15.2486,15.2412,15.2412,15.1664,15.0168,15.0168,14.9331,14.7761,14.7761,14.7761,10.5706,10.7733,11.0215,10.0377,10.0012,9.985,9.1166,8.6592,8.4862,8.731,8.4288,0.0,0.0,0.0,0.0,0.0,0.0,8.7514,0.0,9.0196,0.0,0.0,0.0,0.0,0.0,12.2188,12.5871,13.846,13.0108,12.9987,14.265,14.2939,14.265,14.265,14.5683,14.7345,14.7345,15.0595,15.2184,15.2184,15.2184,15.2184,15.2184,15.2184,15.2473,15.2834,15.2834,15.3773,15.5217,15.5723,15.724,15.9407,15.984,16.0057,16.0201,16.1284,16.1718,16.1718,16.1718,16.1718,16.1718,16.1718,16.1718,16.1718,16.1718,16.1718,16.1718,16.1718,16.1718,16.1718,16.1718,16.0923,16.0057,16.0057,15.9118,15.8078,15.7645,15.6662,15.5651,15.4712,15.3628,15.2689,15.2256,15.2184,15.2184,15.2184,15.2184,15.2184,15.2184,15.2184,15.2184,15.2184,15.2184,15.2184,15.2184,15.1173,15.0833,15.1488,15.2078,15.1979,15.0962,15.0916,15.0318,14.9107,14.9032,14.8882,14.8434,14.8434,14.8209,14.7761,14.7761,14.7761,10.2194,10.3912,10.6375,9.7506,9.9223,10.0138,8.8633,8.5129,8.4536,8.5191,0.0,0.0,0.0,0.0,0.0,0.0,8.9827,9.4385,8.7741,10.0144,11.148,11.5596,12.1249,0.0,12.9192,12.8809,13.237,14.1927,13.3814,13.2587,14.2144,14.265,14.265,14.265,14.5683,14.7345,14.7345,15.0595,15.2184,15.2184,15.2184,15.2184,15.2184,15.2184,15.2184,15.2184,15.2184,15.2689,15.3628,15.4278,15.5651,15.7384,15.7384,15.7745,15.8468,15.9334,15.9695,15.9768,16.049,16.0779,16.0851,16.1501,16.1284,16.0779,16.0779,16.0779,16.0923,16.1573,16.1718,16.1573,16.0923,16.0057,15.919,15.854,15.7601,15.6706,15.5984,15.5217,15.4351,15.3701,15.2834,15.2184,15.2184,15.2184,15.2184,15.2184,15.2184,15.2184,15.2184,15.2184,15.2184,15.2184,15.2184,15.1967,15.1317,15.0378,15.0111,15.0668,15.0132,14.9898,15.0274,14.9555,14.8733,14.7761,14.7761,14.7761,14.7761,14.7761,14.7761,14.7761,14.7761,14.7761,10.272,10.1546,10.1804,9.324,9.5938,9.7302,8.4463,0.0,8.8059,8.5582,0.0,8.6513,8.8391,0.0,0.0,8.4997,9.619,10.3484,9.8501,10.8736,11.7834,12.0794,13.3693,13.9616,13.2587,13.0541,13.3237,14.1783,13.4609,13.3598,14.2216,14.265,14.265,14.265,14.5683,14.7345,14.7345,15.0595,15.2184,15.2184,15.2184,15.2184,15.2184,15.2184,15.2184,15.2184,15.2184,15.2184,15.2328,15.3701,15.4423,15.4567,15.4567,15.5406,15.6634,15.6779,15.6851,15.7095,15.8612,15.9118,15.9334,16.0707,16.0273,15.9118,15.9118,15.9118,15.9407,16.0779,16.1212,16.0851,15.9479,15.8973,15.8468,15.6951,15.6417,15.594,15.4567,15.4278,15.3845,15.2473,15.2184,15.2184,15.2184,15.2184,15.2184,15.2184,15.2184,15.2184,15.2184,15.2184,15.2112,15.1967,15.1967,15.1317,14.9728,14.9439,14.9391,14.9482,14.8114,14.7989,14.9603,14.8437,14.7761,14.7761,14.7761,14.7761,14.7761,14.7761,14.7761,14.7761,14.7761,14.7761,9.3684,9.215,9.3531,9.2919,9.0143,8.93,0.0,0.0,0.0,10.7151,10.5723,10.361,10.7798,10.6517,10.5506,10.7365,11.6555,12.13,11.5183,12.5271,13.3502,13.4079,13.8075,14.0194,13.8677,13.8172,13.8822,14.0627,13.9111,13.9399,14.2505,14.265,14.265,14.265,14.5683,14.7345,14.7345,15.0595,15.2184,15.2184,15.2184,15.2184,15.2184,15.2184,15.2184,15.2184,15.2184,15.2184,15.2256,15.2545,15.3412,15.4567,15.4567,15.4712,15.5145,15.6417,15.6851,15.6923,15.7212,15.7356,15.7429,15.7717,15.7601,15.7356,15.7356,15.7356,15.7429,15.7717,15.7818,15.7745,15.7456,15.6445,15.5434,15.5073,15.3989,15.305,15.2689,15.2689,15.2545,15.2256,15.2184,15.2184,15.2184,15.2184,15.2184,15.2184,15.2184,15.2184,15.2184,15.2184,15.175,15.045,15.0306,14.9656,14.7995,14.6694,14.5935,14.5999,14.5752,14.5814,14.6139,14.7221,14.7761,14.7761,14.7761,14.7761,14.7761,14.7761,14.7761,14.7761,14.7761,14.7761,8.8182,8.7687,8.8919,8.6525,8.5916,0.0,0.0,8.7446,9.0436,10.3123,10.3177,10.3682,11.2491,11.343,11.2924,11.2924,12.1588,12.8375,12.8375,13.3863,13.8123,13.9014,13.9086,13.9375,14.0266,13.9591,13.9447,14.0266,14.1061,14.1855,14.265,14.265,14.265,14.265,14.5683,14.7345,14.7345,15.0595,15.2184,15.2184,15.2184,15.2184,15.2184,15.2184,15.2184,15.2184,15.2184,15.2184,15.2184,15.2184,15.2689,15.3339,15.3339,15.3339,15.3484,15.4278,15.4567,15.4639,15.5434,15.5723,15.5795,15.6634,15.6345,15.5723,15.5723,15.5723,15.584,15.6662,15.6851,15.6706,15.594,15.5145,15.4351,15.3556,15.2762,15.2184,15.2184,15.2184,15.2184,15.2184,15.2184,15.2184,15.2184,15.2184,15.2184,15.2184,15.2184,15.1895,15.11,15.1028,15.045,14.8789,14.8645,14.7922,14.6333,14.5467,14.4828,14.4477,14.4937,14.541,14.5751,14.7029,14.7761,14.7761,14.7761,14.7761,14.7761,14.7761,14.7761,14.7761,14.7761,14.7761,8.3626,8.4119,8.5321,8.0996,8.2628,0.0,8.2108,8.3842,8.933,10.139,10.4134,10.7384,11.7421,12.0217,12.0144,11.7328,12.4332,13.1769,13.6245,13.6895,13.7545,13.9183,13.8195,13.7978,13.9688,13.8339,13.805,13.9761,14.1061,14.2,14.265,14.265,14.265,14.265,14.5394,14.7056,14.7345,15.0306,15.1895,15.2184,15.2184,15.2184,15.2184,15.2184,15.2184,15.2184,15.2184,15.2184,15.2184,15.2184,15.2184,15.2184,15.2184,15.2184,15.2184,15.2184,15.2184,15.24,15.3628,15.4062,15.4278,15.5578,15.5145,15.4062,15.4062,15.4062,15.4351,15.5651,15.594,15.5651,15.4423,15.4062,15.3773,15.2473,15.2184,15.2184,15.2184,15.2184,15.2184,15.2184,15.2184,15.2184,15.2184,15.2184,15.2184,15.2184,15.1967,15.1317,15.0017,14.9584,14.8717,14.7056,14.6911,14.6261,14.4672,14.4528,14.4302,14.3689,14.4645,14.5525,14.6148,14.7137,14.7761,14.7761,14.7761,14.7761,14.7761,14.7761,14.7761,14.7761,14.7761,14.7761,7.7907,7.8164,8.0418,8.3929,7.9942,0.0,10.4351,10.6715,10.9983,13.1021,13.6438,13.7377,13.7449,13.7594,13.7088,13.5235,13.5932,13.6029,13.4007,13.3646,13.4296,13.5812,13.5884,13.639,13.7978,13.6679,13.639,13.7978,13.8267,13.9664,14.2505,14.265,14.265,14.265,14.4383,14.5972,14.7345,14.9222,15.0811,15.2184,15.2184,15.2184,15.2184,15.2184,15.2184,15.2184,15.2184,15.2184,15.2184,15.2184,15.2184,15.2184,15.2184,15.2184,15.2184,15.2184,15.2184,15.2256,15.24,15.2473,15.2473,15.2689,15.2617,15.2473,15.2473,15.2473,15.2473,15.2689,15.2762,15.2689,15.2545,15.2473,15.24,15.2256,15.2184,15.2184,15.2184,15.2184,15.2184,15.2184,15.2184,15.2184,15.2184,15.2184,15.2184,15.2184,15.1028,15.0089,14.9872,14.8572,14.6983,14.5467,14.525,14.4672,14.3083,14.2939,14.2917,14.2825,14.4304,14.5274,14.5278,14.6886,14.7761,14.7761,14.7761,14.7761,14.7761,14.7761,14.7761,14.7761,14.7761,14.7761,7.2593,7.4467,7.7284,7.8353,0.0,0.0,9.8646,10.3682,11.0561,12.8326,13.172,13.3381,13.9255,13.9544,13.8339,13.6751,13.574,13.4657,13.3357,13.3141,13.3718,13.5307,13.4657,13.4729,13.6318,13.5018,13.5162,13.7593,13.7834,13.9206,14.2505,14.265,14.265,14.265,14.4166,14.5755,14.7345,14.9006,15.0667,15.2184,15.2184,15.2184,15.2184,15.2184,15.2184,15.2184,15.2184,15.2184,15.2184,15.2184,15.2184,15.2184,15.2184,15.2184,15.2184,15.2184,15.2184,15.2184,15.2184,15.2184,15.2184,15.2184,15.2184,15.2184,15.2184,15.2184,15.2184,15.2184,15.2184,15.2184,15.2184,15.2184,15.2184,15.2184,15.2184,15.2184,15.2184,15.2184,15.2184,15.2184,15.2184,15.2184,15.2184,15.1461,15.0811,15.0811,14.9439,14.8067,14.7128,14.6406,14.5394,14.3805,14.3661,14.3372,14.2722,14.3074,14.3336,14.3336,14.4942,14.564,14.5254,14.6853,14.7512,14.6981,14.7423,14.7761,14.7761,14.7761,14.7761,14.7761,14.7761,14.7761,6.9351,0.0,0.0,0.0,0.0,0.0,10.0018,10.5723,11.2924,12.592,12.8014,12.9892,13.7569,13.7978,13.6679,13.509,13.3863,13.3141,13.3141,13.3141,13.3718,13.5307,13.4079,13.3791,13.5307,13.4079,13.4296,13.6967,13.7521,13.9061,14.1855,14.2433,14.265,14.265,14.3733,14.5105,14.6694,14.8356,14.9945,15.1534,15.1967,15.2184,15.2184,15.2184,15.2184,15.2184,15.2184,15.2184,15.2184,15.2184,15.2184,15.2184,15.2184,15.2184,15.2184,15.2184,15.2184,15.2184,15.2184,15.2184,15.2184,15.2184,15.2184,15.2184,15.2184,15.2184,15.2184,15.2184,15.2184,15.2184,15.2184,15.2184,15.2184,15.2184,15.2184,15.2184,15.2184,15.2184,15.2184,15.2184,15.2184,15.2039,15.1606,15.0595,14.9728,14.9222,14.7778,14.6333,14.5178,14.4672,14.395,14.2794,14.265,14.265,14.265,14.3194,14.3547,14.3547,14.4901,14.5527,14.5235,14.6582,14.7137,14.6763,14.7378,14.7761,14.7761,14.7761,14.7761,14.7761,14.7761,14.7462,0.0,0.0,0.0,9.1352,9.3518,9.8284,12.0,12.2816,12.3538,13.3213,13.639,13.704,13.5884,13.5596,13.5018,13.3502,13.3213,13.3141,13.3141,13.3141,13.3718,13.5307,13.4079,13.3791,13.5307,13.4079,13.3791,13.5451,13.6967,13.8556,14.0338,14.1855,14.265,14.265,14.2722,14.3516,14.5105,14.6622,14.8283,14.9945,15.1461,15.2184,15.2184,15.2184,15.2184,15.2184,15.2184,15.2184,15.2184,15.2184,15.2184,15.2184,15.2184,15.2184,15.2184,15.2184,15.2184,15.2184,15.2184,15.2184,15.2184,15.2184,15.2184,15.2184,15.2184,15.2184,15.2184,15.2184,15.2184,15.2184,15.2184,15.2184,15.2184,15.2184,15.2184,15.2184,15.2184,15.2184,15.2184,15.2184,15.2184,15.175,15.0234,14.9872,14.9295,14.7706,14.6117,14.5105,14.5033,14.3661,14.2722,14.265,14.265,14.265,14.265,14.2675,14.27,14.27,14.3477,14.4274,14.5195,14.6024,14.6811,14.7643,14.7672,14.7761,14.7761,14.7761,14.7761,14.7761,14.7761,14.6863,7.6995,8.1892,8.8102,9.87,10.5795,11.2366,12.0939,12.6931,13.1624,13.4801,13.5884,13.6101,13.5596,13.4657,13.3791,13.3213,13.3141,13.3141,13.3141,13.3141,13.3357,13.3863,13.3429,13.3357,13.3863,13.3429,13.3791,13.5379,13.6967,13.8556,14.0266,14.1783,14.265,14.265,14.265,14.3444,14.4961,14.5539,14.72,14.9872,15.0378,15.1173,15.2184,15.2184,15.2184,15.2184,15.2184,15.2184,15.2184,15.2184,15.2184,15.2184,15.2184,15.2184,15.2184,15.2184,15.2184,15.2184,15.2184,15.2184,15.2184,15.2184,15.2184,15.2184,15.2184,15.2184,15.2184,15.2184,15.2184,15.2184,15.2184,15.2184,15.2184,15.2184,15.2184,15.2184,15.2184,15.1389,15.0667,15.0667,14.9728,14.8789,14.8283,14.7345,14.6478,14.59,14.4455,14.3444,14.3444,14.3011,14.265,14.265,14.265,14.265,14.265,14.3146,14.3454,14.3454,14.4283,14.4934,14.5215,14.5988,14.6508,14.6811,14.7408,14.7761,14.7761,14.7761,14.7761,14.7761,14.7761,14.6789,8.1386,8.7163,9.3518,10.6517,11.5235,12.1516,12.4765,13.0253,13.4657,13.4657,13.4657,13.4657,13.4657,13.3863,13.3141,13.3141,13.3141,13.3141,13.3141,13.3141,13.3141,13.3141,13.3141,13.3141,13.3141,13.3646,13.4368,13.5451,13.7473,13.9158,14.0266,14.1783,14.265,14.265,14.265,14.3155,14.4166,14.4744,14.6044,14.8139,14.9295,15.0378,15.1389,15.1967,15.2184,15.2184,15.2184,15.2184,15.2184,15.2184,15.2184,15.2184,15.2184,15.2184,15.2184,15.2184,15.2184,15.2184,15.2184,15.2184,15.2184,15.2184,15.2184,15.2184,15.2184,15.2184,15.2184,15.2184,15.2184,15.2184,15.2184,15.2184,15.2184,15.2184,15.2184,15.2039,15.1461,15.0089,14.8934,14.8934,14.8067,14.72,14.6622,14.5683,14.4817,14.4239,14.33,14.265,14.265,14.265,14.265,14.265,14.265,14.265,14.265,14.3122,14.343,14.343,14.3953,14.4582,14.5195,14.5732,14.6253,14.6843,14.7408,14.7761,14.7761,14.7761,14.7387,14.6789,14.6789,14.5952,8.2831,8.9041,9.619,11.4894,12.1877,12.5704,13.1769,13.3141,13.3141,13.3141,13.3141,13.3141,13.3141,13.3141,13.3141,13.3141,13.3141,13.3141,13.3141,13.3141,13.3141,13.3141,13.3141,13.3141,13.3141,13.4513,13.5379,13.5523,13.8436,14.0266,14.0338,14.1783,14.265,14.265,14.265,14.265,14.265,14.4166,14.4961,14.5033,14.8139,14.9656,14.98,15.1389,15.2039,15.1967,15.1967,15.1967,15.1967,15.2039,15.2112,15.2112,15.2184,15.2184,15.2184,15.2184,15.2184,15.2184,15.2184,15.2184,15.2184,15.2184,15.2184,15.2184,15.2184,15.2184,15.2184,15.2184,15.2184,15.2184,15.2184,15.2184,15.2184,15.2184,15.2184,15.175,15.0234,14.8572,14.7345,14.7272,14.7128,14.6622,14.5178,14.4889,14.4383,14.2866,14.265,14.265,14.265,14.265,14.265,14.265,14.265,14.265,14.265,14.265,14.265,14.265,14.27,14.3503,14.5155,14.5274,14.6024,14.7657,14.7536,14.7462,14.7462,14.7462,14.6639,14.5055,14.5055,14.4232,9.2941,10.3773,11.2707,12.4765,12.9314,13.1119,13.278,13.3141,13.3141,13.3141,13.3141,13.3141,13.3141,13.3141,13.3141,13.3141,13.3141,13.3141,13.3141,13.3141,13.3141,13.3141,13.3141,13.3141,13.3141,13.3502,13.4224,13.5379,13.7328,13.9014,14.0266,14.1783,14.265,14.265,14.265,14.265,14.265,14.3083,14.3878,14.5033,14.5828,14.6839,14.8067,14.9728,14.98,14.8572,14.8572,14.8572,14.8717,14.9945,15.045,15.0595,15.175,15.2184,15.2184,15.2184,15.2184,15.2184,15.2184,15.2184,15.2184,15.2184,15.2184,15.2184,15.2184,15.2184,15.2184,15.2184,15.2184,15.2184,15.2184,15.2184,15.2184,15.2184,15.2184,15.175,15.0234,14.8572,14.6983,14.5828,14.4672,14.3733,14.33,14.3228,14.3155,14.2722,14.265,14.265,14.265,14.265,14.265,14.265,14.265,14.265,14.265,14.265,14.265,14.265,14.3242,14.4042,14.5175,14.5732,14.6615,14.7746,14.5368,14.4083,14.4083,14.4083,14.3858,14.3485,14.3485,14.2601,8.9691,10.3412,11.6823,12.722,13.0975,13.213,13.213,13.2635,13.3141,13.3141,13.3141,13.3141,13.3141,13.3141,13.3141,13.3141,13.3141,13.3141,13.3141,13.3141,13.3141,13.3141,13.3141,13.3141,13.3141,13.3791,13.4513,13.5451,13.6967,13.8556,14.0266,14.1205,14.1927,14.265,14.265,14.265,14.265,14.265,14.3155,14.4022,14.4672,14.5467,14.6406,14.7995,14.785,14.6333,14.7056,14.7345,14.7417,14.8356,14.8789,14.8934,15.0523,15.1173,15.1245,15.1967,15.2184,15.2184,15.2184,15.2184,15.2184,15.2184,15.2184,15.2184,15.2184,15.2184,15.2184,15.2184,15.2184,15.2184,15.2184,15.2184,15.2039,15.1317,15.1173,15.0523,14.8211,14.6983,14.5828,14.4311,14.33,14.265,14.265,14.265,14.265,14.265,14.265,14.265,14.265,14.265,14.265,14.265,14.265,14.265,14.265,14.265,14.285,14.317,14.364,14.411,14.466,14.5128,14.5455,14.5578,14.3784,14.2886,14.2886,14.2886,14.2513,14.1778,14.1778,14.0881,8.4073,9.8068,11.4657,12.5415,12.9314,13.0541,13.0758,13.1841,13.2924,13.3141,13.3141,13.3141,13.3141,13.3141,13.3141,13.3141,13.3141,13.3141,13.3141,13.3141,13.3141,13.3141,13.3141,13.3141,13.3141,13.4368,13.5235,13.5451,13.6751,13.8267,13.9905,14.005,14.07,14.2289,14.2361,14.2433,14.265,14.265,14.265,14.2722,14.4094,14.4672,14.4744,14.6117,14.5972,14.4744,14.6117,14.6694,14.6767,14.6983,14.7056,14.72,14.8861,14.9511,14.9728,15.1028,15.1678,15.1895,15.1895,15.2039,15.2184,15.2184,15.2184,15.2184,15.2184,15.2039,15.1895,15.1895,15.175,15.1534,15.1534,15.1534,15.1245,14.9872,14.9367,14.8428,14.5394,14.4672,14.4311,14.2939,14.265,14.265,14.265,14.265,14.265,14.265,14.265,14.265,14.265,14.265,14.265,14.265,14.265,14.265,14.265,14.2775,14.3098,14.3818,14.3888,14.3905,14.402,14.3931,14.3375,14.22,14.2213,14.2213,14.2213,14.2213,14.1405,13.9997,13.9997,13.9236,10.0884,10.9045,11.574,12.426,12.7653,12.9242,13.0541,13.1047,13.1624,13.2852,13.3141,13.3141,13.3141,13.3141,13.3141,13.3141,13.3141,13.3141,13.3141,13.3141,13.3141,13.3141,13.3141,13.3141,13.3141,13.3429,13.4079,13.5379,13.574,13.6606,13.8195,13.8267,13.9014,14.07,14.0772,14.135,14.265,14.265,14.265,14.265,14.2939,14.3083,14.3083,14.3372,14.33,14.3083,14.3372,14.3444,14.3589,14.4889,14.5394,14.5611,14.72,14.7778,14.785,14.8067,14.9078,15.0306,15.0306,15.11,15.2184,15.2184,15.2184,15.2184,15.2184,15.1317,15.0306,15.0306,14.9295,14.8211,14.8211,14.8211,14.8139,14.785,14.6839,14.5322,14.3444,14.3083,14.3011,14.2722,14.265,14.265,14.265,14.265,14.265,14.265,14.265,14.265,14.265,14.265,14.265,14.265,14.265,14.265,14.265,14.329,14.3704,14.3863,14.3928,14.402,14.4054,14.3423,14.1668,13.8787,13.8713,13.8713,13.8713,13.8713,13.8563,13.8264,13.8264,13.8114,9.5324,10.4765,11.4007,11.8628,12.3538,12.7365,12.8087,12.9603,13.1047,13.1769,13.1913,13.2202,13.2996,13.3141,13.3141,13.3141,13.3141,13.3141,13.3141,13.3141,13.3141,13.3141,13.3141,13.3141,13.3141,13.3141,13.3429,13.4224,13.4296,13.4946,13.6534,13.6606,13.7328,13.9014,13.9905,14.07,14.1422,14.2289,14.265,14.265,14.265,14.265,14.265,14.265,14.265,14.265,14.265,14.265,14.2722,14.3516,14.3805,14.395,14.5539,14.6117,14.6261,14.7056,14.785,14.8572,14.8572,14.9078,14.9656,14.9656,14.9656,14.9656,14.9656,14.915,14.8572,14.8572,14.7995,14.7345,14.7345,14.7345,14.7128,14.6333,14.4961,14.3589,14.2866,14.265,14.265,14.265,14.265,14.265,14.265,14.265,14.265,14.265,14.265,14.265,14.265,14.265,14.265,14.265,14.265,14.2513,14.213,14.2401,14.2629,14.2578,14.2694,14.251,14.214,14.0879,13.946,13.789,13.7815,13.7815,13.7815,13.7815,13.7815,13.7815,13.7815,13.7815,9.0919,10.1444,11.3305,11.5596,12.0072,12.426,12.5632,12.7942,12.9747,12.9747,12.9747,13.0397,13.2274,13.2346,13.2346,13.3068,13.3141,13.3141,13.3141,13.3141,13.3141,13.3141,13.3141,13.3141,13.3141,13.3141,13.3141,13.3141,13.3141,13.3718,13.4946,13.5018,13.574,13.7232,13.858,13.9616,14.0338,14.1566,14.2361,14.265,14.265,14.265,14.265,14.265,14.265,14.265,14.265,14.265,14.265,14.265,14.265,14.2794,14.4022,14.4528,14.4672,14.59,14.655,14.6839,14.6839,14.7056,14.7345,14.7345,14.7345,14.7345,14.7345,14.7128,14.6839,14.6839,14.6622,14.6333,14.6333,14.6333,14.6044,14.4817,14.3589,14.265,14.265,14.265,14.265,14.265,14.265,14.265,14.265,14.265,14.265,14.265,14.265,14.265,14.265,14.265,14.2581,14.2443,14.2395,14.213,14.1316,14.1428,14.1538,14.1521,14.1363,14.0947,14.0344,13.8713,13.7815,13.7815,13.7815,13.7815,13.7815,13.7815,13.7815,13.7815,13.7815,13.7815,10.5362,11.1552,11.7112,12.1661,12.0,11.8845,12.4621,12.6209,12.6426,12.6426,12.6426,12.7365,13.0469,12.9892,12.9819,13.2707,13.3141,13.3141,13.3141,13.3141,13.3141,13.3141,13.3141,13.3141,13.3141,13.3141,13.3141,13.3141,13.3141,13.3213,13.3357,13.3357,13.4079,13.5668,13.5884,13.7353,14.0338,14.0483,14.1277,14.265,14.265,14.265,14.265,14.265,14.265,14.265,14.265,14.265,14.265,14.265,14.265,14.2722,14.2866,14.2866,14.2939,14.3011,14.4022,14.525,14.525,14.6189,14.7345,14.7345,14.7345,14.7345,14.7345,14.6333,14.525,14.525,14.4166,14.3083,14.3083,14.3083,14.3083,14.2939,14.2794,14.265,14.265,14.265,14.265,14.265,14.265,14.265,14.265,14.265,14.265,14.265,14.265,14.265,14.265,14.265,14.242,14.1673,14.1618,14.1264,14.0522,14.113,14.1528,14.1496,14.0858,14.0467,14.0371,13.8713,13.7815,13.7815,13.7815,13.7815,13.7815,13.7815,13.7815,13.7815,13.7815,13.7815,9.0413,9.8501,10.6734,10.7672,11.3016,11.8628,12.1155,12.1733,12.2527,12.5415,12.5993,12.6354,12.7653,12.8953,12.9964,13.0325,13.1913,13.3141,13.3141,13.3141,13.3141,13.3141,13.3141,13.3141,13.3141,13.3141,13.3141,13.3141,13.3141,13.3141,13.3141,13.3141,13.3429,13.4079,13.5018,13.6101,13.7425,13.9399,14.0627,14.1277,14.2216,14.2216,14.1277,14.2216,14.265,14.265,14.265,14.265,14.265,14.265,14.265,14.265,14.265,14.265,14.265,14.265,14.3083,14.3589,14.3589,14.4022,14.4528,14.4528,14.4528,14.4528,14.4528,14.4094,14.3589,14.3589,14.3155,14.265,14.265,14.265,14.265,14.265,14.265,14.265,14.265,14.265,14.265,14.265,14.265,14.265,14.265,14.265,14.265,14.265,14.265,14.2289,14.1422,14.0851,14.0421,14.0125,14.0497,14.0488,13.9592,13.9788,13.9759,13.9278,13.8951,13.8787,13.8787,13.8189,13.7815,13.7815,13.7815,13.7815,13.7815,13.7815,13.7815,13.7815,13.7815,13.7815,8.2123,8.9691,9.8573,9.8862,10.6517,11.4605,11.6988,11.7133,11.8411,12.4115,12.4115,12.3538,12.4982,12.6787,12.8087,12.8448,13.1119,13.3141,13.3141,13.3141,13.3141,13.3141,13.3141,13.3141,13.3141,13.3141,13.3141,13.3141,13.3141,13.3141,13.3141,13.3141,13.3141,13.3141,13.4224,13.5018,13.5523,13.7786,13.9183,13.9616,14.1205,14.1422,14.0411,14.1494,14.2216,14.265,14.265,14.265,14.265,14.265,14.265,14.265,14.265,14.265,14.265,14.265,14.265,14.265,14.265,14.265,14.265,14.265,14.265,14.265,14.265,14.265,14.265,14.265,14.265,14.265,14.265,14.265,14.265,14.265,14.265,14.265,14.265,14.265,14.265,14.265,14.265,14.265,14.265,14.265,14.2505,14.2072,14.2,14.1422,13.9833,13.9388,13.9145,13.9154,13.9632,13.961,13.8723,13.8635,13.8384,13.7863,13.7815,13.7815,13.7815,13.7815,13.7815,13.7815,13.7815,13.7815,13.7815,13.7815,13.7815,13.7815,13.7815,13.7815,8.8407,9.1424,9.6262,10.1029,10.2329,10.4495,11.2346,11.2924,11.4079,12.2022,11.9855,11.7978,12.2744,12.2383,12.296,12.7726,13.1119,13.3141,13.3141,13.3141,13.3141,13.3141,13.3141,13.3141,13.3141,13.3141,13.3141,13.3141,13.3141,13.3141,13.3141,13.3141,13.3141,13.3141,13.3141,13.3935,13.5451,13.5523,13.6318,13.7882,13.9591,14.0338,14.0338,14.0338,14.1205,14.265,14.265,14.265,14.265,14.265,14.265,14.265,14.265,14.265,14.265,14.265,14.265,14.265,14.265,14.265,14.265,14.265,14.265,14.265,14.265,14.265,14.265,14.265,14.265,14.265,14.265,14.265,14.265,14.265,14.265,14.265,14.265,14.265,14.265,14.265,14.265,14.265,14.265,14.265,14.2144,14.0555,14.0338,13.9761,13.805,13.8638,13.9093,13.8972,13.8989,13.8679,13.7898,13.7802,13.7815,13.7815,13.7815,13.7815,13.7815,13.7815,13.7815,13.7815,13.7815,13.7815,13.7815,13.7815,13.7815,13.7815,13.7815,13.7815,8.169,8.5791,9.1424,9.6118,9.9007,10.2762,11.0705,11.4657,11.7421,11.9928,11.9206,11.8267,11.8628,12.1877,12.4982,12.6498,12.9458,13.1913,13.2996,13.3141,13.3141,13.3141,13.3141,13.3141,13.3141,13.3141,13.3141,13.3141,13.3141,13.3141,13.3141,13.3141,13.3141,13.3141,13.3141,13.3357,13.3863,13.4946,13.574,13.6245,13.6751,13.7064,13.7064,13.8147,13.9519,14.1061,14.1061,14.1711,14.265,14.265,14.265,14.265,14.265,14.265,14.265,14.265,14.265,14.265,14.265,14.265,14.265,14.265,14.265,14.265,14.265,14.265,14.265,14.265,14.265,14.265,14.265,14.265,14.265,14.265,14.265,14.265,14.265,14.265,14.265,14.265,14.265,14.265,14.265,14.1783,14.0916,14.0411,13.9375,13.8245,13.718,13.7296,13.7426,13.739,13.7878,13.806,13.7877,13.7815,13.7815,13.7815,13.7815,13.7815,13.7815,13.7815,13.7815,13.7815,13.7815,13.7815,13.7815,13.7815,13.7815,13.7815,13.7815,13.7815,7.9812,8.4073,8.9201,9.3879,9.5251,9.7779,10.695,11.0469,11.2294,11.4027,11.4388,11.444,11.4657,11.9855,12.4188,12.4188,12.7942,13.1119,13.213,13.278,13.3141,13.3141,13.3141,13.3141,13.3141,13.3141,13.3141,13.3141,13.3141,13.3141,13.3141,13.3141,13.3141,13.3141,13.3141,13.3141,13.3141,13.4152,13.4585,13.4585,13.4585,13.4946,13.5523,13.6534,13.7834,13.9375,13.9375,14.0338,14.1783,14.1783,14.2144,14.265,14.265,14.265,14.265,14.265,14.265,14.265,14.265,14.265,14.265,14.265,14.265,14.265,14.265,14.265,14.265,14.265,14.265,14.265,14.265,14.265,14.265,14.265,14.265,14.2505,14.1927,14.1783,14.1639,14.0964,14.0819,14.0819,14.0819,14.0025,13.9305,13.8966,13.8047,13.7085,13.6263,13.6446,13.6669,13.6655,13.7322,13.7815,13.7815,13.7815,13.7815,13.7815,13.7815,13.7815,13.7815,13.7815,13.7815,13.7815,13.7815,13.7815,13.7815,13.7815,13.8114,13.8787,13.8787,13.9086,8.1314,8.4925,8.8696,9.3518,9.1857,9.1785,10.2112,10.2112,10.1101,10.5343,10.6209,10.7148,11.0325,11.6122,12.0722,12.1516,12.6498,13.0397,13.0758,13.2058,13.3068,13.3141,13.3141,13.3141,13.3141,13.3141,13.3141,13.3141,13.3141,13.3141,13.3141,13.3141,13.3141,13.3141,13.3141,13.3141,13.3141,13.3141,13.3141,13.3141,13.3141,13.3935,13.5307,13.5307,13.6173,13.7689,13.7689,13.8653,14.0194,14.0194,14.1061,14.2361,14.2433,14.2505,14.2505,14.265,14.265,14.265,14.265,14.265,14.265,14.265,14.265,14.265,14.265,14.265,14.265,14.265,14.265,14.265,14.265,14.2577,14.2505,14.2505,14.2433,14.1927,14.0483,14.0194,13.9688,13.8123,13.7834,13.7858,13.7931,13.7787,13.7494,13.6864,13.6649,13.6304,13.5692,13.6194,13.6692,13.6739,13.7425,13.7815,13.7815,13.7815,13.7815,13.7815,13.7965,13.7965,13.7965,13.8114,13.8189,13.8189,13.8189,13.8189,13.8189,13.8189,13.9012,14.0521,14.0521,14.1405,7.5622,7.9148,8.4001,8.998,9.5251,9.9584,10.2184,10.1318,9.9873,9.9639,9.9639,10.0217,10.2329,10.7889,11.5038,12.3466,12.5126,12.657,13.0325,13.1119,13.1841,13.2996,13.3141,13.3141,13.3141,13.3141,13.3141,13.3141,13.3141,13.3141,13.3141,13.3141,13.3141,13.3141,13.3141,13.3141,13.3141,13.3141,13.3141,13.3141,13.3141,13.3357,13.3718,13.3718,13.4585,13.6029,13.6029,13.6967,13.8411,13.8411,13.8628,13.9061,14.0411,14.0916,14.1061,14.2216,14.265,14.265,14.265,14.265,14.265,14.265,14.265,14.265,14.265,14.265,14.265,14.265,14.265,14.265,14.265,14.1783,14.0916,14.0916,13.988,13.8845,13.8484,13.8411,13.8267,13.7906,13.7834,13.8004,13.8775,13.7796,13.7032,13.7459,13.6494,13.5932,13.6335,13.6506,13.6863,13.7495,13.7735,13.7815,13.7815,13.7815,13.7815,13.7815,13.9012,13.9773,13.9773,14.1031,14.169,14.169,14.169,14.169,14.169,14.169,14.1914,14.2288,14.2288,14.2513,7.5117,7.9956,8.3929,8.2917,8.7597,9.2218,9.1496,9.1207,9.1135,9.0919,9.0269,9.1857,9.8646,10.0956,10.565,11.7473,12.0578,12.2888,12.6931,12.8809,13.0325,13.1913,13.2058,13.2346,13.3068,13.3141,13.3141,13.3141,13.3141,13.3141,13.3141,13.3141,13.3141,13.3141,13.3141,13.3141,13.3141,13.3141,13.3141,13.3141,13.3863,13.4224,13.4224,13.4946,13.574,13.6534,13.5812,13.6823,13.8869,13.7401,13.7617,13.9014,13.9158,13.9158,13.9375,14.0988,14.1639,14.1711,14.2433,14.265,14.265,14.265,14.265,14.265,14.265,14.265,14.265,14.265,14.1639,14.0458,14.0458,13.9808,13.9158,13.9158,13.8484,13.7593,13.6895,13.6751,13.6655,13.6257,13.6204,13.6448,13.7349,13.6379,13.5835,13.6666,13.6061,13.5762,13.6581,13.6939,13.7322,13.7789,13.7815,13.7815,13.7815,13.7815,13.7815,13.7815,13.9386,14.067,14.1479,14.2363,14.2886,14.2886,14.2886,14.2886,14.2886,14.2886,14.326,14.3933,14.3933,14.4382,7.5695,8.1762,8.4723,7.7053,7.8006,8.0534,7.9162,7.9523,8.0606,8.2108,8.1386,8.3842,9.4963,9.4674,9.6262,10.7095,11.3738,11.8866,12.2744,12.6065,12.8664,13.0253,13.0686,13.1336,13.2635,13.2996,13.3141,13.3141,13.3141,13.3141,13.3141,13.3141,13.3141,13.3141,13.3141,13.3141,13.3141,13.3357,13.3357,13.3141,13.5018,13.574,13.5523,13.7112,13.7834,13.7737,13.6462,13.7401,13.9761,13.6751,13.7136,13.9472,13.7978,13.7473,13.7689,13.9303,13.9977,14.0122,14.1494,14.1927,14.1927,14.1927,14.1927,14.1927,14.1927,14.1927,14.2,14.2216,14.0169,13.7834,13.7834,13.7689,13.7473,13.7473,13.7232,13.6751,13.5451,13.5162,13.4917,13.423,13.4162,13.4427,13.5322,13.4919,13.478,13.5708,13.5833,13.6076,13.6755,13.7439,13.7815,13.7815,13.7815,13.7815,13.7815,13.7815,13.804,13.8563,13.9909,14.1479,14.3185,14.3185,14.3335,14.3634,14.3634,14.3634,14.3634,14.3634,14.4307,14.5578,14.5578,14.634,7.0579,7.5117,8.0245,8.1473,8.1314,8.0823,8.0534,7.857,7.7198,7.8873,7.9089,7.9884,8.3206,8.868,9.3374,9.5324,10.4206,11.3377,12.065,12.4332,12.7003,12.8664,12.9964,13.0902,13.1119,13.2346,13.3141,13.3141,13.3141,13.3141,13.3141,13.3141,13.3141,13.3141,13.3141,13.3141,13.3141,13.4513,13.444,13.3213,13.6101,13.6751,13.5523,13.7112,13.7834,13.7809,13.7521,13.7762,13.805,13.6245,13.5812,13.6173,13.5957,13.5812,13.6029,13.7617,13.8195,13.8267,13.8484,13.8556,13.8556,13.8556,13.8556,13.8556,13.8556,13.8556,13.8845,14.0338,13.9303,13.7834,13.7834,13.6823,13.5812,13.5812,13.4801,13.3791,13.3574,13.3502,13.3477,13.3329,13.3303,13.3798,13.5228,13.5378,13.5797,13.7236,13.7467,13.7509,13.7606,13.7762,13.7815,13.7815,13.7815,13.7815,13.7815,13.7815,13.9012,14.1914,14.2363,14.3185,14.4756,14.483,14.5517,14.6938,14.7013,14.7013,14.7013,14.7013,14.7088,14.7312,14.7312,14.7462,7.23,7.6133,7.9237,7.7146,7.8083,7.8948,7.7218,7.6408,7.6187,7.6981,7.6489,7.7139,8.1314,8.5069,8.9258,9.4385,10.1029,10.7745,11.4027,11.9061,12.3393,12.6715,12.8592,12.9892,13.0758,13.2202,13.3141,13.3141,13.3141,13.3141,13.3141,13.3141,13.3141,13.3141,13.3141,13.3141,13.3141,13.4729,13.509,13.444,13.7642,13.8797,13.8147,13.9736,14.0458,14.0386,13.9519,13.9664,14.0241,13.7762,13.7256,13.8003,13.7112,13.6751,13.6967,13.858,13.8556,13.7978,13.8869,13.8556,13.7978,13.8869,13.9736,14.0458,14.0458,13.9206,13.7978,13.8797,13.8411,13.7593,13.6751,13.6029,13.5307,13.444,13.3646,13.3141,13.3141,13.3141,13.3395,13.4269,13.4385,13.488,13.65,13.636,13.6328,13.7103,13.7192,13.7192,13.7192,13.7551,13.7815,13.7815,13.7815,13.8189,13.9086,14.0059,14.1241,14.2737,14.3634,14.4457,14.5129,14.6116,14.6938,14.7686,14.7761,14.7761,14.7761,14.7761,14.7761,14.7761,14.7761,14.7761,7.8339,0.0,8.2926,7.8459,7.8891,7.9756,0.0,7.6466,7.6476,7.6042,7.5005,7.57,8.0535,8.2122,8.5225,9.3252,9.7617,10.1967,10.7528,11.28,11.7978,12.3105,12.5559,12.7581,12.9531,13.148,13.278,13.3141,13.3141,13.3141,13.3141,13.3141,13.3141,13.3141,13.3502,13.3502,13.3141,13.5451,13.6245,13.5523,13.9158,14.07,14.0411,14.1927,14.265,14.265,14.1422,14.1566,14.2433,13.9591,13.9158,14.0194,13.8484,13.7834,13.7978,13.9303,13.8941,13.805,13.9303,13.8941,13.805,13.9303,14.0555,14.1541,14.1541,14.0097,13.8411,13.8411,13.8123,13.7545,13.6318,13.6029,13.5668,13.4079,13.3718,13.3574,13.3213,13.3256,13.3798,13.4958,13.536,13.592,13.7279,13.7014,13.6723,13.6878,13.6909,13.6909,13.6909,13.7467,13.7965,13.8339,13.8413,13.9086,14.0806,14.2451,14.3559,14.4008,14.5129,14.5802,14.5802,14.7088,14.7761,14.7761,14.7761,14.7761,14.7761,14.7761,14.7761,14.7761,14.7761,14.7761,0.0,9.278,9.4296,9.529,9.1408,8.6859,8.5054,8.1386,0.0,7.6331,7.5776,7.581,7.6242,7.8776,8.2046,8.5607,9.026,9.6118,10.3845,10.657,11.0108,11.639,11.9855,12.296,12.5993,12.917,13.1624,13.3068,13.3141,13.3141,13.3141,13.3141,13.3141,13.3141,13.4585,13.4657,13.3141,13.7714,13.8436,13.5523,14.0241,14.1711,14.0411,14.1927,14.265,14.265,14.2577,14.2577,14.2505,14.0844,14.0194,14.0194,13.8484,13.7834,13.7834,13.7978,13.7906,13.7834,13.7978,13.7906,13.7834,13.7978,13.805,13.8195,13.8195,13.9086,14.0194,14.0194,13.9014,13.7809,13.7665,13.7689,13.7256,13.574,13.5307,13.4946,13.3429,13.3732,13.4238,13.4385,13.4978,13.5744,13.6613,13.6708,13.6878,13.7606,13.7762,13.7762,13.7762,13.7789,13.8413,13.9997,14.0147,14.0881,14.2513,14.4157,14.5728,14.7312,14.7462,14.7536,14.7536,14.7686,14.7761,14.7761,14.7761,14.7761,14.7761,14.7761,14.7761,14.7761,14.7761,14.7761,9.4254,9.7282,9.8578,9.6221,9.3812,9.0895,8.6431,8.3349,8.0361,7.6627,7.5838,7.6056,7.6978,7.8186,8.1426,8.8657,9.1471,9.5179,10.2184,10.6228,10.9767,11.3141,11.9855,12.4693,12.5848,12.8881,13.1047,13.1624,13.2635,13.3141,13.3141,13.3141,13.3141,13.3141,13.4657,13.5235,13.4585,13.846,13.9688,13.8508,14.135,14.2361,14.1783,14.2433,14.265,14.265,14.265,14.265,0.0,14.2,14.1783,14.1711,14.1108,14.0819,14.0819,14.0819,14.0241,13.9375,13.9375,13.8725,13.7978,13.9014,13.9375,13.9591,14.053,14.1277,14.1783,14.1783,14.135,14.0602,13.9664,13.9788,13.9698,13.8171,13.8148,13.8353,13.7768,13.7133,13.6772,13.7258,13.756,13.8058,13.8816,13.8917,13.9436,14.0766,14.0059,13.9759,14.0793,14.0942,14.1255,14.1853,14.1928,14.305,14.5667,14.6489,14.7088,14.7686,14.7761,14.7761,14.7761,14.7761,14.7761,14.7761,14.7761,14.7761,14.7761,14.7761,14.7761,14.7761,14.7761,14.7761,10.0268,10.303,10.4624,10.1397,9.9456,9.66,8.9882,8.639,8.2944,7.6991,7.5698,7.6145,7.7623,7.8444,8.1654,9.0248,9.2231,9.5324,10.269,10.657,10.9603,11.2222,11.87,12.3177,12.3682,12.7076,12.9747,13.0758,13.1841,13.2635,13.3141,13.3141,13.3357,13.3863,13.5957,13.6751,13.6245,13.9447,14.0844,14.0338,14.1927,14.265,14.265,14.265,14.265,14.265,14.265,14.265,14.265,14.265,14.265,14.265,14.265,14.265,14.265,14.265,14.2,14.1061,14.1061,14.0314,13.9591,14.07,14.1061,14.1277,14.2361,14.265,14.265,14.265,14.2828,14.2783,14.1696,14.201,14.2297,14.0707,14.0737,14.1018,14.0447,13.973,13.9296,13.9863,14.0194,14.0322,14.0378,14.082,14.133,14.2003,14.1554,14.1554,14.2737,14.2886,14.3036,14.3559,14.3634,14.477,14.7462,14.7761,14.7761,14.7761,14.7761,14.7761,14.7761,14.7761,14.7761,14.7761,14.7761,14.7761,14.7761,14.7761,14.7761,14.7761,14.7761,14.7784,10.7887,11.1045,11.3571,11.3709,11.0223,10.4627,9.6687,9.1156,8.5401,7.7294,7.5485,7.5885,7.743,7.9228,8.2538,8.8804,9.1516,9.6046,10.5559,10.6931,10.8736,11.3574,11.5523,11.7112,11.8866,12.3249,12.7292,13.0541,13.083,13.148,13.3068,13.3141,13.3863,13.5451,13.858,13.9447,13.7834,14.1036,14.1855,14.0338,14.1927,14.265,14.265,14.265,14.265,14.265,14.265,14.265,14.265,14.265,14.265,14.265,14.265,14.265,14.265,14.265,14.265,14.265,14.265,14.265,14.265,14.265,14.265,14.265,14.265,14.265,14.265,14.265,14.3242,14.3863,14.3863,14.4509,14.4812,14.3284,14.2935,14.2438,14.0761,14.1121,14.176,14.176,14.235,14.2363,14.067,14.1778,14.2302,14.067,14.1853,14.2886,14.2886,14.2961,14.3485,14.5055,14.5204,14.5877,14.7611,14.7761,14.7761,14.7761,14.7761,14.7761,14.7761,14.7761,14.7761,14.7761,14.7761,14.7761,14.7761,14.7761,14.7761,14.77,14.77,14.7939,11.102,11.2482,11.3335,11.355,11.079,10.58,9.6885,9.1228,8.5169,7.5801,7.3837,7.4553,7.7152,7.8221,8.1502,9.0064,9.3084,9.6912,10.426,10.8159,11.1697,11.5307,11.7184,11.9278,12.2022,12.3538,12.5198,12.722,12.9531,13.0975,13.148,13.148,13.2202,13.3791,13.5884,13.6679,13.6173,13.9399,14.0772,14.0338,14.1927,14.265,14.265,14.265,14.265,14.265,14.265,14.265,14.265,14.265,14.265,14.265,14.265,14.265,14.265,14.265,14.265,14.265,14.265,14.265,14.265,14.265,14.265,14.265,14.265,14.265,14.265,14.265,14.2875,14.3146,14.3704,14.4962,14.5912,14.541,14.5822,14.6178,14.5656,14.4825,14.4213,14.4213,14.4344,14.4307,14.3872,14.4157,14.477,14.5443,14.4919,14.498,14.6116,14.6265,14.6489,14.6938,14.7013,14.7162,14.7686,14.7761,14.7761,14.7761,14.7761,14.7761,14.7761,14.7761,14.7761,14.7761,14.7761,14.7761,14.7761,14.7761,14.7908,14.813,14.813,14.8335,11.2524,11.2958,11.3096,11.3421,11.2071,10.8019,9.8002,9.3089,8.7449,7.6228,7.3923,7.4681,7.7091,7.8851,8.301,9.2489,9.575,9.9873,10.8159,11.1769,11.5018,11.8845,12.0217,12.1588,12.3466,12.361,12.4043,12.4982,12.7437,12.917,12.9819,13.1624,13.3141,13.4079,13.5596,13.6462,13.6462,13.8364,13.9688,14.0338,14.1277,14.2072,14.265,14.265,14.265,14.265,14.265,14.265,14.265,14.265,14.265,14.265,14.265,14.265,14.265,14.265,14.265,14.265,14.265,14.265,14.265,14.265,14.265,14.265,14.265,14.265,14.2725,14.3025,14.3122,14.3383,14.4572,14.564,14.6458,14.6827,14.7333,14.7761,14.7761,14.6938,14.619,14.619,14.619,14.6041,14.5354,14.5742,14.634,14.6714,14.6415,14.6564,14.7611,14.7761,14.7761,14.7761,14.7761,14.7761,14.7761,14.7761,14.7761,14.7761,14.7761,14.7761,14.7761,14.7761,14.7798,14.7952,14.7965,14.8068,14.8203,14.8203,14.8291,14.856,14.856,14.8708,11.2732,11.2736,11.2848,11.3378,11.3507,11.0584,9.951,9.5791,9.0964,7.7937,7.519,7.5633,7.7075,8.0585,8.6202,9.5325,9.9064,10.4423,11.4729,11.6606,11.8484,12.2888,12.3538,12.361,12.361,12.361,12.361,12.361,12.4982,12.657,12.8398,13.2635,13.509,13.5307,13.6679,13.7376,13.7376,13.7545,13.8364,13.9905,14.0194,14.1061,14.2433,14.265,14.265,14.265,14.265,14.265,14.265,14.265,14.265,14.265,14.265,14.265,14.265,14.265,14.265,14.265,14.265,14.265,14.265,14.265,14.2725,14.28,14.28,14.2875,14.3073,14.375,14.3924,14.4339,14.595,14.639,14.6574,14.7542,14.7761,14.7761,14.7761,14.7761,14.7761,14.7761,14.7761,14.7237,14.5728,14.6714,14.7237,14.5653,14.6714,14.7761,14.7761,14.7761,14.7761,14.7761,14.7761,14.7761,14.7761,14.7761,14.7761,14.7761,14.7761,14.7789,14.777,14.777,14.7965,14.8347,14.8358,14.856,14.8925,14.8925,14.8942,14.8975,14.8975,14.9069,11.2402,11.2736,11.2803,11.3112,11.3378,11.0543,9.9304,9.5612,9.0964,7.7937,7.519,7.5333,7.5705,8.1588,8.8373,9.4211,10.2055,10.9117,11.3935,11.7834,12.065,12.1661,12.2888,12.361,12.361,12.361,12.361,12.361,12.3971,12.5415,12.8326,13.0614,13.2346,13.3646,13.4007,13.4152,13.4152,13.5379,13.6173,13.6534,13.9111,14.0483,14.0916,14.2072,14.265,14.265,14.265,14.265,14.265,14.265,14.265,14.265,14.265,14.265,14.265,14.265,14.265,14.265,14.265,14.265,14.265,14.265,14.3074,14.3567,14.3567,14.4086,14.4708,14.4893,14.4955,14.5121,14.6092,14.639,14.6574,14.7542,14.7761,14.7761,14.7761,14.7761,14.7761,14.7761,14.7761,14.7611,14.7237,14.7462,14.7611,14.7237,14.7462,14.7761,14.7761,14.7761,14.7761,14.7761,14.7761,14.7761,14.7761,14.7761,14.7761,14.7761,14.7761,14.7894,14.8179,14.8203,14.8358,14.8792,14.8801,14.8846,14.8925,14.8925,14.8987,14.9212,14.9212,14.9421,11.1381,11.2165,11.2825,11.3249,11.3421,11.1374,10.3279,10.0375,9.5845,8.3529,8.1001,8.004,7.6933,8.3681,9.112,9.5162,10.3497,11.0778,11.4657,11.7401,11.9278,12.0072,12.1516,12.2527,12.2527,12.3827,12.4765,12.4765,12.5487,12.7003,12.9458,13.0397,13.1552,13.3068,13.3141,13.3141,13.3141,13.4729,13.5884,13.6679,13.9158,14.07,14.1494,14.2289,14.265,14.265,14.265,14.265,14.265,14.265,14.265,14.265,14.265,14.265,14.265,14.265,14.265,14.265,14.265,14.265,14.2825,14.3666,14.4152,14.4466,14.4466,14.4873,14.5313,14.5621,14.5732,14.5988,14.6795,14.7044,14.7137,14.7614,14.7761,14.7761,14.7761,14.7761,14.7761,14.7761,14.7761,14.7761,14.7761,14.7761,14.7761,14.7761,14.7761,14.7761,14.7761,14.7013,14.6564,14.6564,14.7237,14.7761,14.7761,14.7873,14.803,14.803,14.8191,14.8369,14.861,14.862,14.8735,14.9077,14.9084,14.9153,14.936,14.936,14.9421,14.9523,14.9523,14.9648,11.0502,11.1595,11.2468,11.322,11.3206,11.1927,10.7605,10.5616,10.1691,9.1165,8.8481,8.6337,8.0668,8.7192,9.4373,9.6887,10.5025,11.2162,11.5462,11.673,11.7617,11.8411,12.0144,12.1372,12.1661,12.426,12.6065,12.6354,12.7942,12.9603,13.1119,13.0975,13.1552,13.3068,13.3141,13.3141,13.3141,13.4729,13.6101,13.7473,13.9399,14.0988,14.2289,14.2577,14.265,14.265,14.265,14.265,14.265,14.265,14.265,14.265,14.265,14.275,14.2852,14.2852,14.2976,14.3122,14.3122,14.3122,14.3338,14.477,14.5313,14.5375,14.5375,14.5544,14.5788,14.6407,14.6574,14.6779,14.7556,14.7761,14.7761,14.7761,14.7761,14.7761,14.7761,14.7761,14.7686,14.7312,14.7088,14.6863,14.6863,14.7088,14.7312,14.7312,14.7312,14.7312,14.7312,14.5802,14.4681,14.4382,14.59,14.6928,14.6928,14.7365,14.7563,14.7563,14.7831,14.8035,14.8101,14.8101,14.8252,14.8512,14.882,14.9135,14.9418,14.9721,14.9873,14.9873,14.9873,14.9873,11.0952,11.1595,11.1095,11.2468,11.1979,11.0269,10.6966,10.6124,10.4108,9.7139,9.3334,9.0613,8.843,9.3532,9.8206,9.8617,10.9178,11.6622,11.4369,11.7873,11.9711,11.704,11.9422,12.1805,12.3177,12.491,12.657,12.8014,12.9603,13.1191,13.278,13.1552,13.1552,13.3068,13.3141,13.3141,13.3141,13.4729,13.5596,13.5812,13.8894,14.0483,14.07,14.2072,14.265,14.265,14.265,14.265,14.265,14.265,14.265,14.265,14.265,14.305,14.3682,14.3682,14.4217,14.4893,14.4893,14.4893,14.4934,14.5155,14.5714,14.6253,14.6253,14.6763,14.7378,14.7542,14.7556,14.7585,14.7672,14.7761,14.7761,14.7761,14.7761,14.7761,14.7761,14.7761,14.7312,14.5802,14.4457,14.3485,14.3485,14.4606,14.5503,14.5503,14.5503,14.5503,14.5503,14.4157,14.2587,14.1119,14.2718,14.3858,14.3858,14.42,14.4425,14.4425,14.4469,14.464,14.4985,14.5066,14.5183,14.5366,14.689,14.7658,14.7675,14.9114,14.9873,14.9873,14.9873,14.9873,10.5244,10.7599,10.9627,11.1765,11.1188,11.0266,11.083,11.0297,10.8327,10.327,10.035,9.7423,9.3226,9.6941,10.0334,9.936,10.7832,11.406,11.264,11.5872,11.7924,11.6586,11.9278,12.1588,12.2238,12.5415,12.7653,12.8448,12.9848,13.1339,13.3068,13.1556,13.0979,13.1841,13.1841,13.1841,13.1841,13.4296,13.5523,13.5523,13.7834,13.9447,14.0338,14.1061,14.1855,14.265,14.265,14.265,14.265,14.265,14.265,14.265,14.265,14.3146,14.3795,14.3336,14.4019,14.5155,14.4593,14.4175,14.3906,14.3906,14.41,14.4422,14.4422,14.4691,14.498,14.498,14.498,14.498,14.498,14.498,14.498,14.498,14.498,14.498,14.498,14.498,14.4756,14.4008,14.3335,14.2587,14.1629,14.2825,14.3559,14.2601,14.326,14.292,14.0282,13.9343,13.8699,13.8139,14.0516,14.2205,14.2205,14.3384,14.4174,14.4174,14.4327,14.4445,14.4611,14.4615,14.4725,14.4789,14.5547,14.593,14.593,14.6686,14.7065,14.7065,14.7065,14.7065,10.0537,10.3717,10.7009,11.0504,11.0318,11.0009,11.2862,11.3029,11.1664,10.85,10.6576,10.3907,9.8612,10.1172,10.3373,10.1416,10.7959,11.3164,11.2599,11.5335,11.7292,11.7007,11.9545,12.1444,12.1877,12.5487,12.7911,12.8156,12.915,13.0525,13.2373,13.1149,13.0598,13.122,13.1405,13.1567,13.1635,13.4181,13.5646,13.6127,13.7725,13.9104,14.0362,14.0362,14.1015,14.2081,14.2081,14.2081,14.2081,14.2081,14.2081,14.2081,14.2081,14.256,14.3157,14.2605,14.3293,14.4457,14.353,14.3103,14.2886,14.2886,14.2886,14.2886,14.2886,14.2886,14.2886,14.2886,14.2886,14.2886,14.2886,14.2886,14.2886,14.2886,14.2886,14.2886,14.2886,14.2886,14.2737,14.2288,14.2227,14.1704,13.9984,14.0732,14.1031,13.9386,14.0208,13.9458,13.5247,13.5091,13.5282,13.5026,13.7696,13.9555,13.9555,14.1426,14.2626,14.2626,14.3211,14.3574,14.3574,14.3574,14.3574,14.3574,14.403,14.4181,14.4181,14.4637,14.4789,14.4789,14.4789,14.4789,10.0204,10.167,10.2478,10.8267,10.9017,10.869,10.997,11.1744,11.2901,11.2228,11.0664,10.8791,10.6218,10.7767,10.8646,10.6342,11.3168,11.7999,11.5884,11.8538,12.0108,11.8618,12.0181,12.1877,12.3321,12.5054,12.6368,12.7134,12.7705,12.8774,13.0454,13.0262,13.0715,13.2248,13.3109,13.3625,13.3771,13.4754,13.6107,13.7751,13.9404,14.0287,14.0361,14.0361,14.0361,14.0434,14.0434,14.0434,14.0434,14.0434,14.0434,14.0434,14.0434,14.0948,14.1619,14.1585,14.2192,14.2853,14.1957,14.2137,14.2886,14.2886,14.2886,14.2886,14.2886,14.2886,14.2886,14.2886,14.2886,14.2886,14.2886,14.2886,14.2886,14.2886,14.2886,14.2886,14.2886,14.2886,14.2363,14.082,14.0521,13.9922,13.8264,13.804,13.7516,13.5946,13.5796,13.4872,13.2017,13.3004,13.3464,13.1827,13.3446,13.4645,13.4645,13.6576,13.7796,13.7796,13.9322,14.0235,14.0235,14.0235,14.0235,14.0235,14.175,14.2585,14.2585,14.4106,14.4789,14.4789,14.4789,14.4789,9.481,9.6824,9.9231,10.6194,10.7729,10.8317,11.1318,11.2989,11.3945,11.3938,11.2971,11.1709,11.0444,11.0137,10.9755,10.8751,11.1743,11.4056,11.3661,11.6842,11.9019,11.8575,12.0916,12.2982,12.3992,12.4636,12.5549,12.7015,12.7639,12.8661,13.0339,12.9113,12.8466,12.8624,12.8933,12.8868,12.833,13.0223,13.1507,13.208,13.4307,13.6451,13.8507,13.8507,13.9081,14.0061,14.0061,14.0213,14.033,14.033,14.033,14.033,14.033,14.0836,14.1446,14.0962,14.1653,14.256,14.0019,13.9343,13.961,13.961,13.961,13.961,13.961,13.961,13.961,13.961,13.961,13.961,13.961,13.961,13.961,13.961,13.961,13.961,13.961,13.961,13.946,13.8862,13.8713,13.8189,13.6619,13.5422,13.4253,13.2789,13.1802,13.0953,13.0256,13.0677,13.0886,13.0425,13.2011,13.3106,13.3106,13.4747,13.6289,13.7349,13.7956,13.8794,13.9932,13.9932,13.9932,13.9932,14.0539,14.0843,14.0843,14.145,14.1677,14.1677,14.1677,14.1677,8.9563,9.2171,9.6013,10.1565,10.5181,10.8126,11.0633,11.3018,11.4681,11.4696,11.4631,11.4213,11.3013,11.2603,11.2163,11.099,11.2119,11.3374,11.3939,11.6413,11.866,11.9909,12.167,12.3202,12.4463,12.419,12.4691,12.6375,12.7019,12.7808,12.8964,12.8256,12.7765,12.7635,12.7931,12.781,12.7219,12.9119,13.0169,13.0226,13.186,13.4064,13.6703,13.7238,13.8104,13.9172,13.9226,13.9314,13.951,13.951,13.951,13.951,13.951,13.9814,14.0167,13.9697,14.0163,14.0799,13.8571,13.7775,13.7815,13.7815,13.7815,13.7815,13.7815,13.7441,13.7067,13.7067,13.7067,13.7067,13.7067,13.7441,13.7815,13.7815,13.7441,13.7067,13.7067,13.7067,13.6694,13.5572,13.585,13.5812,13.4251,13.2657,13.1506,13.1216,12.9881,12.8667,12.8071,12.7954,12.7996,12.8165,12.9232,12.9915,12.9915,13.1433,13.3102,13.4772,13.5376,13.6742,13.9021,13.9097,13.9401,13.9932,13.9932,13.9932,13.9932,13.9932,13.9937,13.9947,13.9947,13.995,8.541,8.8363,9.2828,9.4557,10.1525,10.7721,10.7347,11.136,11.5058,11.4406,11.5807,11.6332,11.4077,11.5491,11.6142,11.3357,11.4971,11.6723,11.7148,11.7728,11.9334,12.2532,12.2245,12.2609,12.4506,12.3768,12.3708,12.5088,12.5774,12.622,12.638,12.7599,12.8738,12.9704,13.0482,13.0923,13.1019,13.1954,13.2432,13.2582,13.267,13.3492,13.4971,13.6702,13.7523,13.7537,13.7674,13.774,13.7815,13.7815,13.7815,13.7815,13.7815,13.7815,13.7802,13.774,13.7572,13.7463,13.7463,13.7558,13.7666,13.7666,13.7666,13.7666,13.7666,13.6619,13.5422,13.5422,13.5422,13.5422,13.5422,13.6544,13.7666,13.7666,13.6544,13.5422,13.5435,13.5361,13.4388,13.1061,13.193,13.2738,13.1135,12.9704,12.932,13.0936,12.9818,12.7842,12.5336,12.4985,12.4985,12.4985,12.4985,12.4985,12.4985,12.65,12.8094,12.969,13.1357,13.3707,13.7046,13.7197,13.7959,13.9628,13.9628,13.9631,13.9631,13.9631,13.9719,13.9742,13.9742,13.9753,9.1243,9.2563,9.3289,9.3826,9.8421,10.2701,10.204,10.6186,11.106,11.384,11.6207,11.7379,11.6124,11.6523,11.676,11.5861,11.6094,11.6366,11.6468,11.748,11.8338,11.8755,12.0071,12.1357,12.2659,12.2368,12.2843,12.449,12.5206,12.6052,12.7116,12.746,12.742,12.7081,12.7238,12.7077,12.6555,12.7453,12.7963,12.8148,12.994,13.1029,13.1463,13.3178,13.4651,13.5806,13.5847,13.6601,13.7815,13.7815,13.7815,13.7815,13.7815,13.7748,13.7368,13.4978,13.4196,13.4236,13.4236,13.4262,13.4288,13.4288,13.4288,13.4288,13.4288,13.3989,13.369,13.369,13.369,13.369,13.369,13.3989,13.4288,13.4288,13.3989,13.3717,13.3862,13.2852,13.168,13.1253,13.0452,12.937,12.792,12.728,12.6894,12.6428,12.615,12.5815,12.5054,12.4985,12.4985,12.4985,12.4985,12.4985,12.4985,12.544,12.6427,12.8094,12.8625,12.9763,13.1812,13.1964,13.2194,13.2649,13.2649,13.2657,13.2594,13.2594,13.329,13.4444,13.4444,13.5681,8.8027,8.7284,8.6322,8.8752,9.2036,9.6152,10.1971,10.4811,10.7874,11.3781,11.6051,11.7067,11.7356,11.7401,11.7309,11.7045,11.6947,11.6908,11.6704,11.7488,11.8257,11.8614,11.9188,12.0002,12.1283,12.1304,12.1746,12.3058,12.3529,12.4102,12.4909,12.4911,12.4779,12.4583,12.4505,12.4612,12.4891,12.5373,12.6052,12.6767,12.8249,12.9312,12.9968,13.094,13.2263,13.3984,13.3979,13.4645,13.5637,13.5637,13.5637,13.5637,13.5637,13.5623,13.5372,13.3505,13.2798,13.2851,13.2851,13.289,13.2942,13.2942,13.2942,13.2942,13.2942,13.2493,13.1908,13.1908,13.1908,13.1908,13.1908,13.2419,13.2942,13.2942,13.2519,13.1994,13.1429,13.0517,12.9265,12.7574,12.7002,12.6346,12.4798,12.4688,12.4266,12.2716,12.2737,12.2858,12.2858,12.2858,12.2858,12.2858,12.2858,12.2858,12.2858,12.2858,12.3617,12.5286,12.5362,12.6424,12.8777,12.8804,12.912,12.9803,12.9821,12.9831,12.9836,12.9765,13.0298,13.1208,13.1203,13.1696,7.8992,7.6632,7.5944,8.0505,8.3112,8.8015,0.0,10.2416,10.3163,11.1013,11.3042,11.41,11.6119,11.6712,11.6908,11.6977,11.7606,11.7779,11.7269,11.7668,11.8643,12.0243,11.9046,11.8689,12.0152,12.0214,12.0535,12.1309,12.1381,12.1396,12.1634,12.1634,12.1915,12.2612,12.2568,12.332,12.5017,12.5017,12.5776,12.7338,12.7338,12.8157,12.9557,12.9486,13.0333,13.1818,13.2185,13.2241,13.2316,13.2493,13.2581,13.2595,13.2595,13.2216,13.1638,13.1849,13.1924,13.1937,13.1937,13.2166,13.2419,13.2419,13.2419,13.2419,13.2419,13.1384,13.02,13.02,13.02,13.0213,13.0188,13.1322,13.2445,13.2506,13.1655,13.0377,12.8892,12.8448,12.7078,12.2699,12.2948,12.3452,12.2063,12.2033,12.1568,11.9668,11.9365,11.9441,11.9592,11.9668,11.9744,11.9896,11.9972,11.9972,11.9972,11.9972,12.0579,12.2099,12.2182,12.3552,12.6512,12.656,12.7181,12.87,12.87,12.8611,12.8458,12.8502,12.8544,12.8514,12.8603,12.7436,0.0,0.0,0.0,0.0,0.0,0.0,0.0,8.1901,8.6952,9.2596,9.6918,10.1001,10.5377,10.8354,11.1407,11.5192,11.7114,11.795,11.7282,11.7742,11.8287,11.8609,11.8304,11.8194,11.8563,11.8556,11.9109,12.06,12.0496,12.1026,12.2352,12.2426,12.248,12.2674,12.2647,12.3454,12.5106,12.5106,12.5926,12.7477,12.7477,12.7626,12.7999,12.7957,12.812,12.852,12.9903,13.0513,13.0676,13.2142,13.2785,13.2864,13.2864,12.9538,12.498,12.6312,12.6911,12.6998,12.6998,12.792,12.9066,12.9066,12.9066,12.9066,12.9066,12.8842,12.8555,12.8555,12.8555,12.8566,12.8803,12.9123,12.9431,12.9602,12.9503,12.9252,12.926,12.6984,12.4811,12.441,12.2257,12.0481,12.0379,12.0415,11.9365,11.6329,11.5874,11.6329,11.7698,11.7925,11.8456,11.9744,11.9972,11.9972,11.9972,11.9972,12.0048,12.0427,12.0398,12.0719,12.1403,12.1262,12.1405,12.1709,12.1607,12.0898,11.9668,12.0813,12.1367,12.1415,12.2754,12.154,0.0,0.0,0.0,0.0,0.0,0.0,0.0,0.0,0.0,0.0,0.0,9.3175,9.648,0.0,10.671,11.0049,11.4137,11.7004,11.7493,11.7914,11.8091,11.8149,11.8103,11.8091,11.8149,11.8103,11.8442,11.9327,11.9268,11.9469,12.0227,12.0214,12.0188,12.0124,12.0124,12.0982,12.2612,12.3506,12.5093,12.7394,12.7477,12.7924,12.8674,12.785,12.7518,12.7518,12.7606,12.7606,12.7619,12.7686,12.7752,12.783,12.7957,12.5952,12.3063,12.3873,12.4208,12.4269,12.4269,12.4879,12.5552,12.5552,12.5552,12.5552,12.5552,12.5717,12.5833,12.5833,12.5982,12.6107,12.6235,12.6278,12.6329,12.6429,12.6504,12.6492,12.578,12.376,12.1849,12.132,11.902,11.7248,11.7382,11.7392,11.6861,11.5115,11.4888,11.5191,11.6028,11.6863,11.7394,11.7392,11.8179,11.864,11.8686,11.8658,11.905,11.9868,11.9134,11.868,11.868,11.7653,11.7152,11.7152,11.6966,11.6502,11.5722,11.6435,11.674,11.6722,11.7561,11.6908,0.0,0.0,0.0,0.0,0.0,0.0,0.0,0.0,0.0,0.0,0.0,0.0,0.0,0.0,0.0,10.4343,11.0582,11.5608,11.7338,11.7263,11.7223,11.7614,11.77,11.7786,11.816,11.8137,11.8126,11.8126,11.8126,11.8183,11.8339,11.8053,11.8078,11.8621,11.8026,11.8647,12.0561,12.1591,12.3523,12.6347,12.6473,0.0,12.8309,12.7083,12.6542,12.6393,12.5167,12.4659,12.4598,12.3221,12.2712,12.2664,12.2241,12.2474,12.2997,12.2698,12.2624,12.2624,12.2624,12.2773,12.3084,12.3103,12.3137,12.316,12.3239,12.345,0.0,12.3709,12.3833,12.4043,12.4107,12.412,12.4134,12.4194,12.437,12.4042,12.2375,12.0885,11.9441,11.7774,11.6028,11.4888,11.4888,11.4356,11.3825,11.3522,11.3749,11.3977,11.3977,11.5421,11.6033,11.498,11.608,11.6922,11.6899,11.6327,11.6776,11.8832,11.7082,11.5776,11.5461,11.3911,11.3051,11.3035,11.2878,11.3178,11.3775,11.399,11.3906,11.3446,10.9479,10.8736,0.0,0.0,0.0,0.0,0.0,0.0,0.0,0.0,0.0,0.0,0.0,0.0,0.0,0.0,0.0,0.0,10.8151,11.4163,11.5734,11.4762,11.4388,11.5756,11.598,11.6504,11.7999,11.8057,11.7998,11.7998,11.7998,11.8658,12.0103,11.8867,0.0,0.0,0.0,11.9321,12.2129,12.0925,12.1141,12.286,12.2874,12.2949,12.3083,12.2949,12.2888,12.2814,12.2818,12.2799,12.2751,12.2851,12.279,12.2591,11.9822,12.0467,12.2848,12.1525,12.1002,12.1002,12.1002,0.0,0.0,12.3484,12.3604,12.3597,12.3842,12.3953,12.3984,12.3984,12.4006,12.41,12.4343,12.4397,12.4446,12.4763,12.4881,12.4434,12.2765,12.1103,11.9441,11.7774,11.6028,11.4888,11.4888,11.2459,11.0033,10.8518,10.9578,11.0562,11.0562,11.193,11.3394,11.472,11.5028,0.0,11.5184,11.2447,11.2066,11.5255,11.2445,10.9993,10.8302,10.8094,10.7881,10.7779,10.7621,10.8953,11.1879,11.3291,11.3124,11.1226,9.3546,9.008,0.0,0.0,0.0,0.0,0.0,0.0,0.0,0.0,0.0,0.0,0.0,0.0,0.0,0.0,0.0,0.0,9.9919,10.5921,10.5725,10.9261,11.2103,11.2776,11.3662,11.4933,11.6578,11.6683,11.666,11.666,11.7557,11.8344,11.902,11.847,11.9142,12.1397,11.9244,11.8634,11.9929,12.0228,12.1123,12.2608,12.27,12.3221,12.4036,12.316,12.2738,12.2664,12.1845,12.1434,12.136,12.0499,12.0696,12.1305,0.0,0.0,0.0,0.0,11.8476,11.9486,11.9649,12.0097,12.0717,12.087,12.0918,12.095,12.1077,12.1227,12.1417,12.1417,12.1515,12.1693,12.1768,12.1785,12.1802,12.2011,12.2023,12.1871,12.111,11.891,11.6785,11.6102,11.3825,0.0,11.208,11.0942,10.9803,10.9047,10.9531,10.9926,10.9926,11.1308,11.2226,11.1997,11.2822,11.3422,11.3427,11.201,0.0,0.0,0.0,11.179,11.0034,10.9827,0.0,0.0,0.0,10.1028,10.1397,9.7193,0.0,0.0,8.7606,8.6177,0.0,0.0,0.0,0.0,0.0,0.0,0.0,0.0,0.0,0.0,0.0,0.0,0.0,0.0,0.0,0.0,9.1682,9.774,9.4865,10.1922,10.7241,10.6793,10.9774,11.2241,11.2914,11.3812,11.4709,11.5606,11.6803,11.7815,11.8706,11.8332,11.8957,12.1037,11.907,11.8198,11.8622,11.9441,12.045,12.1421,12.1558,12.2168,12.3275,12.2106,12.1631,12.1557,12.0408,11.9983,11.9909,11.8672,11.8908,11.9753,11.7458,11.6584,11.6584,11.6584,11.7443,11.8694,11.8942,11.8943,11.8957,11.911,11.9129,11.9141,11.9212,11.9419,11.9676,11.9676,11.983,11.982,11.9365,11.9213,11.9137,11.8682,11.853,11.8454,11.7923,11.5874,11.4053,11.3674,11.1625,11.0031,11.0031,11.0031,10.981,10.9373,10.9629,10.9642,10.9189,11.0628,11.122,10.9991,11.0942,11.1687,11.1643,11.0698,11.1005,11.3118,11.2292,11.1567,11.1232,10.9377,10.7897,10.7019,10.1074,9.6397,0.0,0.0,0.0,0.0,0.0,0.0,0.0,0.0,0.0,0.0,0.0,0.0,0.0,0.0,0.0,0.0,0.0,0.0,0.0,0.0,0.0,0.0,0.0,0.0,8.4956,9.2632,9.8342,9.6697,10.3577,10.784,10.6409,10.9111,11.2252,11.5457,11.5681,11.7177,12.0478,11.9046,11.9527,12.2463,11.9619,11.8538,11.968,11.846,11.7853,11.7799,11.7866,11.7991,11.8065,11.7991,11.7916,11.8003,11.8076,11.8061,11.8073,11.8178,11.8235,11.8324,11.8744,11.884,11.884,11.884,11.8923,11.893,11.8937,11.8943,11.899,11.938,11.9518,11.9554,11.9851,11.9889,11.9891,11.9891,11.997,11.9592,11.7925,11.747,11.7091,11.5419,11.5039,11.4584,11.2917,11.254,11.2006,11.0486,11.0107,11.0031,11.0031,11.0031,10.9445,10.7664,10.8805,0.0,10.7583,10.8869,10.9917,10.9854,10.9844,10.9886,10.9936,10.6882,10.631,10.9404,10.6666,10.6231,10.9208,10.3049,10.0249,10.1825,10.1526,9.8133,9.1666,0.0,0.0,0.0,0.0,0.0,0.0,0.0,0.0,0.0,0.0,0.0,0.0,0.0,0.0,0.0,0.0,0.0,0.0,0.0,0.0,0.0,0.0,0.0,0.0,8.8468,9.537,9.1603,9.7445,10.0735,9.7959,10.1698,10.4679,10.58,10.9923,11.2925,11.4047,11.4634,11.5935,11.7947,11.5965,11.5108,11.5491,11.5062,11.4787,11.4815,11.5907,11.6378,11.6453,11.7573,11.8022,11.8045,11.8251,11.8395,11.8415,11.8575,11.6093,11.207,11.1114,11.0749,11.0749,11.0749,11.0867,11.1387,11.3576,11.4426,11.4768,11.6029,11.794,11.939,11.7228,11.8151,11.9441,11.724,11.7392,11.7849,11.6178,11.5722,11.5571,11.5039,11.4888,11.4736,11.4129,11.3145,11.2234,11.1703,10.8921,10.5596,10.225,10.5293,10.6521,10.152,10.4999,10.8388,10.8895,10.9457,10.9864,10.9826,10.9823,10.9808,10.9845,10.8644,10.8284,10.9384,10.7268,10.647,10.7555,10.4241,10.2647,10.3174,10.312,9.6629,8.3395,0.0,0.0,0.0,0.0,0.0,0.0,0.0,0.0,0.0,0.0,0.0,0.0,0.0,0.0,0.0,0.0,0.0,0.0,0.0,0.0,0.0,0.0,0.0,0.0,0.0,0.0,8.8097,9.1968,0.0,9.1119,9.2688,9.4781,9.7173,10.1389,10.5073,10.7989,10.9175,11.0788,11.2923,11.1995,11.145,11.1351,11.145,11.1472,11.1492,11.2668,11.32,11.321,11.4379,11.4888,11.4907,11.5088,11.5189,11.5222,11.5652,11.2149,10.66,10.548,10.3962,10.2595,10.442,10.5191,10.5971,10.9906,11.1715,11.2537,11.36,11.3827,11.337,11.1852,11.079,11.0183,11.0413,11.1247,11.2082,11.2234,11.2234,11.2082,11.1473,11.1321,11.1321,11.1321,11.0047,10.8998,10.9607,10.7121,10.3182,9.7481,10.0066,10.1442,9.7103,10.0629,10.4981,10.8509,10.9429,10.984,10.984,10.984,10.9824,10.9717,10.9046,10.8591,10.8431,10.6759,10.5799,10.574,10.4054,10.2269,10.0457,9.8727,9.1441,0.0,0.0,0.0,0.0,0.0,0.0,0.0,0.0,0.0,0.0,0.0,0.0,0.0,0.0,0.0,0.0,0.0,0.0,0.0,0.0,0.0,0.0,0.0,0.0,0.0,0.0,0.0,8.5463,8.685,0.0,0.0,0.0,0.0,8.9347,9.0288,9.3987,10.1772,10.2445,10.404,10.7308,10.7584,10.7692,10.7676,10.7927,10.7979,10.7777,10.82,10.8411,10.8419,10.8774,10.896,10.9036,10.9055,10.9062,10.9107,10.8941,10.6011,10.1536,10.1308,9.8197,9.4553,9.9487,10.1384,10.2219,10.7453,11.0261,11.1477,11.1401,10.7076,10.2143,10.3355,9.8269,0.0,0.0,10.1536,10.2447,10.5937,10.6924,10.662,10.5328,10.4949,10.4949,10.4953,10.3696,10.2881,10.387,10.4099,10.1819,9.4599,0.0,9.3851,9.3644,9.5517,9.935,10.5905,10.8393,10.9613,10.9613,10.9613,10.9423,10.9092,10.7715,10.6704,10.6369,10.4765,10.379,10.3623,10.1668,9.8359,9.3539,8.8419,0.0,0.0,0.0,0.0,0.0,0.0,0.0,0.0,0.0,0.0,0.0,0.0,0.0,0.0,0.0,0.0,0.0,0.0,0.0,0.0,0.0,0.0,0.0,0.0,0.0,0.0,6.9716,7.5742,7.6742,7.7386,7.6095,0.0,0.0,0.0,0.0,0.0,0.0,8.5028,8.8695,9.2781,9.7531,9.893,10.1405,10.5093,10.5221,10.4543,10.3294,10.4668,10.532,10.5396,10.6588,10.7897,10.9049,10.9266,10.9344,10.8531,9.7676,9.1745,8.9015,8.5219,8.3018,8.2183,8.4689,8.6435,8.8634,9.6146,9.903,9.9106,9.7966,9.6448,9.3946,8.8104,0.0,0.0,0.0,0.0,9.2352,9.6905,9.903,10.0773,10.4188,10.4949,10.496,10.4995,10.4625,10.1897,9.3547,9.1868,8.768,7.4785,7.7745,0.0,7.6726,8.5039,9.3663,9.908,10.3469,10.6045,10.6045,10.6045,10.5481,10.4028,10.3487,10.2613,10.1167,9.9461,9.8547,9.8502,9.2111,8.7449,8.4892,0.0,0.0,0.0,0.0,0.0,0.0,0.0,0.0,0.0,0.0,0.0,0.0,0.0,0.0,0.0,0.0,0.0,0.0,0.0,0.0,0.0,0.0,0.0,0.0,0.0,0.0,0.0,6.304,6.9435,7.2307,7.024,6.7479,0.0,0.0,0.0,0.0,0.0,0.0,0.0,0.0,0.0,8.5249,8.7075,8.9615,9.3254,9.5459,9.6069,9.5151,9.8441,10.0005,10.0081,10.1002,10.1946,10.2859,10.2977,10.1805,9.9079,9.0051,8.2791,7.6949,0.0,0.0,0.0,0.0,7.3457,7.4747,8.2411,8.5067,8.4915,8.4079,0.0,0.0,0.0,0.0,0.0,0.0,0.0,8.3322,8.9015,9.3414,9.6979,9.9865,10.0564,10.0509,10.0526,9.5901,8.9596,8.2299,8.0152,7.6038,6.4668,6.7247,0.0,0.0,0.0,8.6957,9.4153,10.0137,10.3693,10.3693,10.4266,10.3981,10.2142,10.119,9.9924,9.8127,9.6448,9.4216,9.1276,8.5945,7.9553,0.0,0.0,0.0,0.0,0.0,0.0,0.0,0.0,0.0,0.0,0.0,0.0,0.0,0.0,0.0,0.0,0.0,0.0,0.0,0.0,0.0,0.0,0.0,0.0,0.0,0.0,0.0,0.0,0.0,6.3821,6.8809,0.0,0.0,0.0,0.0,0.0,0.0,0.0,0.0,0.0,0.0,0.0,0.0,0.0,7.5852,7.8003,8.258,8.4784,8.4855,8.9769,9.2042,9.2039,9.239,9.2883,9.349,9.1669,0.0,8.5597,8.2564,0.0,0.0,0.0,0.0,0.0,0.0,0.0,0.0,0.0,0.0,0.0,0.0,0.0,0.0,0.0,0.0,0.0,0.0,0.0,0.0,0.0,0.0,9.2364,9.2745,9.3379,9.3469,9.1875,8.2376,7.3448,7.0867,6.8971,6.5638,0.0,0.0,0.0,0.0,0.0,0.0,8.946,9.688,10.1265,10.1257,10.2623,10.2753,10.0656,9.9265,9.7702,9.5727,9.3238,8.9103,8.3081,8.0832,0.0,0.0,0.0,0.0,0.0,0.0,0.0,0.0,0.0,0.0,0.0,0.0,0.0,0.0,0.0,0.0,0.0,0.0,0.0,0.0,0.0,0.0,0.0,0.0,0.0,0.0,0.0,0.0,0.0,0.0,0.0,0.0,0.0,0.0,0.0,0.0,0.0,0.0,0.0,0.0,0.0,0.0,0.0,0.0,0.0,0.0,0.0,0.0,0.0,0.0,7.7274,7.8431,7.8325,7.9737,8.2715,8.6055,7.4973,7.285,7.6419,6.6478,0.0,0.0,0.0,0.0,0.0,0.0,0.0,0.0,0.0,0.0,0.0,0.0,0.0,0.0,0.0,0.0,0.0,0.0,0.0,0.0,0.0,0.0,7.9042,8.1853,8.5726,8.6103,7.6292,0.0,0.0,0.0,0.0,0.0,0.0,0.0,0.0,0.0,0.0,0.0,8.1121,9.029,9.61,9.603,9.7361,9.7052,9.3752,9.4539,9.3785,9.0552,8.3702,7.8657,0.0,0.0,0.0,0.0,0.0,0.0,0.0,0.0,0.0,0.0,0.0,0.0,0.0,0.0,0.0,0.0,0.0,0.0,0.0,0.0,0.0,0.0,0.0,0.0,0.0,0.0,0.0,0.0,0.0,0.0,0.0,0.0,0.0,0.0,0.0,0.0,0.0,0.0,0.0,0.0,0.0,0.0,0.0,0.0,0.0,0.0,0.0,0.0,0.0,0.0,0.0,0.0,0.0,0.0,0.0,0.0,0.0,0.0,6.8069,6.291,0.0,0.0,0.0,0.0,0.0,0.0,0.0,0.0,0.0,0.0,0.0,0.0,0.0,0.0,0.0,0.0,0.0,0.0,0.0,0.0,0.0,0.0,0.0,0.0,0.0,0.0,0.0,0.0,0.0,0.0,0.0,0.0,0.0,0.0,0.0,0.0,0.0,0.0,0.0,0.0,7.6425,8.6048,9.2551,9.3347,9.4882,9.4743,9.216,9.2557,9.042,8.4333,7.8623,0.0,0.0,0.0,0.0,0.0,0.0,0.0,0.0,0.0,0.0,0.0,0.0,0.0,0.0,0.0,0.0,0.0,0.0,0.0,0.0,0.0,0.0,0.0,0.0,0.0,0.0,0.0,0.0,0.0,0.0,0.0,0.0,0.0,0.0,0.0,0.0,0.0,0.0,0.0,0.0,0.0,0.0,0.0,0.0,0.0,0.0,0.0,0.0,0.0,0.0,0.0,0.0,0.0,0.0,0.0,0.0,0.0,0.0,0.0,6.1317,5.4639,0.0,0.0,0.0,0.0,0.0,0.0,0.0,0.0,0.0,0.0,0.0,0.0,0.0,0.0,0.0,0.0,0.0,0.0,0.0,0.0,0.0,0.0,0.0,0.0,0.0,0.0,0.0,0.0,0.0,0.0,0.0,0.0,0.0,0.0,0.0,0.0,0.0,0.0,0.0,0.0,7.2944,8.2488,8.9226,9.0496,9.2095,9.2341,9.0646,9.0624,8.7111,7.8741,7.4045,0.0,0.0,0.0,0.0,0.0,0.0,0.0,0.0,0.0,0.0,0.0,0.0,0.0,0.0,0.0,0.0,0.0,0.0,0.0,0.0,0.0,0.0,0.0,0.0,0.0,0.0,0.0,0.0,0.0,0.0,0.0,0.0,0.0,0.0,0.0,0.0,0.0,0.0,0.0,0.0,0.0,0.0,0.0,0.0,0.0,0.0,0.0,0.0,0.0,0.0,0.0,0.0,0.0,0.0,0.0,0.0,0.0,0.0,0.0,0.0,0.0,0.0,0.0,0.0,0.0,0.0,0.0,0.0,0.0,0.0,0.0,0.0,0.0,0.0,0.0,0.0,0.0,0.0,0.0,0.0,0.0,0.0,0.0,0.0,0.0,0.0,0.0,0.0,0.0,0.0,0.0,0.0,0.0,0.0,0.0,0.0,0.0,0.0,0.0,0.0,0.0,6.9384,7.9,8.5257,8.5257,8.6829,8.7061,8.5202,8.6438,8.3743,7.529,0.0,0.0,0.0,0.0,0.0,0.0,0.0,0.0,0.0,0.0,0.0,0.0,0.0,0.0,0.0,0.0,0.0,0.0,0.0,0.0,0.0,0.0,0.0,0.0,0.0,0.0,0.0,0.0,0.0,0.0,0.0,0.0,0.0,0.0,0.0,0.0,0.0,0.0,0.0,0.0,0.0,0.0,0.0,0.0,0.0,0.0,0.0,0.0,0.0,0.0,0.0,0.0,0.0,0.0,0.0,0.0,0.0,0.0,0.0,0.0,0.0,0.0,0.0,0.0,0.0,0.0,0.0,0.0,0.0,0.0,0.0,0.0,0.0,0.0,0.0,0.0,0.0,0.0,0.0,0.0,0.0,0.0,0.0,0.0,0.0,0.0,0.0,0.0,0.0,0.0,0.0,0.0,0.0,0.0,0.0,0.0,0.0,0.0,0.0,0.0,0.0,0.0,6.6129,7.6425,8.3608,8.4557,8.5197,8.5291,8.4535,8.5014,8.0926,7.0584,0.0,0.0,0.0,0.0,0.0,0.0,0.0,0.0,0.0,0.0,0.0,0.0,0.0,0.0,0.0,0.0,0.0,0.0,0.0,0.0,0.0,0.0,0.0,0.0,0.0,0.0,0.0,0.0,0.0,0.0,0.0,0.0,0.0,0.0,0.0,0.0,0.0,0.0,0.0,0.0,0.0,0.0,0.0,0.0,0.0,0.0,0.0,0.0,0.0,0.0,0.0,0.0,0.0,0.0,0.0,0.0,0.0,0.0,0.0,0.0,0.0,0.0,0.0,0.0,0.0,0.0,0.0,0.0,0.0,0.0,0.0,0.0,0.0,0.0,0.0,0.0,0.0,0.0,0.0,0.0,0.0,0.0,0.0,0.0,0.0,0.0,0.0,0.0,0.0,0.0,0.0,0.0,0.0,0.0,0.0,0.0,0.0,0.0,0.0,0.0,0.0,0.0,6.3556,7.4307,8.1945,8.3136,8.3135,8.2997,8.298,8.2881,7.7799,6.6242,0.0,0.0,0.0,0.0,0.0,0.0,0.0,0.0,0.0,0.0,0.0,0.0,0.0,0.0,0.0,0.0,0.0,0.0,0.0,0.0,0.0,0.0,0.0,0.0,0.0,0.0,0.0,0.0,0.0,0.0,0.0,0.0,0.0,0.0,0.0,0.0,0.0,0.0,0.0,0.0,0.0,0.0,0.0,0.0,0.0,0.0,0.0,0.0,0.0,0.0,0.0,0.0,0.0,0.0,0.0,0.0,0.0,0.0,0.0,0.0,0.0,0.0,0.0,0.0,0.0,0.0,0.0,0.0,0.0,0.0,0.0,0.0,0.0,0.0,0.0,0.0,0.0,0.0,0.0,0.0,0.0,0.0,0.0,0.0,0.0,0.0,0.0,0.0,0.0,0.0,0.0,0.0,0.0,0.0,0.0,0.0,0.0,0.0,0.0,0.0,0.0,0.0,6.1738,7.2641,7.9884,7.981,7.954,7.9356,7.937,7.9114,7.4064,0.0,0.0,0.0,0.0,0.0,0.0,0.0,0.0,0.0,0.0,0.0,0.0,0.0,0.0,0.0,0.0,0.0,0.0,0.0,0.0,0.0,0.0,0.0,0.0,0.0,0.0,0.0,0.0,0.0,0.0,0.0,0.0,0.0,0.0,0.0,0.0,0.0,0.0,0.0,0.0,0.0,0.0,0.0,0.0,0.0,0.0,0.0,0.0,0.0,0.0,0.0,0.0,0.0,0.0,0.0,0.0,0.0,0.0,0.0,0.0,0.0,0.0,0.0,0.0,0.0,0.0,0.0,0.0,0.0,0.0,0.0,0.0,0.0,0.0,0.0,0.0,0.0,0.0,0.0,0.0,0.0,0.0,0.0,0.0,0.0,0.0,0.0,0.0,0.0,0.0,0.0,0.0,0.0,0.0,0.0,0.0,0.0,0.0,0.0,0.0,0.0,0.0,0.0,5.8019,6.7187,7.4281,7.7613,7.8882,7.9386,7.9295,7.9237,7.4718,6.4204,0.0,0.0,0.0,0.0,0.0,0.0,0.0,0.0,0.0,0.0,0.0,0.0,0.0,0.0,0.0,0.0,0.0,0.0,0.0,0.0,0.0,0.0,0.0,0.0,0.0,0.0,0.0,0.0,0.0,0.0,0.0,0.0,0.0,0.0,0.0,0.0,0.0,0.0,0.0,0.0,0.0,0.0,0.0,0.0,0.0,0.0,0.0,0.0,0.0,0.0,0.0,0.0,0.0,0.0,0.0,0.0,0.0,0.0,0.0,0.0,0.0,0.0,0.0,0.0,0.0,0.0,0.0,0.0,0.0,0.0,0.0,0.0,0.0,0.0,0.0,0.0,0.0,0.0,0.0,0.0,0.0,0.0,0.0,0.0,0.0,0.0,0.0,0.0,0.0,0.0,0.0,0.0,0.0,0.0,0.0,0.0,0.0,0.0,0.0,0.0,0.0,0.0,0.0,6.5606,7.2671,7.5824,7.7509,7.8143,7.7492,7.7881,7.3965,6.3988,0.0,0.0,0.0,0.0,0.0,0.0,0.0,0.0,0.0,0.0,0.0,0.0,0.0,0.0,0.0,0.0,0.0,0.0,0.0,0.0,0.0,0.0,0.0,0.0,0.0,0.0,0.0,0.0,0.0,0.0,0.0,0.0,0.0,0.0,0.0,0.0,0.0,0.0,0.0,0.0,0.0,0.0,0.0,0.0,0.0,0.0,0.0,0.0,0.0,0.0,0.0,0.0,0.0,0.0,0.0,0.0,0.0,0.0,0.0,0.0,0.0,0.0,0.0,0.0,0.0,0.0,0.0,0.0,0.0,0.0,0.0,0.0,0.0,0.0,0.0,0.0,0.0,0.0,0.0,0.0,0.0,0.0,0.0,0.0,0.0,0.0,0.0,0.0,0.0,0.0,0.0,0.0,0.0,0.0,0.0,0.0,0.0,0.0,0.0,0.0,0.0,0.0,0.0,6.7012,7.3783,7.4227,7.5599,7.5822,7.4354,7.5466,7.2077,6.2231,5.5647,0.0,0.0,0.0,0.0,0.0,0.0,0.0,0.0,0.0,0.0,0.0,0.0,0.0,0.0,0.0,0.0,0.0,0.0,0.0,0.0,0.0,0.0,0.0,0.0,0.0,0.0,0.0,0.0,0.0,0.0,0.0,0.0,0.0,0.0,0.0,0.0,0.0,0.0,0.0,0.0,0.0,0.0,0.0,0.0,0.0,0.0,0.0,0.0,0.0,0.0,0.0,0.0,0.0,0.0,0.0,0.0,0.0,0.0,0.0,0.0,0.0,0.0,0.0,0.0,0.0,0.0,0.0,0.0,0.0,0.0,0.0,0.0,0.0,0.0,0.0,0.0,0.0,0.0,0.0,0.0,0.0,0.0,0.0,0.0,0.0,0.0,0.0,0.0,0.0,0.0,0.0,0.0,0.0,0.0,0.0,0.0,0.0,0.0,0.0,0.0,0.0,0.0,6.4654,6.8525,7.228,7.4032,7.4767,7.4296,7.4538,7.1065,6.2286,5.6757,0.0,0.0,0.0,0.0,0.0,0.0,0.0,0.0,0.0,0.0,0.0,0.0,0.0,0.0,0.0,0.0,0.0,0.0,0.0,0.0,0.0,0.0,0.0,0.0,0.0,0.0,0.0,0.0,0.0,0.0,0.0,0.0,0.0,0.0,0.0,0.0,0.0,0.0,0.0,0.0,0.0,0.0,0.0,0.0,0.0,0.0,0.0,0.0,0.0,0.0,0.0,0.0,0.0,0.0,0.0,0.0,0.0,0.0,0.0,0.0,0.0,0.0,0.0,0.0,0.0,0.0,0.0,0.0,0.0,0.0,0.0,0.0,0.0,0.0,0.0,0.0,0.0,0.0,0.0,0.0,0.0,0.0,0.0,0.0,0.0,0.0,0.0,0.0,0.0,0.0,0.0,0.0,0.0,0.0,0.0,0.0,0.0,0.0,0.0,0.0,0.0,0.0,5.7081,6.2215,7.009,7.2341,7.2924,7.212,7.2705,6.9521,6.1114,5.6664,0.0,0.0,0.0,0.0,0.0,0.0,0.0,0.0,0.0,0.0,0.0,0.0,0.0,0.0,0.0,0.0,0.0,0.0,0.0,0.0,0.0,0.0,0.0,0.0,0.0,0.0,0.0,0.0,0.0,0.0,0.0,0.0,0.0,0.0,0.0,0.0,0.0,0.0,0.0,0.0,0.0,0.0,0.0,0.0,0.0,0.0,0.0,0.0,0.0,0.0,0.0,0.0,0.0,0.0,0.0,0.0,0.0,0.0,0.0,0.0,0.0,0.0,0.0,0.0,0.0,0.0,0.0,0.0,0.0,0.0,0.0,0.0,0.0,0.0,0.0,0.0,0.0,0.0,0.0,0.0,0.0,0.0,0.0,0.0,0.0,0.0,0.0,0.0,0.0,0.0,0.0,0.0,0.0,0.0,0.0,0.0,0.0,0.0,0.0,0.0,0.0,0.0,0.0,5.7293,6.7379,7.0202,7.082,6.9483,7.0584,6.7818,5.9682,0.0,0.0,0.0,0.0,0.0,0.0,0.0,0.0,0.0,0.0,0.0,0.0,0.0,0.0,0.0,0.0,0.0,0.0,0.0,0.0,0.0,0.0,0.0,0.0,0.0,0.0,0.0,0.0,0.0,0.0,0.0,0.0,0.0,0.0,0.0,0.0,0.0,0.0,0.0,0.0,0.0,0.0,0.0,0.0,0.0,0.0,0.0,0.0,0.0,0.0,0.0,0.0,0.0,0.0,0.0,0.0,0.0,0.0,0.0,0.0,0.0,0.0,0.0,0.0,0.0,0.0,0.0,0.0,0.0,0.0,0.0,0.0,0.0,0.0,0.0,0.0,0.0,0.0,0.0,0.0,0.0,0.0,0.0,0.0,0.0,0.0,0.0,0.0,0.0,0.0,0.0,0.0,0.0,0.0,0.0,0.0,0.0,0.0,0.0,0.0,0.0,0.0,0.0,0.0,5.9884,6.2985,6.6963,6.9429,6.9402,6.9419,6.6528,5.9816,0.0,0.0,0.0,0.0,0.0,0.0,0.0,0.0,0.0,0.0,0.0,0.0,0.0,0.0]}]]]